GFSCGP_925_thetae_000.txt.gz
Theta_e
319 323 320 319 319 319 319 320 321 321 320 320 320 321 320 319 318 318 318 319 319 318 318 317 317 316 314 313 312 310 310 309 308 308 308 308 308 308 308 308 308 308 307 306
319 323 319 318 319 319 318 320 321 320 320 321 321 321 320 318 318 317 317 318 318 318 317 317 317 316 314 313 312 311 310 309 308 308 307 307 308 308 308 307 307 307 307 305
318 321 317 318 319 319 318 321 320 320 321 322 321 321 321 318 317 317 317 318 317 317 316 316 316 315 315 314 313 312 311 310 309 308 308 308 307 307 306 306 306 307 306 306
319 318 317 318 319 318 319 320 320 321 323 323 322 321 319 319 318 317 318 319 318 318 317 317 316 315 314 314 314 313 312 311 310 309 308 307 307 306 306 305 305 305 306 306
322 318 316 318 318 318 320 319 321 323 324 323 322 321 321 319 318 318 319 319 319 318 318 317 316 315 314 313 314 313 312 312 311 310 309 307 307 307 307 306 305 305 305 304
316 316 317 317 317 319 320 322 323 325 323 331 325 324 322 320 319 318 318 318 318 318 317 316 316 315 315 314 313 313 313 312 312 311 310 308 307 306 307 306 305 304 303 302
321 319 318 317 320 321 321 323 332 338 340 336 323 322 323 322 320 318 317 317 318 317 317 317 316 316 315 315 314 314 313 313 312 312 311 309 308 306 305 306 304 302 302 300
324 327 319 319 319 320 321 322 332 331 331 328 321 322 321 320 319 317 317 317 317 318 318 317 317 317 316 315 315 314 313 313 313 312 311 310 308 306 306 304 302 299 298 298
325 324 321 319 318 319 321 325 321 324 327 327 325 323 323 322 319 318 319 318 319 318 318 318 317 316 315 315 315 314 314 313 313 312 312 309 308 306 304 302 300 298 297 296
322 324 322 321 321 321 321 321 325 329 332 328 323 324 324 323 323 321 321 320 320 319 318 318 317 315 315 315 315 313 313 312 310 308 308 305 304 302 300 298 297 296 295 295
322 324 324 322 324 323 321 323 325 323 326 329 330 324 323 322 322 322 320 320 319 319 318 317 316 315 314 313 312 311 310 308 307 305 304 301 300 299 297 296 295 295 294 294
322 322 326 324 322 320 319 322 322 328 327 326 328 326 321 323 322 321 321 319 318 317 316 315 314 314 313 313 312 311 309 306 305 303 300 299 298 296 295 294 295 295 294 294
320 325 325 323 323 321 322 321 321 323 323 325 327 325 321 322 322 321 319 318 317 316 314 314 314 313 312 311 311 311 306 305 303 300 298 297 296 295 295 295 295 294 294 293
317 320 324 326 325 322 323 321 321 322 324 324 324 324 322 321 320 319 319 316 315 315 315 314 313 312 311 311 310 308 304 304 302 299 298 296 295 295 296 295 294 293 293 293
320 324 322 321 320 320 320 320 320 321 321 322 321 321 320 319 319 317 316 316 315 314 314 313 312 311 310 310 309 305 304 303 300 299 297 297 298 297 296 295 294 293 292 292
321 322 320 321 320 320 319 319 320 319 318 319 320 321 319 317 316 316 316 316 316 315 313 312 311 309 309 309 309 302 301 301 299 298 299 299 298 296 295 294 293 292 292 291
322 321 318 322 318 318 319 318 319 319 318 319 319 318 317 316 316 316 316 315 314 313 312 312 309 309 309 307 303 302 302 302 301 300 298 297 297 295 294 293 292 292 290 289
320 317 316 320 317 322 318 317 316 318 318 317 316 316 316 316 316 315 315 313 312 312 311 310 309 308 307 304 301 302 302 302 299 298 298 298 295 293 292 292 291 290 289 288
319 318 321 321 322 319 317 317 318 318 317 316 316 318 317 316 316 314 313 312 312 310 309 308 307 306 303 302 301 301 301 300 298 298 296 294 293 292 292 291 289 288 287 287
316 315 325 323 322 321 318 315 316 316 318 318 317 317 317 315 316 314 312 311 311 308 307 306 305 303 302 301 300 300 300 299 296 295 294 292 292 291 290 289 288 287 287 286
321 319 320 320 320 319 316 316 317 320 320 316 316 316 315 315 314 312 311 312 310 308 305 305 303 301 301 301 300 298 296 296 293 291 291 291 291 289 288 288 287 286 286 285
318 319 319 317 320 321 317 318 318 317 317 316 315 314 314 313 312 311 311 310 308 306 305 302 301 301 300 299 298 296 293 291 291 291 290 290 289 288 288 287 285 285 285 285
316 317 319 317 318 316 317 316 316 315 316 315 315 313 312 311 311 310 310 308 306 303 301 300 300 300 299 297 293 293 291 290 290 290 289 288 288 287 286 285 285 285 285 284
315 315 316 315 314 315 315 315 315 315 314 313 312 311 311 309 307 307 307 307 303 300 299 300 299 298 296 295 292 291 290 290 289 289 288 288 287 287 285 285 285 284 284 284
315 314 314 314 314 314 315 315 314 314 312 311 310 309 306 305 304 305 305 303 300 298 299 299 297 297 295 292 291 290 289 288 288 287 287 287 287 285 285 285 284 284 283 282
313 314 315 315 314 315 315 314 314 312 311 310 307 304 304 303 304 304 302 299 298 298 298 298 297 295 293 292 291 290 289 288 286 286 287 286 285 284 285 284 284 283 282 282

GFSCGP_925_thetae_003.txt.gz
Theta_e
316 317 316 316 317 318 316 315 316 317 317 317 316 315 315 314 311 311 311 311 312 313 313 316 315 314 313 313 312 311 310 310 309 309 309 308 308 308 308 308 308 311 308 307
315 319 317 316 316 317 316 317 318 318 318 318 317 317 315 313 313 312 312 312 312 312 312 314 315 314 313 312 311 311 310 309 309 308 308 308 307 307 307 307 308 309 308 307
315 318 317 317 317 317 316 319 318 319 318 319 318 317 315 314 313 314 314 313 313 312 313 313 314 314 314 313 313 312 311 310 310 309 308 307 307 307 308 307 308 307 307 307
317 318 316 316 318 316 317 318 319 319 320 321 319 319 316 314 313 314 314 312 312 313 313 313 313 313 314 314 314 313 313 312 312 311 309 308 308 308 307 307 306 306 307 306
318 314 314 317 316 316 318 319 319 320 320 321 320 319 315 314 315 314 313 313 313 312 312 313 314 314 314 314 314 314 313 312 312 312 311 309 308 307 307 307 306 306 306 307
315 315 316 315 316 317 318 320 321 323 320 322 320 319 317 318 316 315 314 314 313 312 313 312 314 315 314 314 313 313 313 313 313 313 312 311 310 308 307 307 306 306 304 303
321 317 316 318 318 319 318 320 320 321 321 322 320 319 318 318 315 314 313 313 313 313 312 313 314 314 315 315 314 314 314 314 314 313 313 312 311 310 308 307 307 304 302 299
323 322 319 318 319 319 319 320 319 325 320 320 319 321 319 316 314 314 314 313 313 313 313 314 315 314 314 314 314 314 312 312 312 313 311 310 311 311 309 306 306 302 299 297
323 324 320 318 318 318 320 322 320 319 311 315 320 321 318 316 319 319 316 315 315 315 315 315 314 314 314 313 312 311 310 310 309 309 308 308 308 309 306 303 299 297 296 295
322 324 322 321 320 319 319 319 320 316 323 324 321 321 320 320 319 319 317 315 315 315 313 312 312 314 313 312 311 311 310 309 308 306 305 304 303 301 298 297 296 295 295 295
321 321 320 320 323 322 319 319 320 323 320 327 326 323 319 320 318 319 317 316 314 313 311 310 311 313 312 311 311 310 309 309 305 304 302 301 300 299 297 296 295 296 295 295
319 318 317 321 319 319 318 321 321 323 326 318 317 324 319 317 318 318 318 315 313 311 311 310 310 311 311 311 310 310 308 305 303 302 300 298 297 295 294 294 294 294 294 294
318 315 316 319 319 319 321 320 319 318 314 320 322 322 318 318 318 317 313 312 312 312 311 310 310 310 309 310 309 309 308 303 302 300 298 296 295 294 294 295 295 294 293 293
316 319 317 319 320 320 320 320 318 318 310 318 319 319 317 316 315 313 312 312 311 311 311 310 309 309 309 308 308 308 302 302 302 299 297 296 295 294 295 294 294 294 293 293
318 317 319 319 320 320 320 319 318 319 317 318 318 317 316 314 313 313 313 313 313 312 311 310 310 308 307 308 308 303 303 302 301 298 296 296 297 297 296 295 294 294 293 293
319 315 319 319 319 320 318 316 316 316 316 316 316 315 314 311 313 314 313 313 313 312 311 310 309 308 308 308 305 304 303 302 301 300 299 298 298 297 296 295 295 294 293 292
316 312 313 322 317 315 313 314 315 315 314 315 315 313 314 315 314 314 313 312 311 311 310 309 308 307 307 305 302 302 302 302 301 300 299 299 298 296 295 295 293 292 291 289
310 308 307 318 311 322 315 314 313 314 315 314 316 316 316 315 315 313 312 311 310 309 309 307 307 306 304 303 302 301 301 302 300 299 299 297 297 297 293 293 292 290 288 287
315 308 315 320 317 315 315 315 315 313 313 316 316 315 315 315 313 313 312 310 309 308 307 307 306 304 302 301 301 301 301 300 300 298 298 293 292 292 291 290 289 287 287 286
312 309 311 309 313 318 311 313 314 314 316 315 316 316 315 312 313 311 310 309 308 309 308 305 304 302 301 301 301 301 298 299 292 291 291 291 291 290 289 288 287 286 286 285
308 304 309 302 314 312 311 313 316 315 317 312 315 315 314 313 311 311 309 307 308 306 303 302 301 301 301 300 298 295 291 290 290 290 290 290 289 288 288 287 286 285 285 285
309 308 312 310 318 315 313 313 311 311 311 313 312 312 312 311 310 308 306 306 304 301 300 300 300 300 299 298 295 289 290 290 290 289 289 288 288 287 287 285 285 285 285 284
313 311 309 311 310 311 311 311 311 311 312 312 311 310 310 309 308 305 302 303 300 299 299 299 300 298 297 293 292 293 290 289 289 288 288 287 287 287 285 284 284 285 284 283
313 313 312 310 312 312 311 311 311 311 311 311 311 310 307 307 304 301 301 299 297 297 297 299 298 297 296 293 291 290 289 289 288 287 287 287 286 285 284 284 285 283 282 282
312 311 311 311 311 311 311 309 310 311 311 311 308 306 307 303 302 301 300 298 297 297 297 298 297 296 293 291 290 290 289 288 287 286 286 286 285 284 284 284 284 283 282 282
312 312 313 313 311 311 312 310 310 311 310 309 307 304 302 301 300 299 298 298 297 296 297 297 296 292 291 291 290 290 289 288 287 285 284 284 284 284 283 283 283 282 282 282

GFSCGP_925_thetae_006.txt.gz
Theta_e
315 314 314 315 314 315 315 315 317 316 316 317 316 314 314 313 309 309 308 309 309 311 312 312 313 313 313 312 312 312 312 311 310 309 309 309 309 308 308 308 309 313 310 310
314 316 316 315 316 315 314 318 317 315 316 318 317 316 310 310 311 309 310 309 310 310 310 311 312 312 313 313 312 312 312 311 311 310 309 309 308 308 308 307 307 309 310 310
315 316 315 315 315 315 314 318 317 317 316 317 317 317 313 313 313 312 311 310 310 310 310 311 312 313 313 313 313 313 313 313 312 311 310 309 308 307 307 307 307 307 307 309
316 314 314 316 316 315 316 315 317 318 318 320 317 321 316 313 313 314 312 310 310 311 311 311 312 312 313 314 313 313 313 313 312 311 310 309 308 307 308 307 307 307 307 308
316 313 314 316 315 315 316 315 318 319 318 319 317 318 315 313 314 313 312 311 310 310 310 311 311 312 313 313 313 313 313 313 312 312 311 311 309 308 308 308 307 307 306 306
315 314 314 315 316 317 316 319 319 319 318 320 319 317 316 315 314 313 313 313 312 311 311 311 313 313 313 314 313 314 313 313 312 312 312 312 311 311 309 309 307 307 305 306
319 316 315 317 317 316 316 318 319 318 318 320 319 318 316 314 313 313 313 312 312 310 311 310 311 311 313 313 313 311 311 310 310 310 310 310 310 310 310 309 307 306 304 302
323 321 319 317 318 318 318 319 317 324 318 319 317 320 317 314 314 312 311 310 312 312 310 311 311 311 312 312 311 311 311 310 309 309 309 309 308 308 308 309 307 304 301 298
320 322 319 318 317 318 320 319 318 317 307 314 318 319 315 314 317 315 314 314 313 312 310 309 312 311 310 310 310 310 310 309 308 307 306 306 305 305 305 305 302 299 296 295
320 323 320 319 318 318 319 317 319 315 316 325 321 319 319 318 318 317 315 314 312 310 309 309 310 311 311 311 311 310 309 308 305 303 303 303 303 302 301 299 296 295 295 296
318 319 319 317 321 321 316 318 319 321 317 322 324 322 316 319 317 317 316 313 310 309 308 308 310 310 310 310 310 308 308 306 302 303 302 301 300 298 297 295 295 295 295 298
318 314 316 319 316 317 318 319 318 315 322 315 316 321 317 316 316 314 313 312 311 309 308 308 309 310 309 309 308 308 308 304 303 303 301 300 298 296 295 294 294 294 294 295
316 313 314 315 314 316 319 318 317 316 310 316 313 316 315 315 314 313 311 311 310 310 310 308 308 309 309 309 308 308 306 302 304 304 300 297 295 294 294 294 294 294 294 293
314 316 315 315 315 317 319 319 317 316 308 318 319 317 315 314 314 313 312 311 310 311 310 309 307 308 308 308 307 307 302 303 303 303 298 295 294 293 294 294 294 294 293 293
315 315 316 316 317 318 319 319 319 319 316 315 315 315 314 313 313 312 311 311 312 311 310 308 307 306 307 307 307 305 303 302 302 302 296 294 295 295 295 294 294 296 295 293
315 314 315 318 317 318 319 318 316 316 316 314 314 313 314 313 312 313 312 312 312 310 309 308 308 307 307 306 305 303 302 301 301 300 299 298 297 297 296 296 294 295 294 292
314 309 308 317 313 314 318 315 314 313 313 312 313 312 314 314 314 313 312 311 311 309 308 307 307 307 306 304 303 301 301 301 300 300 298 299 298 296 294 294 295 294 290 288
307 306 306 311 312 320 315 312 313 313 313 312 315 314 313 314 313 312 311 311 309 308 308 307 306 305 304 303 301 301 300 299 300 299 298 298 297 295 293 291 289 288 287 286
312 309 313 313 316 314 314 314 314 313 313 313 314 315 313 312 311 310 309 309 309 308 307 306 304 303 302 300 301 300 298 298 294 291 291 291 292 291 289 288 287 287 286 285
309 303 305 311 315 316 310 310 313 314 314 313 314 313 313 312 314 312 309 307 306 306 303 302 301 301 300 299 297 294 291 291 290 291 291 291 289 288 287 287 286 285 284 284
304 308 306 299 310 307 308 310 313 309 311 311 311 312 313 314 312 310 308 306 305 301 300 300 299 299 299 298 295 290 290 290 291 290 289 288 288 287 287 286 285 284 284 284
308 306 310 308 311 314 311 312 312 309 308 310 310 309 311 310 308 306 305 304 300 299 298 298 299 298 298 295 292 290 291 293 289 288 288 287 287 287 285 285 284 284 283 283
314 309 308 308 309 308 309 311 308 310 310 309 310 311 308 307 306 305 301 300 299 298 297 297 298 297 296 292 292 292 290 289 288 287 286 286 286 286 284 284 284 283 282 282
311 310 309 310 311 310 309 310 310 308 308 310 310 308 307 305 305 301 300 298 297 297 296 297 297 296 295 292 290 290 289 289 288 287 286 286 285 284 284 284 283 282 282 282
312 312 312 312 312 310 309 308 308 310 310 307 306 305 305 303 302 300 298 297 296 296 296 297 296 294 294 290 290 290 289 289 288 286 285 285 284 283 283 283 283 282 282 282
311 312 312 313 311 310 310 310 307 307 305 303 302 302 300 301 300 299 297 296 296 296 297 295 295 292 291 290 290 289 289 289 288 287 286 285 284 284 283 282 282 282 282 280

GFSCGP_925_thetae_009.txt.gz
Theta_e
313 313 314 314 313 314 314 315 316 315 314 316 316 313 313 310 309 308 305 307 309 311 309 310 311 312 313 313 313 312 312 311 310 310 309 309 309 309 309 308 308 309 308 311
314 315 314 313 314 314 315 316 315 315 314 316 315 315 309 309 310 308 308 309 309 310 308 309 310 312 312 312 312 311 312 311 311 311 311 310 310 309 308 308 308 307 307 307
314 316 313 315 313 314 314 316 316 316 315 315 315 316 312 311 311 310 310 308 308 309 309 309 310 311 311 311 312 312 312 312 312 311 311 310 309 308 309 309 308 308 307 307
316 312 314 314 315 314 316 314 315 316 318 319 315 318 314 312 313 312 309 308 309 309 309 309 311 311 312 313 312 312 312 311 311 310 310 309 308 307 309 310 310 310 309 307
316 312 313 314 315 315 317 315 316 318 317 317 316 315 315 311 313 312 311 311 310 310 310 311 310 311 311 311 312 312 312 312 312 311 311 311 310 310 310 309 308 308 307 306
316 313 314 315 315 316 315 317 316 316 316 319 318 316 313 313 313 314 313 312 311 310 309 311 310 311 312 312 312 312 311 311 310 310 309 308 308 308 308 308 308 308 308 307
318 318 316 315 317 316 315 316 316 316 316 319 317 315 313 313 313 313 313 312 310 309 308 308 309 310 311 310 310 311 311 310 309 309 308 307 307 307 306 306 306 307 306 304
321 318 319 317 317 318 317 317 315 319 317 318 316 318 315 313 313 310 312 311 312 311 308 308 309 309 309 310 310 310 309 308 308 308 305 304 305 304 304 304 304 304 303 299
319 320 317 318 317 316 319 318 316 314 305 312 317 317 314 313 315 315 313 312 310 309 308 309 309 309 309 310 310 309 308 308 308 303 304 304 304 303 303 303 302 301 299 295
319 322 318 317 317 317 317 316 318 314 314 323 321 319 318 316 317 314 313 311 309 308 308 308 308 310 310 309 309 309 308 307 306 304 305 305 303 301 301 301 300 298 295 296
316 317 316 315 318 319 317 317 317 318 316 323 319 320 315 315 314 314 311 310 309 309 308 307 308 309 309 309 309 308 307 307 304 304 304 303 302 298 296 297 295 295 296 296
316 313 314 317 314 315 317 317 316 319 319 314 311 318 314 314 312 311 311 310 309 309 308 307 309 309 309 308 308 307 307 306 303 304 303 302 301 297 294 294 294 295 295 294
315 312 312 313 312 312 318 317 316 311 308 316 314 315 311 313 312 311 311 310 309 308 308 308 308 308 308 308 307 307 306 303 303 302 301 301 299 295 294 294 294 294 294 293
313 314 313 315 313 314 317 317 316 315 312 315 317 316 315 313 313 311 310 309 309 308 309 308 308 307 307 308 306 306 305 303 302 301 301 300 295 293 293 293 293 294 295 294
313 316 315 314 314 315 317 317 318 318 316 318 316 315 314 312 313 311 310 310 310 310 309 308 308 306 307 307 306 305 303 301 300 300 299 295 293 293 293 295 295 295 294 293
313 311 315 315 315 316 317 316 316 316 316 315 313 313 310 313 312 312 311 311 310 309 309 308 306 306 306 306 305 304 302 300 300 300 298 297 297 296 295 295 293 293 293 292
314 308 308 311 311 310 310 311 314 314 312 312 312 310 312 313 312 311 311 310 309 308 308 306 305 305 306 304 303 301 300 300 299 299 299 298 297 297 296 295 293 290 289 287
306 305 304 305 313 315 312 311 311 311 311 310 310 313 312 312 311 310 309 309 308 307 306 305 305 304 302 302 300 299 299 298 297 293 292 293 293 293 292 290 288 287 286 285
307 307 309 313 313 310 313 311 313 312 311 311 313 313 312 310 308 308 307 307 305 304 304 304 302 300 300 300 297 293 291 291 291 291 291 292 292 290 289 287 286 285 284 284
306 300 304 310 314 316 310 308 310 313 314 311 313 312 310 309 312 311 308 304 303 302 303 300 300 299 299 299 293 295 293 292 292 293 291 289 288 287 287 286 285 284 284 284
303 307 308 307 309 307 306 307 309 313 312 308 310 310 308 310 310 308 304 303 303 302 301 299 297 298 298 296 294 292 290 292 290 289 288 287 287 286 286 285 284 284 284 283
308 307 305 307 310 310 308 311 312 310 307 308 307 306 307 308 306 303 302 303 301 299 298 297 296 298 297 294 293 291 290 289 289 288 287 286 286 286 285 284 284 283 282 282
312 309 308 307 309 307 306 310 307 307 307 307 307 309 308 305 303 301 302 301 299 298 297 296 296 297 296 293 290 290 289 289 288 287 286 285 285 284 284 284 283 283 282 282
311 309 307 309 310 309 309 309 310 308 307 309 306 304 301 300 300 300 301 298 297 296 296 296 296 296 295 294 291 291 289 289 288 287 286 285 284 283 284 283 282 282 282 282
312 311 311 312 312 311 310 309 308 309 306 302 301 301 301 301 300 299 298 297 296 295 296 297 295 294 294 293 291 290 289 288 288 287 286 285 284 284 284 282 282 282 282 281
311 311 312 314 311 311 311 308 305 304 303 302 302 301 301 300 299 299 297 298 296 295 296 297 295 295 292 291 290 290 289 288 288 287 287 286 285 285 284 282 282 282 281 281

GFSCGP_925_thetae_012.txt.gz
Theta_e
312 311 312 313 312 313 313 313 315 313 313 315 315 313 311 306 306 306 306 306 308 309 308 309 310 311 313 313 316 314 313 312 311 310 310 310 310 310 310 310 310 309 308 308
312 313 313 311 312 313 314 315 313 313 313 315 314 314 309 308 308 306 307 308 309 309 308 308 310 312 313 314 313 312 312 310 310 309 309 308 308 309 309 310 310 309 308 308
314 314 312 313 312 315 314 314 314 315 313 314 313 314 312 310 309 308 307 308 309 309 309 309 309 311 311 311 312 311 310 309 308 308 308 309 309 309 310 311 310 310 310 308
314 311 313 314 315 314 317 313 314 315 317 318 313 317 314 310 312 309 309 308 310 309 309 308 309 309 310 310 310 309 309 309 310 309 309 309 308 308 308 308 307 307 308 307
314 313 314 316 315 314 316 315 316 317 317 316 315 313 313 310 312 311 311 309 308 307 306 308 308 308 309 309 310 310 310 310 310 309 308 308 306 305 305 305 306 304 304 305
316 312 313 315 314 315 314 316 313 314 314 318 317 315 313 313 312 312 311 311 310 308 306 308 308 310 310 310 310 310 310 310 309 309 308 305 303 303 303 304 303 304 303 304
317 317 315 314 316 315 315 313 313 315 315 318 316 315 313 313 311 312 313 312 308 306 305 305 306 308 309 310 310 310 309 308 308 307 304 305 305 304 303 303 303 302 302 302
320 315 317 316 316 317 317 315 314 317 315 316 315 317 317 313 311 312 311 309 308 307 306 306 307 308 309 309 309 309 308 308 307 307 305 305 305 304 302 301 302 301 301 299
318 319 316 317 316 316 318 317 314 313 303 311 315 316 314 312 313 312 311 309 308 307 306 307 308 308 309 309 309 308 308 307 307 306 304 305 305 303 302 301 300 299 298 296
318 321 316 316 316 315 316 314 316 313 315 319 318 317 317 315 314 312 310 308 308 308 307 307 308 310 310 309 308 308 307 307 306 306 304 305 304 301 300 300 298 297 297 296
315 315 313 314 316 318 316 315 315 316 314 315 318 318 313 313 312 312 311 309 308 307 307 307 308 309 309 309 308 308 306 306 306 304 303 303 300 300 300 296 295 295 296 296
314 311 313 315 313 314 315 316 314 311 314 312 309 316 311 311 311 310 311 310 308 308 306 306 308 308 309 309 308 308 306 305 305 302 302 300 300 299 296 293 294 295 294 293
314 311 310 309 310 311 316 316 313 309 309 317 318 314 310 310 311 311 311 309 308 307 307 306 308 308 309 309 308 308 306 305 303 301 300 300 298 294 293 293 293 293 294 294
312 312 311 312 311 310 315 316 314 314 316 316 315 315 314 313 310 310 310 308 308 307 308 308 306 307 308 307 307 306 305 303 301 300 300 297 294 292 292 293 295 295 295 295
312 316 313 312 313 313 315 315 315 315 314 318 316 314 314 312 309 311 310 309 311 310 308 307 306 307 305 305 305 304 303 301 300 299 299 296 295 294 295 295 295 295 295 294
311 311 314 313 311 312 313 313 314 314 314 314 315 315 310 308 311 311 310 310 310 308 307 306 305 304 304 305 303 301 300 299 299 299 298 298 298 297 296 294 293 293 292 292
312 306 308 309 309 309 307 309 312 313 312 312 312 310 309 312 310 310 310 308 308 306 306 302 302 303 304 301 300 299 299 298 298 294 293 292 292 292 292 292 291 289 287 286
306 304 304 306 311 311 311 309 310 311 309 309 308 308 310 310 308 307 307 307 305 303 303 302 302 302 300 299 298 297 294 293 292 291 292 293 293 291 289 288 287 286 285 285
306 306 310 315 314 309 312 309 312 312 309 309 310 312 310 308 306 307 305 304 303 302 301 301 301 299 297 297 294 291 292 292 292 293 293 291 288 288 287 287 286 285 284 284
304 299 303 309 313 314 309 307 307 311 312 310 312 310 310 307 310 310 304 303 302 301 302 301 299 297 297 298 295 293 294 293 291 290 289 288 287 286 286 285 284 284 283 283
303 306 307 309 312 310 306 306 308 312 312 308 310 308 307 307 307 302 300 300 299 300 301 299 297 296 298 297 295 293 291 290 289 289 287 286 286 286 285 284 284 283 283 282
307 304 302 305 310 310 306 308 311 310 307 307 306 306 308 305 302 301 299 299 299 300 299 297 296 296 297 296 292 290 288 290 290 287 286 285 285 285 284 283 283 283 282 281
309 308 310 310 308 306 306 309 307 306 306 306 307 306 303 301 300 300 299 298 299 299 297 296 295 296 296 295 293 292 294 292 288 287 286 285 285 284 283 283 282 282 282 282
309 309 309 310 310 309 310 309 308 306 307 304 303 301 301 301 300 299 299 298 298 298 296 295 295 296 295 293 294 292 290 289 288 287 286 286 285 285 284 284 282 282 282 281
310 310 310 310 312 310 309 307 307 304 303 303 302 301 300 299 299 298 297 296 297 297 296 296 296 295 294 294 292 292 290 289 288 287 286 286 286 285 285 284 282 282 282 281
311 312 312 313 311 311 312 307 305 304 302 302 302 300 300 300 298 297 296 297 296 296 296 295 296 294 293 293 291 290 289 288 288 287 287 286 285 285 284 283 282 282 281 280

GFSCGP_925_thetae_015.txt.gz
Theta_e
314 316 315 314 313 313 314 314 316 315 314 317 317 317 314 311 311 310 310 311 313 314 310 310 310 311 313 315 317 317 317 314 313 313 310 309 309 309 309 309 309 309 308 308
316 315 313 312 313 313 314 315 315 315 314 317 317 317 313 312 311 310 312 313 313 313 312 310 310 311 311 313 314 314 310 309 308 307 307 307 307 309 310 310 310 309 309 308
316 313 312 313 315 317 316 316 315 316 315 315 315 317 315 312 312 312 311 312 312 313 313 312 310 310 309 309 308 308 307 307 308 309 309 309 309 309 309 308 307 306 306 305
313 312 314 316 316 315 318 314 316 317 319 321 315 320 317 313 313 313 312 312 312 312 312 311 310 309 308 308 309 310 309 309 309 308 308 306 306 306 305 305 304 303 304 304
313 314 316 318 315 314 319 315 317 317 319 319 319 319 319 314 314 313 313 312 313 311 310 310 309 309 308 309 309 309 309 309 308 307 306 305 305 305 304 304 302 301 301 302
316 313 314 315 314 315 315 317 315 315 318 323 318 318 320 317 314 314 314 314 312 311 310 308 309 309 309 309 309 309 309 308 308 306 306 305 305 305 304 304 303 302 301 301
317 317 316 314 318 317 318 316 321 325 326 326 317 317 318 315 314 314 314 313 312 312 311 311 310 310 309 309 309 308 308 308 307 306 305 305 305 305 304 303 302 301 300 300
321 319 318 317 317 317 318 318 323 321 324 323 316 320 320 314 314 314 313 311 311 311 311 311 310 310 309 309 308 308 307 307 306 305 304 305 305 304 303 301 300 299 298 298
321 319 316 317 316 316 319 322 315 317 308 322 320 318 315 314 315 314 312 312 312 311 311 311 310 310 310 309 308 308 308 305 305 305 305 304 304 303 300 300 299 298 296 297
318 321 316 316 315 316 318 315 321 321 324 323 320 320 319 316 315 314 313 313 312 311 311 312 311 310 310 309 308 308 308 306 305 305 304 303 302 300 299 298 297 295 296 298
314 316 315 314 318 319 319 319 317 318 320 324 322 321 316 316 314 314 313 313 313 313 312 312 310 310 309 309 309 308 307 306 305 304 302 301 299 299 297 294 294 294 296 297
315 315 316 315 314 314 316 316 315 318 317 318 319 318 312 314 313 313 313 312 312 312 312 311 310 309 309 309 308 307 307 306 304 302 301 299 298 296 293 293 294 294 293 293
314 315 315 311 313 313 318 317 313 313 314 319 320 317 312 312 314 312 313 313 313 312 312 311 310 309 308 307 306 306 305 303 302 300 299 298 296 294 292 294 294 295 295 295
314 314 314 315 311 313 315 315 315 317 320 317 318 317 316 315 314 313 312 313 312 311 311 311 309 307 305 304 304 304 302 301 300 299 298 297 296 295 294 295 295 295 295 294
315 319 314 314 314 314 315 315 315 317 317 319 317 316 316 315 313 312 312 312 311 311 311 309 306 304 304 304 303 301 300 299 299 299 298 297 297 296 296 295 293 293 293 293
311 316 314 315 312 312 313 313 314 315 316 316 316 317 314 311 312 313 311 310 311 310 307 304 303 302 302 303 300 299 298 298 298 297 296 293 293 293 293 293 293 293 291 287
314 313 312 314 310 311 313 310 313 314 313 314 315 313 311 312 313 312 311 310 308 304 303 301 301 301 302 300 298 298 296 295 294 294 293 293 293 292 291 289 288 287 286 285
308 309 309 316 310 317 313 310 311 312 312 311 310 310 310 312 311 309 307 306 304 302 300 301 301 302 300 297 297 296 294 294 293 293 293 292 290 288 287 287 286 286 285 285
308 309 312 315 315 313 313 311 312 313 312 310 311 312 312 312 311 310 304 303 302 300 301 300 302 299 297 297 297 292 291 292 292 292 290 288 288 287 287 286 285 285 284 284
305 303 313 312 316 318 314 308 307 311 315 311 312 312 312 310 312 312 302 301 301 300 300 301 300 297 296 297 297 294 293 293 290 290 289 287 286 286 286 285 284 284 284 283
308 308 312 313 313 313 310 308 307 316 316 309 310 311 310 310 307 302 301 301 300 299 299 300 297 296 296 296 296 294 291 290 290 291 288 286 285 285 285 284 284 283 283 283
310 311 310 309 311 314 306 308 313 312 310 309 309 308 309 305 303 301 302 301 299 299 299 299 297 296 296 296 294 292 292 292 291 291 288 286 285 285 284 284 284 283 283 283
313 311 313 312 314 309 306 310 309 307 307 308 308 304 303 302 302 302 301 300 300 299 299 297 296 295 296 295 294 292 293 293 292 290 287 286 286 285 284 284 284 283 283 282
309 307 311 311 313 311 310 311 308 308 306 304 303 303 303 303 302 301 301 300 299 298 297 296 295 295 296 295 294 293 292 291 289 288 287 286 286 285 285 284 284 283 283 282
312 310 311 311 312 312 310 308 308 305 304 303 303 302 302 301 301 301 300 298 297 296 295 295 295 295 295 294 293 292 290 290 288 287 287 286 285 284 284 283 283 282 282 281
311 313 313 315 313 312 311 307 305 304 303 302 302 300 299 299 300 298 297 296 295 294 294 294 294 293 290 289 289 288 288 288 287 287 286 286 285 284 283 282 282 281 280 280

GFSCGP_925_thetae_018.txt.gz
Theta_e
319 320 320 319 319 318 318 318 319 318 318 320 321 321 318 317 318 318 318 318 319 323 319 317 316 316 317 321 323 323 323 319 317 316 314 314 314 313 313 313 313 313 312 312
319 320 317 318 318 318 319 319 319 319 318 320 321 320 317 318 317 318 319 319 320 319 319 317 317 317 317 317 316 315 313 312 311 311 311 312 312 313 313 313 312 311 310 309
319 317 316 318 320 321 321 320 321 321 320 320 321 322 319 317 318 318 318 318 318 318 318 317 316 315 315 315 314 313 313 313 313 312 312 313 313 313 312 310 309 308 307 307
318 317 319 320 320 321 321 319 321 321 322 322 321 324 320 318 318 318 317 318 318 317 316 315 315 315 315 314 314 313 313 312 312 311 311 311 310 310 309 308 307 307 306 305
317 319 320 321 319 320 322 320 321 322 323 323 323 323 322 319 318 318 318 318 318 317 316 316 315 314 314 314 314 313 313 312 312 311 309 309 310 309 308 308 307 306 305 304
319 318 320 320 319 318 320 321 321 322 325 327 323 323 324 321 318 318 319 319 319 318 316 315 314 314 314 314 314 313 312 311 311 310 309 308 308 308 307 306 305 303 303 302
320 320 320 320 320 321 322 323 325 329 329 328 321 323 323 319 318 318 318 318 318 318 317 316 315 315 314 314 313 312 312 311 310 309 308 307 307 306 306 305 303 303 302 302
322 323 322 320 321 322 322 323 327 326 326 325 321 322 323 318 317 317 317 317 317 317 316 316 314 314 314 314 313 312 312 310 309 308 307 306 306 306 305 303 302 302 301 301
322 322 319 319 319 320 322 325 320 324 319 328 322 321 320 318 318 317 316 316 316 316 316 315 314 314 314 313 313 312 312 311 310 308 308 307 306 305 303 302 301 300 300 300
321 323 318 319 319 320 322 320 325 323 332 320 318 320 320 321 320 317 317 316 316 316 316 315 314 314 313 312 313 312 311 310 310 309 307 306 305 303 301 299 298 298 299 300
318 320 319 319 321 322 322 323 321 321 323 323 321 317 321 319 318 317 317 316 316 316 316 315 314 313 312 312 312 310 310 310 308 306 305 304 302 300 298 298 297 298 299 299
319 320 317 316 318 318 319 320 319 318 318 321 322 319 316 317 317 316 316 315 315 315 314 313 313 312 312 311 309 308 307 306 305 304 303 302 300 298 298 297 297 297 297 297
320 320 317 316 318 318 321 319 318 318 318 321 324 320 315 316 316 316 316 315 315 314 313 313 313 312 310 308 306 305 304 304 303 301 301 300 299 298 297 297 297 297 297 296
316 320 317 314 314 315 316 315 315 317 321 319 319 318 317 316 315 316 315 315 314 313 313 313 312 310 308 305 304 304 303 301 300 301 300 300 299 298 297 297 297 296 295 295
320 319 318 317 316 316 317 316 316 317 318 319 319 317 316 315 315 315 315 314 313 313 312 311 309 305 304 304 304 302 300 299 300 300 299 298 297 295 296 295 294 294 293 293
318 320 317 317 316 315 317 316 316 316 317 317 317 317 315 313 314 315 314 313 312 312 309 307 304 302 302 303 302 299 299 299 298 297 297 296 295 295 294 293 292 291 290 289
320 320 319 323 315 316 321 316 316 316 315 316 317 315 314 314 314 314 313 312 311 309 307 305 303 302 303 303 299 299 298 297 297 296 295 295 295 293 291 291 289 289 288 288
316 318 316 322 319 325 316 314 314 315 314 314 314 314 314 314 314 313 311 310 307 305 304 303 302 302 303 300 299 298 297 296 296 296 295 293 292 291 290 289 288 288 288 287
315 318 317 319 319 317 315 314 314 314 315 314 314 314 315 314 313 312 306 303 303 304 302 301 301 302 302 299 298 298 297 296 296 295 294 293 291 290 288 288 288 288 287 287
312 313 321 317 320 320 316 312 311 314 316 314 315 314 313 313 316 313 303 303 303 302 301 300 300 302 301 299 298 298 297 296 295 294 293 292 290 288 288 288 288 287 287 286
314 314 318 317 318 317 314 312 311 317 319 313 312 311 311 312 307 304 303 303 302 301 301 299 300 301 300 299 298 297 295 294 293 292 293 292 290 288 288 288 288 287 287 286
318 321 317 315 315 318 312 312 316 315 313 313 312 309 308 305 305 304 303 302 302 301 301 299 299 298 299 298 298 297 295 294 293 293 293 291 289 288 288 288 288 288 287 286
317 316 316 316 318 314 313 313 313 313 313 310 308 305 305 305 303 303 302 301 300 300 300 299 298 297 297 297 297 297 295 295 294 293 293 291 289 288 288 288 288 287 286 285
315 313 316 315 314 314 315 314 313 311 307 305 305 305 303 302 301 301 300 300 300 299 298 297 296 296 296 296 297 296 295 294 293 292 291 290 289 288 288 288 287 286 285 284
316 315 315 316 315 314 314 312 310 306 305 304 302 301 301 299 299 299 299 298 297 297 296 296 294 294 294 294 293 293 292 291 291 291 290 290 289 289 288 287 285 284 283 281
315 316 317 317 315 313 311 308 306 304 303 301 300 298 297 297 297 296 296 295 295 295 295 294 293 293 293 292 291 291 289 288 289 289 289 289 288 288 287 286 285 284 282 280

GFSCGP_925_thetae_021.txt.gz
Theta_e
321 323 322 320 319 319 318 319 320 320 320 320 321 321 320 321 322 322 322 322 321 323 326 322 321 321 322 325 327 328 328 323 321 320 318 317 317 316 316 316 316 316 315 314
319 322 320 320 320 320 321 321 321 321 320 321 322 322 320 320 321 322 322 323 324 323 321 321 321 321 320 320 320 319 318 317 316 315 315 315 316 315 316 316 314 313 312 311
322 320 319 320 321 321 323 322 323 322 322 322 322 323 320 320 320 320 321 321 321 321 320 320 320 320 319 319 317 317 316 316 316 315 315 315 315 315 314 313 313 312 312 310
320 320 320 321 322 322 323 321 322 322 322 324 323 325 322 321 320 320 320 321 320 320 319 319 319 319 319 318 317 316 316 315 315 314 313 314 314 314 314 313 313 312 311 309
321 321 322 323 322 321 323 322 322 323 324 324 323 323 324 321 321 321 321 321 320 320 320 319 318 318 318 318 318 317 316 315 314 314 313 313 313 313 312 311 310 309 307 306
321 320 322 322 321 321 322 324 323 325 326 327 326 324 326 323 322 321 321 321 321 320 319 318 317 317 318 317 317 316 315 315 314 314 313 312 311 310 309 308 307 306 305 304
322 322 322 321 323 323 324 325 329 331 330 330 324 322 326 322 321 321 321 320 320 320 319 319 318 318 317 317 316 316 315 315 313 312 311 310 309 308 308 307 306 305 304 303
324 327 322 321 322 323 324 325 330 328 328 326 323 321 326 321 320 319 319 319 319 319 318 318 317 317 317 316 316 316 315 314 313 312 311 310 310 308 307 306 305 303 301 301
324 325 321 321 322 322 324 326 322 327 325 328 322 323 323 321 320 319 319 319 319 318 318 318 317 316 316 315 315 315 314 313 312 312 311 310 308 307 306 304 301 300 300 301
322 326 320 320 321 322 323 322 327 325 329 322 319 319 321 323 321 321 319 318 318 318 317 317 316 315 315 314 314 313 312 311 311 309 309 308 306 305 303 301 300 300 300 301
319 321 321 319 322 321 323 324 323 321 322 324 321 319 320 320 319 319 317 318 318 317 317 316 314 314 314 313 313 311 310 309 308 307 306 304 303 302 300 300 299 299 299 299
320 321 320 317 319 320 320 321 321 321 318 321 323 321 318 318 318 317 318 317 317 316 316 315 314 313 313 312 311 309 308 306 305 304 302 302 301 301 300 299 299 298 298 298
321 323 321 319 321 321 320 320 319 318 319 318 328 322 317 318 318 317 317 317 316 315 315 314 313 312 311 310 309 307 306 304 303 301 301 301 301 301 300 299 298 298 297 297
318 320 319 320 318 316 317 316 316 317 321 322 321 319 318 317 317 316 316 316 316 315 313 313 312 311 309 307 305 305 304 302 301 300 300 299 300 298 297 297 297 296 295 294
321 322 319 319 317 316 316 316 316 317 317 320 319 319 318 317 316 316 316 315 315 314 313 313 311 309 306 304 304 304 302 301 299 299 299 298 298 297 296 296 295 294 293 291
319 322 320 319 317 315 316 315 316 316 317 318 317 318 317 316 315 316 315 314 314 313 312 309 306 305 303 303 304 302 301 300 298 298 298 297 297 296 295 294 293 292 290 290
321 322 320 322 318 319 324 318 316 316 316 317 318 317 316 316 316 315 314 313 314 311 308 305 304 304 303 303 303 301 300 299 298 297 297 296 295 294 294 292 291 290 290 289
323 321 320 323 320 327 319 316 316 316 315 315 315 315 315 315 315 314 312 311 310 308 306 306 304 303 302 302 302 300 299 299 298 297 297 296 295 294 293 291 290 290 289 289
319 321 320 322 321 317 317 316 316 315 316 315 316 316 316 315 314 313 309 309 308 307 305 304 302 301 300 301 301 300 299 298 297 296 296 295 294 293 292 290 290 289 289 289
316 319 323 320 323 322 318 315 313 315 318 317 316 316 315 314 316 313 307 307 306 304 303 302 301 300 300 300 300 299 299 298 297 296 295 294 294 293 291 290 290 289 289 289
316 317 322 319 321 318 315 314 314 318 320 316 315 313 312 312 310 308 306 305 304 303 302 301 301 300 299 298 298 298 298 298 297 296 295 294 294 293 291 290 290 289 289 288
318 320 318 318 318 319 314 314 318 317 316 314 313 310 307 307 307 306 304 303 302 301 301 301 300 299 298 297 297 296 297 297 297 296 296 295 294 292 291 290 290 289 288 288
317 317 319 318 319 316 315 315 315 314 315 313 310 307 307 306 304 303 302 301 301 300 299 299 298 297 296 295 295 295 295 295 295 295 295 294 293 291 291 290 289 288 288 287
316 316 319 318 315 315 315 315 314 312 310 308 306 306 304 304 302 301 301 300 298 297 297 296 296 296 295 294 294 293 293 293 293 292 292 293 292 291 290 289 288 287 287 285
318 317 318 319 316 315 315 312 310 309 307 307 304 303 302 300 300 299 298 297 296 296 296 295 295 295 294 294 293 293 292 292 291 291 290 290 291 290 290 288 288 286 286 284
316 317 320 319 316 314 313 309 308 308 306 304 302 301 300 299 298 297 297 296 296 295 295 295 294 294 294 293 293 292 291 290 289 289 289 290 290 289 288 287 286 285 284 283

GFSCGP_925_thetae_024.txt.gz
Theta_e
321 322 322 320 319 318 319 319 319 320 320 319 319 320 321 321 322 322 322 323 324 325 323 323 323 323 325 327 328 327 326 322 321 321 318 316 317 316 316 317 316 316 315 314
319 321 321 320 319 320 320 321 321 321 320 319 321 322 321 321 322 322 323 324 325 323 323 322 322 321 320 320 319 319 318 318 317 317 316 316 316 316 316 315 315 314 313 312
323 321 319 320 321 321 322 321 324 322 321 321 321 322 321 321 321 321 322 323 322 321 321 322 321 321 319 319 318 318 317 317 316 314 315 315 315 315 315 315 314 314 313 311
322 320 320 321 322 322 322 323 323 321 322 322 322 323 322 321 321 321 321 321 321 320 320 320 320 320 319 318 318 317 316 316 315 315 314 314 315 315 314 313 311 311 309 308
322 321 322 323 323 321 323 322 322 322 323 323 323 325 325 322 321 321 322 321 321 321 321 320 319 319 319 319 318 317 316 316 315 315 315 314 313 312 311 310 310 308 308 306
321 321 322 322 321 321 321 324 324 324 325 333 324 324 325 322 322 322 322 322 321 321 320 319 318 319 319 318 317 317 316 316 315 314 313 312 311 310 310 310 308 307 306 304
322 322 323 321 323 324 324 325 335 337 337 336 326 324 327 323 323 323 322 321 321 321 320 320 319 318 317 317 317 317 316 316 315 313 313 312 311 311 309 308 306 304 303 302
324 327 323 322 322 323 324 323 337 332 335 330 324 322 325 322 321 320 320 320 320 320 319 319 318 317 317 317 316 315 315 315 313 312 312 311 309 308 307 305 303 301 301 301
324 325 321 321 321 321 323 327 321 325 327 330 320 326 323 321 321 320 320 319 320 319 319 318 317 316 316 315 314 314 314 313 311 310 309 309 307 306 304 302 301 300 300 300
321 327 320 320 320 323 321 320 327 333 332 325 319 320 326 322 322 321 320 318 318 318 318 318 316 315 315 314 314 312 311 310 310 309 307 305 304 303 303 301 300 300 300 299
320 322 322 319 322 319 321 323 323 321 326 327 326 320 319 320 320 320 318 318 318 318 317 317 315 314 314 313 312 311 309 308 307 305 304 302 302 302 302 301 300 300 299 298
318 321 327 319 318 319 319 320 321 331 324 328 327 321 318 318 319 318 318 318 317 316 316 315 314 313 312 312 311 310 307 306 305 303 302 301 301 302 300 299 298 298 298 298
321 326 328 322 322 321 318 319 319 320 323 322 325 321 319 318 319 318 317 316 317 316 315 314 313 313 311 310 308 307 306 305 303 301 300 300 300 300 297 297 297 297 296 296
320 322 320 324 319 317 317 316 317 317 326 323 322 319 318 318 318 317 316 317 316 315 314 313 312 310 309 308 306 305 305 303 302 300 300 299 299 299 297 297 296 296 295 294
322 323 321 319 316 316 316 316 316 317 317 319 319 317 317 318 317 317 316 315 315 314 314 311 310 308 307 305 304 304 304 302 301 300 299 299 298 297 297 296 296 294 293 291
320 325 323 321 316 315 316 316 316 316 316 316 317 318 317 317 316 316 316 315 314 314 311 309 307 306 305 304 303 304 303 301 300 299 299 298 298 297 296 295 294 293 291 290
323 327 324 325 319 320 326 321 316 316 316 317 319 318 316 317 316 315 314 314 313 311 309 308 307 306 304 303 302 302 302 301 300 299 299 298 298 297 295 294 293 291 290 290
323 322 322 323 320 324 318 315 316 316 316 315 316 316 316 315 314 313 312 311 310 309 308 307 305 304 303 301 301 301 301 301 301 299 299 298 297 296 295 294 292 291 290 290
320 323 321 326 322 318 317 317 317 316 316 316 318 316 315 314 312 311 310 308 307 307 306 304 303 303 302 301 300 299 299 298 298 299 298 296 296 295 295 294 292 290 290 290
318 323 324 320 320 321 320 316 315 315 318 318 317 316 314 312 313 312 308 307 305 304 303 303 302 302 301 300 299 298 297 297 297 297 297 296 296 295 294 293 291 290 290 290
317 319 324 319 317 319 315 316 315 317 320 317 315 313 311 311 309 308 306 305 303 302 301 300 300 300 299 298 297 296 296 295 295 295 296 296 296 295 294 292 291 290 290 289
317 319 317 317 319 319 315 315 318 318 317 315 313 311 309 308 308 306 304 302 301 300 299 298 297 297 297 296 295 295 294 294 294 294 294 294 295 294 293 291 290 290 289 288
321 322 324 320 320 318 317 317 316 315 313 312 311 309 307 307 304 302 302 301 299 298 297 296 296 296 295 295 295 294 294 294 293 293 293 292 293 293 292 291 290 289 288 287
316 316 324 321 317 316 316 315 313 311 310 309 308 307 304 304 302 301 300 299 298 297 297 296 295 295 296 295 295 294 293 292 292 291 291 291 291 291 291 290 289 288 287 286
321 318 319 320 318 317 316 314 311 310 309 308 305 304 302 301 301 299 299 298 297 297 296 295 296 295 295 294 294 293 292 292 291 290 289 289 290 290 290 289 287 286 286 285
316 317 320 321 318 317 316 311 309 309 308 305 302 301 301 299 299 298 298 297 296 295 295 295 295 294 294 294 293 292 291 291 289 288 288 288 287 288 288 287 286 286 285 284

GFSCGP_925_thetae_027.txt.gz
Theta_e
319 318 318 317 317 317 318 318 317 317 317 318 317 316 317 317 316 318 319 321 321 321 320 320 320 321 321 320 320 319 320 317 317 316 316 316 316 315 315 316 316 314 314 312
318 319 318 318 319 319 319 320 321 318 318 317 317 318 317 318 318 319 320 320 319 320 320 320 319 318 318 318 317 317 317 317 315 315 316 315 315 315 316 315 314 313 311 309
319 318 318 319 321 321 321 322 321 320 319 319 319 318 318 318 318 319 317 317 317 319 319 319 319 318 317 317 317 316 316 315 314 314 314 314 314 314 313 312 310 309 308 307
319 319 320 320 321 320 324 322 322 321 320 320 317 319 318 318 318 319 318 315 315 317 318 319 318 318 318 317 317 316 316 316 315 315 315 314 314 312 311 310 309 308 307 305
320 320 321 323 321 320 322 321 321 322 321 321 321 320 318 319 320 319 317 317 316 315 315 316 318 319 318 318 317 316 316 315 315 314 314 313 312 310 310 309 308 306 306 305
319 319 320 320 321 320 320 322 323 322 322 323 325 323 323 319 321 321 320 318 316 315 314 316 318 318 318 317 317 317 316 316 314 313 313 312 311 311 309 307 306 304 303 301
321 322 321 321 322 321 321 322 325 326 325 325 328 327 328 322 321 321 320 318 316 315 313 313 315 317 318 317 317 316 316 315 313 312 311 310 309 307 306 304 302 301 301 299
324 324 320 321 321 321 322 322 321 329 326 325 322 326 323 319 318 319 318 316 316 315 314 314 315 316 316 315 314 314 314 313 311 310 309 308 306 305 304 302 301 300 299 299
326 323 320 319 319 320 320 321 319 322 323 319 320 321 320 318 319 319 318 316 315 314 314 314 314 314 313 313 313 312 311 310 309 307 305 304 303 302 302 302 300 301 300 299
320 323 319 319 319 322 320 319 320 321 323 325 319 325 327 321 320 320 317 316 315 314 313 311 313 313 313 313 312 311 310 308 306 304 303 302 301 302 302 301 299 299 299 298
318 322 320 318 318 318 319 321 320 320 318 320 319 318 319 322 320 320 316 316 314 313 311 311 312 312 311 311 311 309 307 306 304 303 302 301 300 301 301 301 297 296 296 297
317 319 316 319 318 318 318 320 320 316 320 315 315 317 316 316 316 315 314 316 313 312 310 310 312 311 309 309 308 307 305 305 303 302 301 300 300 300 300 299 296 295 297 296
320 320 318 320 320 320 317 318 319 319 313 316 309 312 315 318 317 315 314 313 312 311 309 308 308 308 308 307 306 305 304 303 302 301 300 299 299 299 299 297 297 297 296 295
319 320 317 318 318 315 315 315 315 318 314 316 315 318 315 319 318 314 313 312 311 310 309 307 306 306 306 306 304 303 304 303 303 301 300 299 299 299 298 297 296 296 295 294
319 320 320 319 315 315 315 314 314 315 315 314 314 317 317 315 315 314 312 312 312 311 308 307 305 306 306 304 303 303 303 302 302 301 300 299 299 298 297 296 296 295 294 292
319 318 317 316 317 315 314 314 316 315 315 316 316 316 316 314 313 312 312 312 311 309 308 306 306 306 305 303 302 300 300 302 301 300 300 300 298 297 298 297 295 294 292 290
321 314 312 315 316 315 314 317 316 316 315 315 315 315 314 313 312 311 310 309 308 308 306 305 305 305 303 302 301 300 299 298 297 297 299 297 297 297 297 295 293 293 291 290
315 315 309 308 308 306 318 314 315 315 314 314 315 315 313 311 309 309 307 306 306 305 305 304 304 303 302 301 299 298 297 296 296 297 296 297 296 296 295 295 294 293 290 290
318 310 307 313 313 313 315 316 315 314 316 316 316 314 311 309 309 309 306 305 305 304 304 303 301 300 299 298 297 296 295 295 295 295 296 296 296 295 295 294 292 291 290 290
316 310 308 305 311 308 313 315 313 314 311 315 314 312 310 308 305 306 305 305 305 303 300 298 296 296 296 296 295 295 295 294 294 294 294 293 294 295 294 293 292 290 290 290
307 312 311 305 306 310 313 314 314 313 311 313 311 310 309 307 305 305 305 303 301 299 297 296 296 295 295 295 295 295 294 293 293 293 292 292 292 292 293 292 291 290 290 288
309 309 310 312 314 310 314 315 312 311 313 311 309 309 308 307 306 305 300 300 298 296 296 296 295 295 295 295 295 294 294 293 292 292 292 291 291 291 292 292 291 290 288 287
314 312 311 311 310 311 314 314 313 311 310 309 309 308 307 307 303 300 299 297 297 297 296 296 295 295 295 294 294 294 293 292 292 291 290 290 289 290 291 291 290 287 286 286
313 315 311 313 315 315 314 311 310 309 308 308 308 308 304 302 300 299 296 295 296 295 294 294 294 294 294 294 294 293 292 291 291 290 289 288 288 289 290 288 287 286 285 285
313 315 315 312 315 315 314 311 309 308 308 308 307 302 301 299 298 296 295 294 294 293 294 294 294 294 294 293 293 292 292 291 290 289 288 287 286 287 288 287 286 285 285 284
315 313 311 308 314 313 312 309 308 308 308 304 301 300 299 296 295 295 294 294 294 294 293 293 293 294 293 292 291 291 291 290 290 288 287 286 285 286 286 286 285 285 284 284

GFSCGP_925_thetae_030.txt.gz
Theta_e
318 317 316 315 314 316 317 316 316 316 317 317 314 315 317 314 318 320 320 320 319 319 318 317 317 317 317 319 321 317 317 316 318 316 316 315 315 314 314 313 312 311 309 308
316 317 316 316 318 319 319 319 319 317 317 315 315 315 315 317 318 320 320 319 319 318 317 316 316 316 316 316 316 315 314 314 315 314 314 314 314 313 311 310 309 308 307 306
317 317 317 320 319 320 321 320 320 319 318 316 315 317 319 317 317 318 318 318 319 318 317 316 316 316 316 316 316 315 315 315 315 314 314 314 313 313 311 309 308 307 307 306
317 317 319 320 320 319 323 321 320 319 317 317 316 316 317 317 317 317 317 317 318 318 316 316 316 317 317 316 316 316 315 315 314 314 314 313 312 311 310 309 308 308 307 307
319 320 320 320 320 319 321 319 320 320 319 320 319 316 317 318 319 318 316 316 316 315 315 315 316 317 317 316 316 315 315 315 314 313 313 312 311 310 309 307 307 306 304 302
318 318 319 319 319 319 319 321 322 320 320 321 323 320 317 318 319 319 317 315 315 314 314 315 317 317 317 316 316 316 315 313 313 312 312 311 310 309 308 305 303 302 300 299
320 320 319 319 321 319 318 321 322 324 322 323 325 326 323 320 320 320 318 315 314 312 313 314 316 317 317 316 316 315 314 312 311 310 309 308 307 306 305 303 302 300 299 299
322 323 319 318 319 320 320 321 319 326 323 321 320 325 321 319 319 318 317 315 314 313 312 312 313 314 314 313 314 314 311 310 309 308 307 305 304 302 302 301 300 300 299 299
323 321 319 318 318 318 320 319 317 320 317 316 319 320 318 318 319 319 318 319 317 314 311 310 311 312 313 313 312 311 310 309 307 305 303 302 301 301 301 301 300 300 299 297
319 321 319 319 318 319 317 317 321 316 321 324 319 323 324 321 320 318 317 315 314 311 310 310 311 311 311 311 309 309 308 306 304 303 302 301 301 300 301 301 301 300 296 294
319 318 318 319 317 317 317 319 318 317 315 319 317 316 315 319 320 317 315 314 312 311 310 308 308 308 308 308 307 307 306 305 304 303 302 301 300 300 300 300 299 299 296 295
317 315 314 318 317 317 317 319 317 315 318 313 312 315 315 315 314 314 314 313 310 308 307 306 307 306 306 306 305 306 305 304 303 302 301 301 300 299 299 299 299 298 296 295
317 316 315 318 318 317 316 318 319 314 310 315 309 311 313 315 314 313 312 312 309 308 306 305 306 305 305 305 304 303 303 303 303 302 302 300 299 299 299 299 298 297 296 296
318 317 315 317 317 314 314 314 316 315 312 314 312 314 313 315 314 312 310 309 308 307 306 306 305 305 305 304 303 302 302 302 301 301 300 300 300 298 298 298 297 296 296 293
317 318 318 317 314 314 313 313 313 314 313 314 313 314 315 314 312 311 311 310 309 308 307 306 305 305 305 304 302 300 299 298 297 297 297 298 298 297 297 297 296 296 295 293
316 316 314 313 315 314 313 312 314 314 314 314 314 316 313 311 311 311 310 309 308 307 306 304 304 304 304 302 300 298 297 296 296 296 296 296 296 296 296 297 296 295 294 292
317 311 308 308 312 311 310 315 316 314 313 314 313 314 310 311 311 309 308 307 307 306 305 303 303 302 299 298 297 297 296 295 295 296 296 296 295 296 295 295 295 295 293 292
312 311 304 304 303 302 311 312 313 315 316 314 313 312 310 310 309 307 305 305 305 304 303 302 299 297 296 296 296 295 295 295 295 294 295 295 294 293 293 294 294 294 290 290
313 305 306 302 310 307 312 314 314 313 316 315 314 311 309 308 307 307 305 305 304 304 300 296 296 296 295 295 294 294 294 293 293 294 293 292 293 293 292 292 293 291 290 290
312 305 303 306 302 302 307 313 312 311 312 314 312 310 309 307 303 304 305 304 304 297 296 295 295 295 294 294 294 294 293 293 293 292 292 292 291 291 292 293 291 290 290 289
306 303 308 297 300 306 308 313 312 313 311 312 311 309 307 306 303 303 304 302 297 296 296 295 294 294 295 294 294 294 293 293 292 292 291 291 290 290 291 291 290 290 288 287
309 309 306 303 301 309 309 313 312 309 311 309 308 307 306 305 305 305 300 297 296 295 295 294 294 294 294 294 294 293 293 292 292 291 290 289 289 289 290 290 289 288 287 286
312 308 309 310 310 307 310 311 311 310 308 307 306 306 305 305 302 299 295 294 294 294 293 293 293 293 293 293 293 292 292 292 291 291 289 288 288 289 289 288 287 286 285 285
311 312 310 311 312 312 313 310 308 308 307 308 307 306 305 300 298 295 294 293 293 293 293 293 293 293 293 293 293 292 291 291 291 290 289 287 286 286 287 286 285 285 284 284
308 313 313 309 313 313 312 310 308 307 307 308 307 302 299 296 294 294 292 292 292 293 293 292 292 292 292 293 292 291 290 290 290 289 288 287 285 285 286 286 285 284 284 283
313 313 309 310 310 311 310 308 307 308 308 307 300 297 295 295 293 293 292 292 292 292 292 292 292 291 292 291 290 291 290 289 289 289 288 286 285 285 285 285 284 283 283 283

GFSCGP_925_thetae_033.txt.gz
Theta_e
316 314 315 314 314 315 315 315 316 315 314 313 313 313 313 316 319 319 319 318 317 317 315 316 317 319 323 327 327 324 324 325 322 316 316 314 312 312 312 311 311 311 310 309
315 317 316 316 318 317 317 316 317 317 316 313 316 315 316 317 318 319 319 318 317 315 314 314 316 317 317 317 315 315 315 315 315 314 314 314 313 311 311 310 310 309 308 307
316 316 317 317 317 321 320 319 319 318 315 313 316 316 317 317 317 318 317 317 316 315 315 315 315 315 315 315 315 314 314 314 314 314 314 313 312 311 310 309 307 306 305 304
316 318 319 318 318 319 322 320 319 318 315 316 314 318 318 317 317 318 318 316 316 316 316 316 314 314 315 315 315 315 314 314 314 314 314 313 313 311 309 307 306 305 304 303
318 319 319 319 319 318 320 318 319 319 317 317 318 317 315 317 319 318 317 317 317 316 314 314 315 315 314 314 314 314 314 314 314 313 313 312 311 310 308 307 306 304 302 301
318 317 318 318 318 318 318 320 319 319 318 320 321 317 316 317 318 317 316 316 317 315 315 315 315 315 315 314 314 314 314 313 312 312 312 311 310 309 307 305 304 303 301 300
319 319 317 318 320 318 318 319 320 323 320 322 320 323 319 317 316 317 317 316 315 314 313 312 314 315 315 315 314 314 313 312 311 310 309 309 308 306 305 303 302 301 300 300
321 321 318 317 318 319 320 319 317 327 322 319 319 323 321 318 316 316 315 314 312 312 312 313 314 314 314 313 313 312 311 310 309 308 307 305 303 302 302 302 301 300 300 300
320 320 318 317 317 317 320 317 316 318 315 315 318 320 318 317 317 316 315 314 315 313 310 309 310 311 311 311 310 309 309 308 307 304 302 302 302 302 301 301 300 300 300 299
319 320 318 317 317 316 315 316 320 314 319 323 318 321 320 318 319 318 319 318 312 310 309 307 308 309 310 310 308 308 308 307 304 304 304 303 301 301 301 300 300 300 299 297
318 315 316 318 316 316 316 317 315 316 314 318 316 317 313 318 318 318 315 312 310 309 307 306 306 306 306 306 305 306 306 305 304 303 302 302 302 301 300 300 299 299 298 296
316 313 314 317 315 316 315 318 314 311 316 311 311 314 312 315 315 313 312 310 307 307 306 305 305 305 305 304 304 305 304 304 303 303 302 300 299 299 299 299 299 298 298 296
316 314 314 316 316 315 316 317 315 311 309 314 309 311 311 313 312 311 310 309 307 306 305 304 304 304 304 304 303 302 302 303 301 301 300 300 299 298 298 297 297 297 297 296
315 316 313 315 315 314 313 313 315 313 311 313 311 312 315 313 312 310 309 307 306 306 305 305 304 304 304 304 302 300 299 298 297 297 297 297 297 296 294 294 294 295 296 296
314 316 317 313 312 313 313 312 313 314 312 313 312 312 312 312 311 310 309 308 307 307 306 305 304 303 302 301 299 298 297 296 296 296 296 296 295 294 294 294 295 295 296 295
314 313 313 313 313 313 312 310 310 310 311 313 314 316 312 310 310 310 309 308 307 307 306 304 302 300 298 297 297 296 296 295 295 295 295 295 294 294 294 293 293 295 295 294
313 309 306 305 309 307 306 308 313 313 312 311 315 313 309 311 310 308 307 306 305 305 304 302 299 297 296 296 295 295 295 294 294 295 295 294 294 293 293 292 291 292 293 294
310 307 301 302 302 302 307 309 311 312 315 313 312 311 310 309 308 307 305 304 303 303 302 297 296 295 295 295 294 294 294 294 294 294 293 293 292 292 291 291 292 291 290 290
310 304 305 303 306 305 309 313 314 313 312 312 311 309 308 308 306 306 304 302 302 302 298 295 295 295 294 294 294 294 293 292 293 293 292 292 291 291 290 291 290 290 290 289
308 302 303 305 300 301 305 312 310 311 312 312 310 308 307 306 304 304 303 303 300 296 295 294 294 294 294 294 293 293 293 293 293 292 292 291 290 290 289 291 290 289 289 288
306 301 304 295 299 305 305 311 310 313 308 311 310 308 306 305 304 301 303 301 295 295 294 294 293 293 293 293 293 293 293 292 292 292 291 290 289 289 289 291 289 289 288 287
310 308 308 301 302 310 306 310 311 309 309 310 308 307 305 304 304 304 298 294 294 293 293 293 293 293 293 293 293 293 292 292 291 291 290 289 288 288 289 290 289 287 286 285
309 307 309 309 310 307 307 310 308 308 309 307 307 305 306 305 304 298 294 293 293 292 293 293 292 292 292 292 293 292 292 291 291 290 289 288 287 286 288 287 287 286 285 284
310 308 307 309 310 308 308 310 309 308 308 306 306 307 306 304 298 294 292 291 291 292 292 292 291 291 291 292 292 292 291 290 290 289 289 288 286 285 286 286 285 284 284 283
308 310 310 308 309 313 311 309 307 306 306 307 306 304 301 297 294 293 291 291 291 292 291 291 291 290 291 291 290 289 289 290 289 288 288 288 286 284 285 285 285 284 283 283
309 311 308 310 309 310 309 308 305 306 307 305 300 297 295 294 293 292 291 292 292 291 290 291 290 290 290 289 288 288 288 289 288 287 288 287 286 284 284 284 284 283 283 283

GFSCGP_925_thetae_036.txt.gz
Theta_e
314 313 313 314 313 313 314 313 315 314 313 312 316 316 316 316 317 318 316 316 316 315 314 316 322 326 327 328 329 328 327 322 315 314 313 313 313 313 312 311 310 309 308 308
314 315 314 316 315 316 314 314 316 315 312 314 317 316 316 317 318 317 316 315 314 314 313 315 318 319 319 319 320 320 318 315 315 314 313 313 312 311 310 309 308 307 307 306
315 316 316 317 318 319 318 317 318 317 315 313 315 315 317 317 318 317 316 315 314 314 315 316 315 314 313 313 314 314 314 314 314 314 314 313 312 310 309 308 307 306 305 305
317 317 317 316 317 318 321 318 317 316 313 317 313 317 318 317 319 319 317 315 314 314 315 314 313 313 314 314 314 314 314 314 314 314 313 312 312 311 309 308 306 305 305 303
318 318 318 318 318 317 319 316 317 316 315 315 316 317 316 318 321 319 317 316 314 314 313 312 313 313 313 314 314 314 314 314 313 313 313 312 312 310 308 306 306 305 303 301
317 316 317 317 317 317 316 319 317 317 316 319 320 316 315 318 319 318 316 316 315 314 314 313 313 314 313 313 314 313 313 313 313 312 312 311 310 309 307 306 305 303 300 299
318 318 315 317 319 317 317 318 319 322 319 321 318 319 317 315 316 317 316 315 314 313 313 312 313 313 313 314 313 312 312 312 311 310 310 309 308 307 306 304 303 301 300 299
319 320 317 315 318 319 319 317 319 326 323 320 318 323 320 316 314 315 315 314 313 313 312 313 314 314 314 312 313 312 312 310 309 308 307 306 305 304 303 302 301 300 300 299
319 319 317 316 317 317 319 316 314 317 314 314 317 319 318 316 316 315 314 314 313 312 311 309 310 310 310 310 309 309 310 309 308 307 305 304 302 302 301 301 300 300 299 299
318 320 316 316 316 314 315 314 318 313 317 320 317 319 320 319 317 316 314 313 312 309 307 306 307 308 308 307 307 307 308 307 305 303 302 302 302 301 300 300 300 299 299 298
316 314 315 317 314 316 316 316 314 314 312 316 314 316 313 318 317 316 314 314 309 308 305 304 305 305 305 305 305 306 306 305 304 303 302 301 300 299 299 299 299 298 298 297
315 312 314 316 314 315 314 316 311 308 312 310 310 312 311 312 314 314 312 310 307 305 304 303 304 304 304 304 304 305 304 304 302 301 301 300 299 298 298 296 295 294 293 293
313 313 314 315 312 313 316 316 312 309 308 313 309 309 311 311 311 311 309 307 306 304 304 303 303 303 304 303 302 301 300 301 299 298 297 296 297 296 294 293 293 293 294 294
313 313 313 315 312 313 312 315 313 312 310 312 310 311 314 313 312 309 307 306 305 305 304 303 303 303 303 302 300 298 297 297 296 295 295 296 295 294 293 293 293 292 292 294
312 315 315 312 312 312 311 311 313 313 311 312 310 310 309 312 310 308 307 306 306 305 305 304 302 302 301 298 297 297 296 295 295 295 295 295 294 293 293 292 292 291 290 292
312 313 311 314 312 311 312 309 309 310 310 310 311 311 310 309 308 308 307 306 306 305 304 303 301 299 297 296 296 295 295 294 294 294 295 295 294 293 292 292 291 291 291 291
311 308 308 309 307 305 305 307 308 310 310 309 312 310 309 310 310 308 306 306 305 304 303 302 297 296 296 295 295 294 294 294 294 293 294 293 293 292 291 291 290 291 290 290
308 306 299 301 301 301 306 308 308 310 311 309 311 310 310 310 308 306 305 304 302 301 301 298 296 295 295 294 294 294 293 293 293 293 293 292 292 291 290 290 290 290 290 289
307 303 302 302 304 304 307 310 312 312 311 311 310 309 308 306 306 307 304 301 300 300 300 295 295 294 294 294 293 293 293 293 292 293 292 291 291 290 289 289 290 289 289 288
306 301 304 300 300 300 305 309 310 310 312 310 309 308 307 306 306 308 302 301 301 300 295 294 294 293 293 293 293 293 292 292 292 292 291 291 290 289 288 289 289 288 288 288
307 303 302 293 298 303 303 309 309 313 309 309 308 306 305 307 306 303 301 302 297 294 294 293 293 293 293 293 292 292 292 292 292 291 291 290 289 288 288 288 288 288 288 287
311 310 311 301 299 309 305 310 311 309 307 308 307 305 306 303 301 302 297 293 293 292 293 292 292 292 292 292 292 292 292 292 291 290 290 290 289 288 286 288 288 287 286 285
310 307 307 307 309 306 304 308 308 306 307 307 307 305 304 304 304 298 294 294 292 292 292 292 292 291 291 291 291 291 291 291 290 290 289 289 288 287 286 286 286 286 285 284
308 305 305 308 308 307 306 306 309 307 307 306 306 305 305 305 300 296 293 291 291 291 291 291 291 290 290 290 291 290 289 288 289 289 289 288 287 287 285 285 285 285 284 283
307 307 307 306 307 308 309 308 307 307 306 306 305 304 303 298 296 294 292 291 291 291 291 290 290 289 289 290 289 288 288 288 289 288 287 287 287 286 284 284 284 284 283 283
306 308 307 308 307 308 307 308 306 306 306 305 300 298 295 295 294 292 291 291 291 290 290 290 289 289 289 288 287 287 287 287 287 288 287 287 287 286 284 284 283 283 283 282

GFSCGP_925_thetae_039.txt.gz
Theta_e
316 318 317 315 313 312 314 315 316 314 312 320 320 321 320 320 322 323 322 322 321 320 318 321 322 325 326 326 326 326 326 326 324 320 314 313 312 310 310 310 309 308 307 307
317 317 314 316 315 315 315 317 317 315 314 319 320 322 321 320 321 321 322 321 322 322 322 321 321 323 326 326 326 327 326 323 320 316 313 312 311 309 309 308 307 306 306 306
318 316 315 318 318 320 319 319 318 318 317 316 319 321 322 321 320 319 319 319 321 323 322 319 317 318 321 322 323 322 318 318 316 314 313 311 310 308 308 306 306 306 306 304
319 317 316 317 319 318 322 318 317 316 317 321 315 320 320 322 323 321 320 320 320 319 318 316 314 313 313 313 314 314 315 314 313 312 312 311 311 312 309 307 306 306 304 301
319 318 318 319 318 316 320 317 318 316 318 319 319 320 319 322 326 324 321 320 318 318 318 316 314 313 312 312 312 312 312 312 312 312 312 312 311 310 308 307 306 304 301 300
317 315 317 317 316 316 318 320 320 319 321 325 320 319 319 324 325 325 321 319 318 317 316 314 313 313 312 312 313 313 313 313 313 312 312 311 310 309 308 307 304 302 300 300
319 318 316 316 320 318 320 322 325 326 328 326 319 322 324 317 318 325 322 320 318 317 317 316 314 313 313 313 313 313 313 312 311 311 310 309 307 306 305 303 302 301 300 300
321 320 317 316 318 321 320 322 329 326 329 326 319 325 323 318 316 320 320 319 318 317 317 316 315 314 314 313 313 311 311 310 310 309 307 305 304 303 302 302 301 300 300 299
322 320 316 315 317 318 320 319 316 321 315 321 319 320 319 317 317 319 319 318 318 318 316 316 315 314 312 311 311 310 310 309 308 306 305 304 303 302 301 301 300 300 299 298
319 322 315 315 315 316 318 316 322 319 321 320 318 320 322 321 319 319 320 319 318 316 314 312 311 310 309 308 307 307 308 307 306 304 303 302 300 299 299 299 299 298 296 293
315 319 318 316 316 319 319 319 316 317 317 318 319 317 317 320 320 320 320 319 316 313 312 309 307 306 305 304 305 305 306 304 303 302 301 300 299 298 298 297 294 293 293 293
314 316 320 318 314 314 315 317 316 317 314 315 317 318 312 316 317 318 317 316 313 311 308 306 305 305 304 303 304 304 303 302 302 300 298 297 296 296 295 293 293 293 293 292
315 317 320 318 316 315 317 316 312 311 313 317 324 316 312 314 314 316 317 313 310 308 307 306 305 304 304 302 301 302 301 299 297 296 295 295 295 295 293 293 293 292 293 292
314 314 318 322 316 315 315 317 313 315 318 315 317 314 311 316 315 313 312 311 309 308 307 306 305 304 303 301 300 298 297 296 295 294 294 295 295 294 293 293 292 292 292 292
314 317 315 312 312 312 311 312 315 315 314 318 314 313 313 313 316 313 311 309 308 308 307 306 305 303 301 299 298 296 296 295 294 294 294 295 295 294 293 292 292 291 291 291
312 317 312 315 312 311 313 311 311 313 312 313 312 313 311 311 311 311 310 309 309 308 307 305 303 300 298 297 296 295 294 294 294 293 294 295 294 293 292 292 291 291 291 290
313 314 314 315 308 307 312 311 312 311 311 313 315 314 312 312 312 312 310 309 309 307 305 304 301 298 297 296 294 294 294 294 293 293 294 293 292 292 291 291 290 290 290 290
310 307 304 310 304 309 310 309 309 310 310 310 311 312 312 312 310 310 310 310 308 305 304 302 298 296 295 294 294 294 293 293 292 292 293 292 292 291 290 290 289 290 289 289
307 307 307 314 309 307 308 307 311 313 313 311 311 311 310 309 310 311 308 307 307 304 303 299 296 295 294 294 293 293 293 292 292 292 292 291 291 290 289 289 289 289 288 288
306 305 314 307 310 310 308 307 310 311 317 310 312 311 310 310 316 315 308 305 302 302 297 294 294 293 293 293 293 292 291 291 292 291 291 291 290 289 289 288 288 288 288 287
312 310 314 302 313 310 306 307 309 314 314 309 311 310 309 312 313 307 305 303 301 296 293 293 293 293 292 292 292 291 291 292 291 291 290 290 289 289 288 287 288 289 288 286
314 314 313 304 310 315 306 311 315 314 308 309 309 309 310 306 304 304 303 297 294 293 292 292 292 292 292 291 291 291 291 291 291 290 289 289 289 288 288 287 287 287 286 285
314 313 314 311 315 309 306 310 309 308 309 310 309 308 308 306 305 301 297 295 294 292 292 292 292 291 291 290 290 291 291 290 289 288 289 289 288 288 287 286 286 286 286 285
309 306 311 310 310 308 308 308 307 309 309 309 308 308 306 307 303 297 294 292 291 292 292 291 291 290 290 289 290 289 289 288 288 288 289 288 287 287 287 285 285 285 285 284
309 308 309 309 309 308 308 309 310 308 308 308 307 306 306 301 297 295 293 293 292 292 291 290 290 290 289 289 289 288 287 287 287 288 288 288 287 287 287 285 285 284 284 284
308 310 312 313 308 309 309 308 308 309 309 307 303 299 297 295 294 294 294 293 292 291 290 290 290 289 289 289 288 287 287 287 287 287 288 288 288 287 286 285 285 284 283 283

GFSCGP_925_thetae_042.txt.gz
Theta_e
320 321 319 318 317 318 319 319 317 318 318 320 320 322 322 328 329 329 329 329 328 327 326 328 329 329 329 328 328 328 325 324 326 323 319 315 312 312 311 311 310 309 309 309
321 320 320 319 319 319 318 319 321 319 318 322 324 325 323 325 329 330 329 329 329 329 330 329 330 330 330 329 329 328 328 328 325 322 318 317 315 314 312 310 309 309 308 307
321 320 320 321 320 321 321 322 322 321 320 322 323 325 325 324 325 326 327 328 329 331 332 331 330 331 330 330 330 328 326 323 320 318 316 315 314 312 311 310 309 308 307 305
322 319 320 322 322 322 322 321 321 321 322 322 322 321 326 326 325 326 327 328 330 330 327 326 323 325 326 326 324 320 319 319 318 317 315 315 315 315 314 312 310 309 305 304
322 321 321 321 321 320 323 320 321 321 322 323 322 322 325 326 327 325 327 329 329 327 324 320 318 318 318 318 318 318 317 316 316 316 316 316 315 314 312 310 310 307 305 304
321 320 321 321 320 321 322 323 324 324 324 324 322 323 319 324 325 327 327 329 327 325 321 318 317 317 317 317 317 317 316 316 315 316 315 315 314 312 310 309 307 305 304 303
322 322 320 321 323 322 323 323 321 323 325 323 324 324 320 322 323 326 328 328 325 322 320 319 318 317 317 317 317 317 316 316 315 315 313 312 310 308 306 305 304 303 302 302
322 323 320 320 322 322 323 322 321 318 322 323 323 324 326 323 322 323 326 326 324 321 320 320 319 318 317 317 317 316 316 315 313 312 310 308 306 305 304 304 304 303 303 302
323 322 320 319 321 322 323 323 322 326 322 326 321 323 323 322 322 322 327 326 323 321 321 321 319 318 318 318 317 316 315 313 310 309 308 307 306 305 304 304 303 303 302 300
323 323 320 319 320 320 323 321 323 323 323 318 317 319 318 323 323 323 326 324 322 322 321 321 319 319 317 316 314 314 312 310 307 306 305 304 303 303 302 302 302 299 297 296
322 322 322 320 321 321 322 323 321 321 323 318 317 316 322 321 323 323 325 324 322 322 321 320 318 316 314 312 311 310 308 307 305 304 303 303 302 301 300 298 297 296 295 295
320 324 326 323 318 318 320 322 321 319 318 322 323 317 317 321 323 323 323 323 322 322 320 318 315 313 311 310 309 308 306 305 304 302 302 300 299 298 297 296 296 296 295 294
320 323 325 323 320 320 320 321 320 318 319 320 327 316 317 319 320 321 322 322 321 319 317 315 312 311 309 308 306 305 304 303 301 300 299 298 298 297 296 296 296 295 294 294
317 322 323 324 321 321 321 320 319 318 320 317 318 314 316 317 319 320 321 321 320 317 315 313 312 310 308 306 305 303 302 300 299 298 297 297 297 297 296 296 295 294 294 293
321 323 320 318 316 316 318 318 319 319 318 319 315 314 313 314 316 317 319 320 318 316 314 313 312 309 307 305 303 302 300 299 297 297 296 296 297 297 296 295 294 294 293 293
319 323 319 320 317 316 317 317 316 319 318 318 317 317 316 316 315 317 318 318 317 315 314 312 310 308 306 303 302 300 298 297 297 296 295 296 297 296 295 294 294 293 293 293
322 322 320 319 314 314 321 318 317 316 317 318 318 317 316 315 316 317 317 317 316 315 313 311 308 305 303 301 299 298 297 296 296 295 295 296 295 294 294 293 292 292 292 292
319 319 317 320 312 326 313 312 313 316 316 316 315 315 315 315 316 316 316 316 315 313 312 309 305 301 299 298 297 296 296 295 294 294 294 294 294 293 293 292 292 292 292 290
314 316 317 327 315 314 312 310 310 313 313 315 315 314 315 315 315 317 314 314 314 313 310 307 302 299 298 296 296 296 295 294 293 293 293 293 293 292 292 292 291 291 290 290
313 314 321 317 332 333 314 313 314 314 316 314 315 316 316 315 319 313 314 313 313 309 307 303 298 296 296 295 295 295 294 293 293 293 293 292 292 292 291 291 290 290 289 289
321 320 326 321 327 318 312 310 314 316 314 314 315 316 316 317 316 314 314 312 309 306 302 298 296 297 296 295 294 293 293 293 293 292 292 292 291 291 291 290 289 289 289 289
321 324 325 318 327 325 311 314 319 317 316 313 315 315 316 315 312 311 312 308 303 300 296 297 296 296 295 294 293 292 292 292 292 292 291 291 291 291 290 290 289 288 288 288
320 319 320 318 318 314 312 316 315 314 315 315 314 314 313 314 311 309 307 304 300 297 295 295 295 294 293 292 292 292 292 292 291 290 291 291 291 290 289 289 288 288 288 287
315 312 317 315 314 313 313 313 313 313 313 313 312 313 313 313 311 307 302 299 296 296 295 295 294 293 293 291 292 292 291 290 290 290 290 291 290 289 289 288 287 287 287 287
315 313 315 315 314 313 312 312 313 314 314 313 312 312 312 311 307 301 298 298 297 297 295 293 293 292 292 291 291 291 290 290 289 290 290 290 290 289 289 288 288 287 286 286
312 315 317 318 313 314 314 313 312 313 313 312 309 306 305 304 300 298 297 297 296 296 294 292 292 291 291 291 291 290 290 289 289 290 289 289 289 289 288 288 288 287 286 285

GFSCGP_925_thetae_045.txt.gz
Theta_e
322 322 320 320 319 319 319 317 318 318 317 318 318 320 323 326 326 328 329 329 328 329 327 329 329 329 328 331 332 330 328 325 327 327 323 322 319 316 314 314 313 313 312 312
322 322 321 319 318 318 318 320 318 319 318 320 319 321 322 326 327 327 328 330 330 330 330 330 332 331 332 332 331 330 328 328 329 326 323 320 317 316 315 314 313 313 312 310
324 322 321 320 319 319 320 320 323 321 320 319 322 323 326 325 327 328 328 329 329 330 332 333 333 333 331 330 330 330 330 327 324 320 318 318 317 316 314 314 313 312 310 308
323 323 321 319 320 320 322 322 321 321 323 322 323 322 325 327 327 328 329 330 330 331 333 333 333 333 332 331 330 329 324 321 319 318 317 317 316 316 316 315 314 312 309 308
322 321 320 320 322 321 324 322 322 321 321 322 323 321 325 327 327 328 329 330 331 332 332 331 330 329 328 327 324 321 320 319 319 318 317 318 317 316 315 313 313 311 309 307
323 323 323 323 322 321 323 323 323 323 322 325 322 323 321 326 326 327 328 330 331 330 328 325 324 323 322 322 321 320 320 319 318 318 318 318 317 314 313 312 311 309 307 305
322 322 323 322 323 323 323 323 328 326 324 324 324 323 320 323 324 325 328 329 330 328 325 322 321 319 320 320 320 320 319 318 318 318 318 316 314 312 310 309 307 305 304 304
322 324 322 322 324 324 323 322 323 321 322 322 324 319 325 325 325 324 327 329 329 327 324 322 321 319 320 320 320 319 319 318 318 317 315 313 310 308 307 306 305 305 304 303
324 322 322 321 322 322 324 322 324 324 329 324 319 322 326 324 325 324 328 329 329 326 323 322 321 320 320 320 320 320 319 317 316 313 311 309 308 306 305 305 305 304 304 302
322 323 322 321 322 322 323 323 323 322 323 320 318 318 322 323 323 323 327 329 328 325 323 323 321 321 321 320 320 320 318 316 313 311 309 307 306 305 305 304 304 302 299 298
321 321 324 322 321 320 324 323 321 322 323 323 318 320 319 320 322 323 325 328 327 325 324 323 322 321 321 320 319 318 316 313 310 308 306 305 304 304 303 302 300 298 297 297
322 322 323 323 322 321 322 322 322 323 321 321 326 319 319 320 321 322 323 326 326 324 324 323 322 321 320 318 317 315 312 310 308 306 303 303 304 302 301 299 298 297 297 296
324 321 322 324 323 322 322 321 320 321 321 321 330 321 319 319 319 320 321 323 324 324 324 323 322 320 318 316 314 313 310 308 305 303 303 302 301 300 299 298 298 297 296 296
319 320 321 324 322 323 324 322 322 321 324 320 319 318 317 318 318 318 319 320 322 323 323 322 320 318 316 314 313 310 307 305 303 303 301 300 300 299 298 298 297 296 296 295
323 324 322 321 321 321 321 320 320 322 321 323 319 316 315 315 316 317 317 318 320 322 322 320 319 317 314 312 310 307 306 304 303 301 300 299 298 298 298 297 296 296 295 295
323 325 323 323 321 321 321 320 319 319 319 318 317 317 317 317 317 316 316 318 319 321 320 319 317 315 313 310 307 306 304 302 300 299 298 297 297 297 297 296 295 295 294 294
326 325 324 323 318 318 322 320 319 318 318 319 320 319 318 318 316 316 316 318 318 319 319 318 316 314 312 309 306 304 302 300 299 298 297 296 296 296 295 295 294 294 294 294
326 325 324 323 317 328 316 314 315 316 317 317 317 317 316 316 317 317 317 318 318 318 318 317 315 312 308 306 303 302 300 299 298 296 295 295 295 295 294 294 294 294 293 293
320 322 322 329 318 317 316 313 314 314 315 315 316 315 315 316 317 317 317 316 317 317 316 315 312 308 305 302 300 300 299 298 296 295 294 294 294 294 294 294 293 293 293 292
316 318 322 320 329 330 318 315 315 315 316 314 314 315 315 316 318 318 317 315 316 315 314 312 308 304 302 300 299 299 298 297 295 294 294 294 293 293 293 293 293 292 292 290
325 324 328 325 329 323 317 314 315 317 318 315 315 315 316 315 319 317 315 315 315 314 312 308 303 301 300 299 298 297 295 294 294 294 293 293 293 293 293 293 292 292 291 290
324 328 326 327 325 327 314 315 317 320 315 316 316 316 317 317 317 314 315 315 313 310 305 302 300 299 299 297 295 295 294 293 294 293 293 292 292 293 293 292 292 291 290 289
323 322 324 321 321 317 314 314 316 315 315 316 316 316 316 316 316 314 314 311 307 303 301 299 298 297 296 295 293 293 293 293 292 292 292 292 292 293 292 291 291 290 289 289
319 317 319 317 315 315 315 315 315 315 316 316 315 315 315 316 315 313 310 305 302 299 299 298 297 296 295 293 293 293 293 292 291 291 292 292 292 291 291 291 291 289 289 288
318 317 317 317 315 315 315 316 316 316 315 315 315 313 314 314 313 309 304 301 300 298 296 295 294 295 295 293 293 292 292 291 291 291 291 291 291 291 291 291 290 289 288 288
316 317 319 319 317 317 317 314 313 314 313 312 311 308 307 307 304 302 300 297 296 295 294 295 295 294 293 292 292 292 291 291 291 291 291 291 291 291 291 290 289 289 288 288

GFSCGP_925_thetae_048.txt.gz
Theta_e
322 323 321 321 320 319 320 320 320 320 320 319 319 321 320 323 326 328 327 325 325 323 326 327 326 326 329 334 333 331 329 327 323 327 325 321 319 318 315 314 314 314 314 313
322 325 322 320 320 320 319 321 321 318 318 318 319 319 321 322 324 328 329 328 327 327 328 329 329 329 329 334 333 330 329 327 327 328 324 323 319 316 315 315 314 314 313 311
322 324 324 323 322 319 320 323 324 323 320 318 320 319 322 323 323 324 327 329 329 329 330 331 331 331 334 334 331 330 329 327 329 326 323 320 318 316 315 315 314 313 311 309
323 322 323 324 320 320 324 324 322 323 324 320 323 325 326 323 325 325 326 328 329 330 331 332 333 333 332 331 330 330 329 329 327 320 319 318 317 316 316 315 315 313 310 309
326 323 324 323 321 322 324 324 324 321 321 322 323 325 326 325 325 326 329 329 329 330 331 333 333 332 331 330 329 331 330 324 320 319 318 317 318 316 316 314 314 313 311 310
322 323 324 324 322 321 324 324 323 323 325 327 326 326 326 325 326 327 327 329 330 331 333 331 333 332 332 332 331 324 322 320 319 319 318 318 318 316 314 313 313 311 310 307
323 320 322 322 321 322 321 322 328 333 334 330 321 323 323 325 326 327 328 330 331 332 331 329 330 328 327 325 322 321 321 320 319 319 319 318 317 315 312 310 309 306 305 305
325 325 322 321 321 326 324 323 332 331 335 330 326 323 326 325 324 326 328 329 331 330 328 326 325 323 323 323 322 321 320 319 319 319 318 316 314 312 310 307 306 306 305 305
322 325 323 323 321 324 324 324 324 323 332 336 320 317 326 324 324 325 327 329 330 329 326 324 322 321 321 322 322 321 320 319 319 318 315 313 310 308 306 306 305 305 304 303
324 328 325 324 321 321 321 321 325 323 325 324 319 320 328 323 323 323 327 329 330 329 326 323 322 321 321 321 321 321 320 318 317 315 313 310 308 306 305 305 305 304 301 299
322 324 325 322 322 318 324 323 320 319 326 330 331 322 320 321 322 322 324 329 330 329 326 324 322 322 321 321 321 321 320 317 315 313 310 307 305 304 305 304 302 300 298 298
321 322 327 323 322 321 321 322 322 335 325 327 332 326 320 321 322 322 323 327 328 328 326 324 323 322 322 322 321 321 320 315 313 309 307 304 305 304 303 302 300 298 298 297
323 324 326 323 322 323 322 320 320 322 326 326 336 325 320 319 319 319 320 323 326 327 325 324 323 323 322 321 320 318 316 314 309 306 305 304 304 303 301 300 298 298 297 297
323 323 322 325 321 322 324 323 320 322 333 326 325 319 318 320 320 319 320 320 322 324 324 324 323 323 321 320 318 316 313 309 306 305 304 303 302 301 299 298 298 298 297 296
323 321 319 319 320 320 322 322 321 320 322 325 324 320 319 318 319 318 319 319 319 319 322 323 323 322 320 318 316 313 309 307 305 304 303 300 299 299 299 298 298 297 296 296
324 325 324 325 323 321 321 320 319 319 319 319 320 320 319 319 319 318 317 316 317 318 321 322 322 320 318 316 313 309 307 306 305 302 300 299 298 298 298 297 296 295 295 295
326 329 330 329 321 319 321 321 319 318 319 319 320 321 319 318 317 317 317 317 317 317 318 321 320 319 317 313 311 307 306 304 300 300 299 298 297 297 296 295 295 295 294 294
328 330 332 331 318 325 318 316 315 315 315 315 315 316 316 318 318 317 317 317 318 318 318 318 318 317 314 310 308 306 304 300 300 299 297 295 295 295 295 295 295 294 294 294
324 328 329 331 324 319 317 315 315 316 316 316 315 315 315 316 316 319 317 316 315 317 317 317 316 313 309 307 304 301 301 300 298 296 295 295 295 294 294 294 294 294 294 293
318 325 329 325 331 327 321 316 315 315 318 315 314 315 316 315 321 320 317 315 315 315 316 315 310 308 305 301 301 300 298 297 296 295 295 294 294 294 294 294 294 293 293 292
326 327 327 327 329 327 318 316 315 319 324 317 316 316 318 318 320 317 316 316 315 315 313 308 306 304 301 300 299 298 297 296 295 295 294 294 293 293 293 293 293 293 292 292
326 331 325 331 326 326 315 314 319 321 318 317 317 317 319 318 318 317 315 315 314 308 305 303 301 300 299 297 295 294 295 295 294 294 293 293 293 292 293 293 293 292 292 290
326 325 330 326 327 320 316 317 317 317 317 317 317 316 316 316 316 315 314 311 307 303 300 299 298 297 296 295 294 294 294 293 293 293 292 292 292 292 293 292 292 291 291 289
321 319 325 321 317 316 316 317 317 316 316 316 316 316 315 316 316 314 311 304 301 300 298 297 296 296 295 294 295 295 294 293 292 292 292 292 292 292 292 291 292 291 291 290
321 319 318 319 316 317 318 317 316 316 315 315 313 311 312 314 312 307 303 300 298 296 295 295 295 295 295 295 294 293 293 292 292 292 292 292 292 292 292 292 291 291 290 290
319 319 325 325 319 319 316 312 312 312 310 309 307 304 303 303 302 299 298 297 295 295 295 296 296 296 294 293 293 292 292 292 292 292 292 292 292 291 291 291 291 290 289 289

GFSCGP_925_thetae_051.txt.gz
Theta_e
320 321 320 320 319 318 318 319 317 317 318 318 323 321 321 321 323 321 318 317 317 318 319 323 329 329 329 330 331 330 327 326 322 320 322 322 320 316 314 312 312 313 313 313
320 324 322 322 322 320 319 319 321 321 318 316 316 317 318 320 323 323 321 318 318 320 323 324 326 331 331 330 331 329 328 327 325 322 324 322 318 315 314 314 314 313 313 311
321 322 322 323 323 324 324 323 321 322 322 318 319 317 318 319 320 324 323 321 321 324 326 326 328 332 332 331 330 329 329 328 326 326 325 321 317 315 314 314 314 313 312 309
322 322 321 322 323 323 324 322 323 321 320 320 320 321 323 321 320 321 324 323 323 323 327 327 329 331 331 331 330 329 329 328 326 328 323 320 317 316 315 314 314 313 310 309
321 322 323 324 323 323 323 322 322 323 323 322 322 322 322 321 323 322 320 322 324 325 327 328 330 332 332 331 330 329 328 327 327 328 322 319 316 316 315 315 314 312 310 309
320 320 322 323 324 321 321 321 324 324 325 324 323 324 323 321 322 324 324 324 323 324 328 330 331 330 330 330 329 329 328 328 327 320 319 317 317 316 314 315 313 313 311 309
321 320 321 322 322 322 321 322 326 326 325 327 324 326 324 323 322 323 322 323 325 327 329 331 331 330 330 329 329 328 330 326 319 318 318 317 316 315 314 313 311 309 305 305
322 322 322 322 322 324 323 324 324 328 330 327 325 328 326 322 322 323 323 322 326 326 325 328 329 330 330 330 329 326 321 319 319 318 319 317 315 312 310 308 307 306 305 304
323 326 324 323 322 321 324 326 324 324 325 321 321 321 324 322 323 324 323 326 326 325 322 322 321 324 324 323 321 321 320 319 319 319 318 315 313 310 307 306 306 305 304 303
324 326 324 324 323 321 322 321 323 321 320 321 320 321 325 323 323 323 325 327 326 323 321 319 318 321 322 322 321 320 320 319 319 319 317 313 309 307 305 305 305 304 303 301
322 320 324 324 325 323 321 321 320 319 323 322 322 319 319 320 320 320 322 326 326 323 320 318 317 319 321 321 321 321 320 319 318 314 311 309 307 305 305 305 303 300 299 298
322 322 326 325 322 321 320 321 322 318 321 321 317 319 317 317 318 318 318 325 325 324 321 318 317 319 319 320 321 321 320 318 314 311 308 306 305 305 305 304 300 300 298 297
323 321 319 321 320 321 321 320 319 320 320 321 317 318 316 317 317 317 318 321 324 323 320 318 317 319 321 320 321 321 317 313 310 308 307 305 305 303 304 302 299 298 297 297
322 323 321 320 318 319 321 321 320 319 318 320 318 320 317 316 316 315 316 317 320 323 322 319 318 320 321 320 320 317 312 309 307 307 305 304 304 303 299 298 298 298 297 296
320 320 320 318 319 320 320 321 320 320 320 319 319 320 318 316 314 314 315 316 316 318 319 319 318 319 319 318 316 310 307 306 306 304 303 301 299 298 298 298 298 297 297 296
321 322 321 323 322 319 318 318 319 317 318 317 317 318 316 314 313 312 312 312 313 313 317 318 319 318 317 315 309 307 306 305 305 300 299 298 298 298 298 297 296 295 295 295
323 322 319 324 315 316 314 317 317 317 317 317 317 315 314 314 314 313 313 313 314 314 315 317 316 316 315 310 307 306 305 303 300 299 299 297 297 297 296 296 295 295 295 294
324 323 316 317 313 313 317 315 313 314 314 313 313 314 314 313 313 312 311 311 312 314 314 314 312 309 308 307 307 304 300 300 299 298 295 295 295 295 295 294 295 294 294 294
324 319 318 314 315 317 316 314 315 314 314 313 313 312 313 313 314 314 312 311 311 312 311 309 307 305 304 302 301 301 300 298 295 295 295 295 295 295 294 294 294 294 294 293
319 319 313 315 316 312 316 314 314 313 314 314 313 314 315 312 314 314 312 312 310 309 306 303 300 299 299 297 297 297 297 296 295 295 295 295 295 294 294 293 293 293 293 293
313 311 312 309 311 316 319 314 314 311 313 315 314 314 315 317 315 313 312 305 304 303 300 299 298 297 296 296 296 295 295 294 295 295 295 295 294 294 293 292 293 293 293 292
317 317 312 316 320 319 314 314 314 316 314 314 313 313 314 314 314 312 307 302 299 298 297 296 295 294 294 295 295 295 295 296 295 295 294 293 293 292 292 292 292 293 292 292
320 321 318 318 317 317 315 316 315 314 314 314 314 313 314 314 314 307 300 299 298 297 296 296 296 295 294 294 295 295 294 294 293 293 293 292 292 292 292 292 292 292 291 291
319 318 318 315 317 316 317 315 314 314 314 311 309 309 312 313 309 301 300 298 297 296 296 296 295 295 295 295 295 295 295 293 293 292 292 291 292 292 292 292 291 292 292 291
317 316 317 316 318 316 313 313 313 311 309 305 303 303 303 302 300 298 297 296 295 295 295 296 296 296 295 295 295 294 293 292 292 292 292 292 292 291 292 292 292 291 291 290
316 317 312 314 316 314 311 310 308 306 305 304 302 300 299 299 298 297 296 295 295 295 296 296 296 295 293 292 292 292 292 292 292 292 292 291 291 291 291 291 290 291 291 290

GFSCGP_925_thetae_054.txt.gz
Theta_e
319 320 320 320 320 322 319 319 317 317 318 323 323 321 319 321 323 319 318 325 322 323 322 323 323 324 325 325 326 329 328 327 326 322 319 318 318 318 317 316 314 312 313 313
318 322 321 321 322 322 322 321 319 318 317 322 319 320 320 321 324 320 319 318 318 318 319 324 324 324 325 327 327 329 329 328 324 320 319 321 321 317 315 312 312 313 313 311
318 320 321 322 322 323 322 322 321 320 319 315 315 318 317 319 322 321 320 317 317 319 319 324 326 326 327 328 328 328 327 327 324 320 321 322 320 315 313 313 313 313 312 310
320 320 320 321 322 321 322 321 321 321 317 316 317 319 321 317 321 323 321 317 316 320 321 325 327 328 328 329 328 328 327 327 325 322 323 321 316 313 313 314 313 312 312 309
318 321 322 321 321 321 322 321 322 321 320 320 321 319 318 319 320 320 322 319 318 322 322 326 329 329 329 329 328 328 328 328 327 324 325 322 317 314 314 314 313 313 311 309
318 319 320 320 322 321 320 320 322 321 322 323 323 319 319 319 320 321 320 321 320 323 323 325 330 330 329 329 329 329 329 328 327 325 328 322 316 315 315 314 313 313 310 308
320 319 320 321 320 319 320 319 320 321 322 323 322 322 320 321 320 319 320 321 320 322 324 327 329 330 329 329 329 329 328 328 326 326 328 322 317 316 315 314 313 312 309 307
320 320 321 321 321 322 323 320 320 323 325 322 322 324 323 320 320 320 319 318 323 324 327 329 328 329 328 328 329 328 328 328 328 326 323 320 317 315 314 314 313 308 304 303
321 323 322 322 321 320 322 323 320 322 323 320 320 319 321 321 323 323 321 322 325 325 328 328 327 327 327 328 328 328 328 329 321 318 317 315 313 311 309 306 305 304 302 299
320 323 322 323 321 320 319 320 323 321 319 320 317 319 324 323 324 325 323 322 325 323 323 324 325 326 327 327 327 327 327 325 318 318 317 315 311 308 306 306 305 304 303 304
320 319 320 323 322 320 319 319 319 318 318 320 320 318 314 321 321 323 323 324 324 322 321 321 322 324 327 327 321 320 320 319 318 317 312 308 306 305 305 305 305 303 301 301
319 320 321 321 321 321 321 320 320 317 317 318 315 316 315 317 318 318 319 324 324 322 319 319 320 321 320 320 320 320 319 319 318 314 307 305 305 306 306 304 301 302 300 298
319 320 322 322 320 320 322 318 318 319 315 318 316 317 315 314 317 316 315 318 323 322 319 317 317 319 319 319 319 318 316 310 308 306 306 305 305 305 304 304 302 301 298 297
319 320 318 321 319 317 320 320 318 317 315 317 317 318 317 316 314 313 313 315 321 323 321 318 316 317 318 319 318 316 313 313 308 307 306 306 304 304 303 302 299 298 298 297
318 319 319 318 318 320 319 319 319 319 318 318 317 317 316 315 313 311 312 314 318 321 320 319 316 316 318 317 312 310 309 308 308 306 304 304 302 299 298 298 299 299 297 296
319 318 318 320 318 317 318 317 316 317 317 317 317 317 312 311 310 310 310 311 312 315 317 316 317 317 317 312 309 308 307 306 305 302 300 298 298 298 299 298 297 295 295 296
319 319 315 319 313 315 315 316 316 316 316 316 315 314 313 312 311 311 311 311 312 314 317 317 317 316 313 309 307 306 305 302 300 298 297 298 298 297 296 295 295 295 295 295
319 318 311 314 311 315 317 315 315 313 312 312 312 312 313 312 311 310 309 311 313 312 311 309 307 306 306 305 303 301 300 299 298 296 296 295 295 295 296 297 295 295 294 294
321 315 315 314 314 316 316 313 311 312 314 312 311 312 313 313 312 312 310 309 308 305 301 300 299 299 300 300 299 299 297 295 295 295 295 297 299 299 296 294 294 293 293 293
316 314 315 313 314 313 314 313 311 311 313 313 314 315 313 312 312 313 306 303 300 299 298 297 297 296 296 296 296 295 295 294 295 296 298 299 298 295 294 293 293 293 292 293
312 311 312 305 309 310 312 313 312 310 310 313 313 314 315 315 311 305 300 300 298 296 295 294 294 294 294 295 295 295 295 295 296 298 297 294 294 293 293 292 292 292 292 292
315 314 310 311 311 315 315 314 312 310 312 312 312 312 312 311 305 301 299 298 296 295 294 294 294 295 295 295 296 296 295 295 295 294 294 293 293 292 292 292 291 292 292 292
317 314 314 315 314 314 314 314 312 312 312 313 312 312 312 306 301 300 298 297 296 295 295 295 295 294 295 295 295 294 295 294 293 293 293 292 291 291 291 291 291 291 291 291
318 317 318 315 316 316 314 313 312 310 306 305 306 309 308 301 300 298 297 296 295 296 295 295 295 295 295 295 294 294 293 293 293 292 292 292 291 291 291 291 291 291 291 291
315 315 315 316 315 313 312 311 307 304 303 302 301 301 301 299 298 296 296 296 295 296 296 295 295 294 294 293 292 292 292 292 292 292 292 291 291 291 291 291 291 291 291 290
313 314 312 313 315 312 310 306 305 304 302 301 299 298 298 297 296 295 295 295 296 296 295 294 293 292 291 291 291 290 290 290 290 290 291 291 291 291 291 291 291 291 291 291

GFSCGP_925_thetae_057.txt.gz
Theta_e
318 318 319 318 317 321 321 321 319 316 315 321 321 321 318 319 324 326 331 329 330 330 328 327 328 328 326 326 326 326 327 328 328 326 324 323 321 319 320 320 318 316 313 311
318 321 319 319 320 321 321 322 321 317 316 320 319 320 318 320 323 325 328 329 324 326 324 325 327 323 324 326 326 327 327 328 326 326 324 320 318 318 317 316 315 313 312 312
317 318 320 321 320 321 320 322 321 320 317 318 316 317 317 319 322 321 323 328 322 322 322 322 321 322 324 325 324 327 328 328 326 324 320 319 318 317 314 312 312 312 312 311
318 318 319 320 320 320 320 319 321 321 316 315 315 317 318 318 323 321 320 321 320 320 320 321 322 322 323 325 324 325 327 326 325 323 320 320 321 317 315 312 312 313 312 310
318 320 320 320 318 319 319 320 321 321 320 319 319 317 316 316 321 322 320 317 316 317 318 322 322 322 323 325 325 325 325 325 324 321 319 321 322 320 316 312 313 313 311 310
316 318 318 317 319 320 320 321 319 318 319 321 320 318 317 317 319 321 322 319 316 315 317 321 324 324 325 326 326 326 326 327 326 322 321 322 323 318 314 313 313 312 310 308
319 319 319 321 320 318 318 317 318 320 320 322 319 320 319 318 317 316 318 320 316 317 318 323 325 326 327 326 326 326 325 325 325 324 324 324 324 319 315 314 313 312 309 307
318 318 319 319 320 320 322 317 318 321 322 319 320 323 320 319 319 318 316 317 317 319 321 326 327 328 327 327 327 326 326 326 326 326 326 325 326 320 314 314 313 311 307 303
319 319 321 322 320 319 321 322 318 320 319 320 319 316 319 319 321 320 318 320 320 320 323 326 328 328 328 328 327 327 327 326 327 327 326 326 325 319 315 313 312 308 302 304
316 319 321 321 321 320 319 319 321 319 320 321 316 318 319 321 320 322 320 319 323 323 325 325 326 327 327 328 328 327 327 328 327 326 325 324 320 315 313 311 306 304 305 304
317 316 318 321 320 319 319 318 317 318 315 319 319 318 312 319 319 321 321 319 322 323 325 325 326 326 327 327 328 328 328 327 325 321 317 316 312 309 306 305 305 306 305 302
317 316 317 319 319 320 317 318 317 317 318 316 314 315 313 314 317 318 320 321 321 321 323 324 325 325 325 326 326 326 326 323 319 314 310 307 306 305 305 305 305 302 302 302
318 317 318 318 318 319 321 319 319 316 313 317 315 316 313 311 314 315 316 317 321 321 319 320 320 322 322 322 320 320 318 317 314 310 307 305 305 306 306 305 303 302 301 299
317 318 318 320 318 318 321 319 316 316 315 316 315 316 315 314 313 313 313 311 315 321 319 316 316 318 321 319 316 313 311 311 309 308 306 306 306 306 305 304 302 301 298 297
317 319 317 316 316 317 317 318 317 318 316 317 316 315 315 314 312 311 310 313 317 320 319 316 314 315 316 315 312 311 309 308 307 306 306 305 305 304 303 302 298 299 298 296
316 316 316 319 317 317 318 317 316 316 316 316 315 315 312 311 310 309 309 311 314 316 318 317 315 315 315 311 309 309 308 308 307 306 305 304 300 299 298 299 299 296 296 298
317 316 314 317 313 315 315 314 315 315 314 314 314 313 312 312 311 310 311 312 313 315 316 316 315 313 310 309 308 308 307 305 304 303 300 298 298 298 296 296 295 298 296 295
316 314 310 312 311 314 315 314 313 313 312 310 312 312 311 310 310 309 308 311 310 308 306 305 305 305 304 305 303 302 302 300 298 298 298 296 295 296 298 299 298 296 294 294
317 312 312 314 315 314 317 311 311 312 313 312 312 311 312 311 311 310 305 302 300 299 297 296 298 299 299 299 299 298 297 296 295 295 297 299 299 299 299 297 294 293 293 293
314 312 314 308 314 317 316 313 310 310 312 312 311 312 312 311 309 311 301 299 297 296 296 295 295 295 295 295 296 295 294 295 296 298 299 299 299 298 295 294 293 292 292 292
313 311 315 305 310 313 311 312 309 311 311 310 311 311 310 311 307 302 298 296 294 294 294 294 294 294 294 295 295 295 296 296 297 299 300 297 294 293 293 292 292 291 291 291
317 316 310 308 306 317 311 312 310 308 311 311 311 312 310 302 300 298 296 295 294 293 294 294 294 294 295 295 296 295 295 296 295 294 293 293 292 291 291 291 291 291 291 291
317 314 315 314 314 312 313 311 311 310 311 311 311 309 305 301 299 297 296 295 294 294 294 294 295 295 295 295 295 294 294 293 293 292 292 292 291 291 291 291 291 291 290 290
316 314 314 315 316 315 313 311 309 309 308 308 309 306 302 300 298 296 295 295 294 295 294 295 295 294 294 294 293 292 292 292 292 291 291 290 290 290 290 290 290 290 290 290
315 315 314 315 314 314 312 307 304 303 302 301 300 300 300 298 297 295 294 294 295 295 295 294 293 292 290 290 290 290 290 290 290 290 290 290 290 290 289 289 289 288 288 288
313 314 315 314 313 312 311 304 303 303 301 300 299 297 297 296 295 295 294 295 295 295 293 290 290 289 289 289 288 288 288 288 287 286 285 285 284 285 285 285 285 285 286 286

GFSCGP_925_thetae_060.txt.gz
Theta_e
317 317 318 316 314 316 319 319 319 318 317 318 316 319 318 322 331 332 331 329 329 328 327 326 326 327 324 326 327 327 329 326 325 325 326 327 327 325 324 323 323 322 320 318
316 319 318 317 319 319 320 321 320 318 316 316 317 317 318 320 326 330 332 330 330 330 327 326 326 328 326 327 326 327 328 328 325 326 327 327 326 323 321 321 319 318 316 312
317 317 318 319 320 320 319 320 319 320 317 317 317 316 318 317 321 323 328 330 328 329 328 326 325 326 327 326 326 326 326 327 326 327 327 325 321 318 317 317 317 315 312 310
316 316 318 319 319 318 318 318 319 320 318 317 314 315 314 315 321 323 325 328 328 324 325 324 324 323 323 324 325 325 325 325 326 326 326 323 319 316 316 317 316 313 312 311
316 319 319 319 318 318 318 318 319 320 319 318 318 316 314 316 321 323 322 321 326 323 321 321 322 322 322 323 324 325 325 325 325 325 324 321 318 317 318 316 313 312 311 310
315 316 317 317 318 318 319 320 316 316 317 320 319 317 316 316 319 321 322 318 319 320 318 318 320 321 321 322 324 324 324 325 324 324 322 320 319 319 318 314 312 312 311 309
318 318 318 319 319 318 317 316 317 318 319 320 318 319 319 317 316 316 319 319 317 316 314 315 318 320 321 323 324 324 324 323 324 323 322 321 320 320 318 314 312 312 310 308
317 316 317 317 318 318 320 317 318 319 320 318 317 322 318 318 317 317 314 314 316 313 313 316 318 321 322 323 324 324 324 324 323 323 322 321 320 322 318 315 313 312 310 307
316 316 319 321 319 318 320 319 315 318 317 319 317 316 313 317 320 320 317 317 315 313 315 317 320 323 324 324 324 325 324 324 324 325 323 323 323 322 321 315 313 312 310 304
314 316 319 321 320 319 318 317 319 316 322 321 315 315 316 315 317 319 319 318 320 317 318 319 322 325 325 325 326 326 325 325 325 324 325 324 325 324 322 315 313 311 305 303
315 313 315 320 320 319 318 319 316 316 314 318 318 317 312 313 316 319 318 317 316 320 320 321 323 325 326 327 327 326 325 325 326 326 325 325 324 321 316 313 310 305 303 304
315 313 313 317 318 316 315 318 316 317 317 315 313 315 311 310 312 317 316 318 317 320 320 321 322 324 325 326 326 326 325 326 327 326 324 322 319 315 311 308 305 305 305 306
316 314 314 314 315 318 321 318 316 314 312 316 315 316 311 310 311 311 314 315 318 320 319 320 320 322 324 324 323 324 325 323 322 320 315 311 308 306 305 304 305 305 306 303
315 316 314 315 314 316 321 318 317 317 315 316 314 315 313 312 312 311 311 311 311 318 319 318 318 319 321 321 320 319 318 317 314 310 307 305 304 304 305 306 304 304 301 299
315 316 315 315 315 315 316 316 314 315 315 316 316 313 313 313 311 309 308 308 310 312 318 317 316 315 317 314 312 312 311 310 309 307 306 305 305 306 306 303 302 299 298 298
314 316 315 317 316 317 319 316 315 315 315 314 314 313 310 310 310 309 309 312 315 314 315 317 314 314 313 311 309 308 307 307 307 306 305 305 306 304 303 301 299 298 296 295
315 314 313 317 313 315 315 314 315 315 313 314 314 312 309 311 311 310 310 312 313 312 312 312 311 310 309 309 308 307 307 306 305 305 304 302 301 299 298 296 295 297 299 299
314 313 310 312 310 314 315 313 313 314 312 310 310 311 309 309 309 306 304 309 306 304 303 303 302 301 303 305 304 303 303 303 301 298 298 297 296 296 298 299 299 299 297 294
314 311 312 314 314 313 315 312 312 312 311 309 309 309 310 309 309 307 300 298 298 297 295 295 297 298 298 298 299 299 298 297 296 297 298 299 299 299 298 298 298 295 293 293
312 310 313 309 314 315 313 313 308 309 311 309 310 311 311 309 308 308 299 296 295 294 294 294 295 295 296 296 297 296 296 297 298 299 299 299 298 298 298 294 293 293 292 291
313 310 312 305 311 313 312 311 308 312 313 308 309 311 309 309 305 299 295 294 293 293 293 294 294 293 294 295 295 295 296 297 298 299 299 298 294 293 292 292 291 290 290 290
320 318 312 307 309 319 309 310 311 309 309 309 308 308 308 300 298 296 294 293 293 293 293 294 294 294 294 295 296 296 295 294 294 294 293 292 291 291 290 290 290 290 290 290
319 317 317 316 316 312 309 310 309 307 309 310 309 308 302 299 297 295 294 293 292 293 294 294 294 294 294 294 294 293 293 292 292 291 291 290 290 290 290 290 290 290 289 289
315 312 314 315 314 314 313 311 310 310 310 308 308 303 301 298 296 295 294 293 292 294 293 294 293 291 289 290 290 290 290 290 290 290 289 288 288 287 286 286 285 285 285 285
315 315 314 314 314 313 312 308 306 304 303 303 300 300 299 297 295 294 293 293 294 294 293 292 290 289 289 289 288 288 287 288 287 285 284 283 282 281 281 281 281 282 283 284
313 315 316 317 314 313 311 304 303 303 302 300 299 297 296 296 295 294 294 294 293 291 290 289 289 288 286 285 284 284 284 283 283 282 281 280 280 279 280 280 280 280 281 282

GFSCGP_925_thetae_063.txt.gz
Theta_e
318 320 322 319 317 317 317 319 320 319 319 319 320 320 321 334 334 334 333 332 332 330 327 326 325 325 325 326 327 328 329 329 329 324 322 323 326 327 328 326 326 324 320 317
319 322 319 316 317 320 320 321 321 320 318 319 320 320 319 330 334 334 334 333 332 331 329 326 326 326 325 325 326 327 328 329 326 323 320 323 324 326 326 324 323 319 319 318
320 319 317 319 321 321 321 321 320 320 319 317 317 318 320 319 327 330 333 332 331 331 331 329 326 327 326 325 325 326 327 329 327 324 323 325 325 324 321 319 319 319 319 316
318 315 317 320 321 320 322 318 319 320 321 322 315 319 317 318 321 326 329 332 332 331 330 330 328 327 327 325 325 325 326 327 327 324 323 324 323 321 318 318 318 317 314 310
318 319 319 320 320 319 321 318 320 321 322 320 319 320 321 317 319 321 324 328 331 331 330 331 329 328 327 325 325 325 326 325 325 325 324 324 322 320 319 317 317 314 312 310
315 316 318 319 317 318 318 321 317 318 320 325 321 321 322 320 320 320 321 323 326 330 329 329 328 327 325 324 325 325 325 324 323 324 324 324 321 319 317 316 314 312 312 311
318 319 318 317 320 318 318 319 322 324 325 325 319 320 322 319 318 318 320 322 323 326 328 326 325 324 323 323 324 325 324 324 323 323 324 323 322 320 319 317 314 312 310 309
319 319 318 318 319 321 320 320 326 321 322 322 318 324 322 318 318 319 319 317 319 320 323 324 323 323 323 323 324 324 324 324 323 324 324 324 323 320 319 319 316 312 311 310
319 317 317 319 318 319 321 322 318 321 319 324 320 319 316 317 317 320 321 319 319 318 318 320 320 321 322 323 324 323 324 324 323 322 322 322 322 320 321 319 316 312 310 309
318 318 319 320 320 318 320 318 324 321 324 323 319 317 318 319 318 319 319 321 320 320 316 316 318 320 322 323 324 324 324 324 324 323 322 322 320 321 322 320 317 311 309 307
315 317 316 320 322 322 321 322 318 319 319 323 323 320 318 319 317 320 320 320 321 321 321 320 320 322 323 324 324 325 325 325 324 324 323 322 320 321 321 318 312 309 307 306
317 318 319 319 317 316 318 321 320 326 322 319 320 321 316 316 314 314 319 318 321 321 323 323 323 325 325 325 326 326 325 325 325 323 322 321 319 318 315 311 308 306 305 303
317 317 318 317 317 319 321 318 317 316 317 320 326 323 314 314 316 315 315 317 317 321 323 324 325 325 326 326 326 325 324 324 320 321 320 315 312 309 307 305 304 303 303 304
316 317 318 319 317 319 322 320 318 320 322 323 320 321 319 318 316 317 315 314 314 315 322 324 325 325 324 324 323 323 319 319 318 314 309 308 306 305 304 304 305 306 304 301
319 320 316 315 313 317 319 320 319 320 321 323 322 317 318 317 317 314 311 311 312 314 315 321 322 323 322 319 315 313 313 311 310 309 307 306 305 304 304 305 303 301 299 299
315 319 317 317 316 315 317 316 317 318 317 316 316 316 315 313 311 312 312 314 319 318 318 318 317 318 317 313 312 310 310 309 309 308 306 304 305 305 304 301 299 299 298 296
317 318 318 320 315 316 319 318 317 317 316 318 319 319 313 313 312 313 314 317 316 314 314 313 313 313 311 310 309 308 307 306 306 305 303 303 303 301 300 298 296 296 297 298
317 317 315 319 313 323 319 313 315 317 316 314 312 312 312 312 311 308 308 313 310 309 308 307 306 304 304 304 304 304 303 303 301 299 300 300 298 297 298 298 298 297 298 298
315 314 316 322 320 317 314 314 315 317 317 314 314 312 311 311 311 308 302 302 303 301 300 300 300 300 301 301 301 301 299 298 298 298 298 298 298 298 298 298 298 297 294 293
312 313 320 314 320 323 319 313 310 312 317 313 312 313 313 312 319 315 301 299 298 298 298 298 297 298 298 298 299 299 298 298 299 298 298 299 300 300 298 295 293 292 291 291
317 315 319 314 322 319 314 311 310 319 319 312 312 313 314 313 311 305 298 297 296 296 296 296 296 296 296 297 298 299 299 298 298 298 297 296 293 292 291 291 290 290 290 290
321 321 319 314 318 323 312 309 317 318 310 311 311 312 312 303 300 299 297 296 296 296 295 295 295 295 295 296 296 295 294 293 293 293 291 291 290 290 290 290 290 289 289 289
322 320 321 319 323 316 311 313 310 309 313 311 312 310 305 301 299 297 296 296 295 295 295 294 294 293 292 293 294 292 291 291 291 290 290 289 289 288 286 286 285 285 284 284
315 314 318 318 317 315 314 313 311 310 311 310 310 307 304 302 298 297 296 295 295 295 294 293 292 291 290 290 289 289 290 290 289 287 286 285 284 283 283 283 283 283 283 283
317 316 317 317 315 314 314 313 311 308 307 306 305 304 303 300 297 296 295 296 295 294 292 291 291 290 288 287 286 285 286 286 285 284 283 282 282 281 281 281 281 281 282 281
316 317 319 321 317 317 317 314 308 307 307 305 302 300 299 299 297 296 296 295 293 292 291 291 289 287 285 284 283 282 282 282 283 282 281 280 280 280 280 280 280 280 280 280

GFSCGP_925_thetae_066.txt.gz
Theta_e
322 322 323 320 320 320 320 320 321 321 322 322 323 323 322 328 333 333 335 333 332 331 328 328 327 329 325 325 326 327 328 329 330 330 326 323 324 326 328 329 329 326 324 322
323 323 322 321 321 321 321 321 322 322 321 322 323 322 322 325 332 332 332 334 333 332 331 327 327 327 328 328 328 328 329 331 331 328 325 323 323 325 327 327 326 324 322 320
322 322 321 322 322 322 322 322 322 322 322 323 322 323 322 323 329 332 332 331 332 333 332 331 328 327 327 327 328 329 330 330 330 328 325 324 326 327 327 326 325 323 320 319
321 321 320 321 321 322 322 322 321 322 323 323 321 321 320 322 324 328 332 334 333 333 332 331 330 328 328 327 327 329 330 330 330 328 326 324 325 326 326 326 325 320 318 316
321 320 320 321 321 321 322 322 322 323 325 324 324 322 322 322 322 323 326 330 333 332 333 331 330 329 329 328 328 327 328 330 330 330 328 327 326 327 327 325 323 319 316 313
320 320 321 321 321 321 322 323 323 324 325 325 323 323 321 321 322 322 323 324 328 332 333 332 330 329 329 330 330 329 328 328 329 330 329 329 328 329 326 324 321 316 315 312
320 320 321 320 322 322 323 325 326 328 326 324 323 322 321 321 322 323 324 325 325 327 332 333 332 332 329 330 331 330 330 328 329 329 329 329 329 328 325 323 320 318 315 313
321 321 320 321 322 322 324 324 325 323 323 322 321 321 320 321 321 322 324 325 323 325 327 331 333 331 331 329 330 330 330 329 329 328 328 328 326 325 324 322 320 317 314 314
320 319 319 321 321 322 324 324 323 326 326 326 322 321 320 320 321 323 321 323 325 323 325 327 330 330 330 330 329 330 329 329 329 328 328 326 325 322 322 322 318 316 315 314
319 320 319 322 322 322 323 322 324 325 325 323 322 321 319 319 319 320 320 321 325 326 324 323 325 327 328 329 329 329 329 328 328 328 327 325 325 324 323 321 317 317 316 314
319 319 322 323 323 323 324 324 323 323 324 324 323 321 320 319 319 321 321 322 323 325 327 325 323 322 324 326 327 328 328 327 327 327 327 326 325 324 323 320 317 316 314 311
319 320 321 320 321 322 322 323 324 324 323 324 326 323 320 320 321 320 321 323 323 325 326 327 326 325 325 325 326 326 327 327 327 327 327 324 322 323 321 318 315 313 309 306
320 320 321 320 320 322 322 322 322 323 323 323 328 323 320 320 321 321 321 321 322 323 326 328 329 329 328 328 328 328 328 328 328 326 323 319 318 316 312 309 307 306 305 305
320 319 320 322 319 318 320 321 321 322 325 322 321 321 320 321 321 321 321 321 320 321 323 327 329 330 329 329 329 327 324 322 318 316 313 310 309 309 308 307 306 306 303 302
320 320 320 318 318 317 318 318 318 320 320 320 322 321 320 321 321 322 320 318 318 319 318 323 328 330 329 329 327 326 320 314 313 311 310 308 306 304 304 303 303 303 303 301
320 320 320 320 318 318 318 318 319 320 320 321 322 321 320 320 320 319 318 318 321 322 322 322 324 327 325 323 321 319 317 313 311 310 307 305 304 304 303 303 301 300 300 298
322 321 322 322 320 320 323 321 320 321 321 322 322 320 320 321 320 319 319 320 321 322 322 322 323 322 320 318 317 316 314 312 310 307 306 305 305 302 300 299 299 298 298 298
323 322 324 323 321 331 320 319 320 321 321 321 321 320 320 319 319 317 316 320 319 318 317 316 316 315 315 314 313 312 311 310 308 306 305 303 301 299 298 298 298 298 298 299
321 323 325 330 324 321 320 316 320 321 321 321 321 320 318 317 316 316 313 316 315 314 313 312 312 312 311 310 309 308 306 304 303 302 300 299 299 299 299 299 299 299 299 297
318 319 326 322 325 334 322 319 319 319 322 320 319 318 318 317 321 319 311 309 309 308 308 308 308 309 308 307 306 305 303 302 301 300 299 300 300 300 299 298 297 295 294 293
322 322 327 325 330 325 321 316 316 321 324 320 319 319 318 319 318 315 309 308 306 306 305 306 306 306 306 305 304 304 303 302 301 300 298 296 296 295 294 294 293 293 293 293
324 326 328 324 332 330 316 314 320 322 321 320 319 319 319 316 311 308 307 305 305 304 303 303 303 304 304 304 303 302 300 299 296 295 294 294 293 292 293 293 292 292 291 289
322 323 326 323 324 323 317 320 318 318 320 318 319 318 318 311 309 307 306 305 304 303 302 302 301 301 300 300 299 298 296 295 294 293 292 291 290 289 288 288 287 287 287 287
318 318 323 322 321 320 320 318 316 316 316 316 316 316 314 311 308 306 305 304 303 301 300 299 298 297 296 296 295 295 293 293 292 291 290 288 286 287 285 285 285 285 285 285
320 319 320 322 321 318 318 319 319 316 315 314 314 314 312 310 307 305 304 303 301 299 298 298 297 295 293 292 290 290 290 290 289 287 286 285 285 284 284 284 283 283 283 282
319 321 324 325 324 322 322 319 319 318 316 314 313 312 310 308 306 304 303 301 299 298 297 296 294 292 290 288 287 286 286 286 286 285 284 283 284 283 283 283 283 281 279 279

GFSCGP_925_thetae_069.txt.gz
Theta_e
321 323 324 323 323 321 321 321 322 323 323 322 323 325 323 328 331 331 333 331 331 329 328 327 326 325 322 321 321 324 327 328 328 328 326 323 322 322 323 327 329 329 329 327
323 324 323 322 320 320 320 321 323 323 322 322 323 322 321 327 331 331 332 333 330 330 329 328 328 325 325 325 326 326 326 328 328 327 325 322 321 322 324 329 329 328 328 326
323 323 322 322 322 322 323 324 324 323 323 322 322 322 322 324 329 329 329 330 330 330 330 329 328 329 326 326 327 327 327 327 328 327 325 323 323 323 325 328 328 328 327 326
321 322 322 322 322 323 324 323 322 323 324 326 324 324 324 323 325 330 329 330 331 331 330 330 328 328 329 329 329 329 328 328 329 328 327 324 323 324 325 327 327 326 326 325
320 321 323 322 322 322 322 323 323 324 325 325 323 321 323 321 321 324 328 330 330 330 331 330 330 327 327 328 328 329 329 330 329 330 328 326 325 325 326 327 327 327 324 322
320 321 321 321 322 322 322 323 324 325 326 328 325 323 324 323 321 322 324 327 329 330 330 329 328 329 328 329 329 329 329 330 330 330 330 329 328 327 326 329 328 326 324 321
320 321 321 322 322 323 323 325 329 329 328 328 324 323 322 322 322 322 323 325 325 328 331 331 329 328 328 329 330 330 329 329 330 331 331 331 330 330 329 329 327 326 322 319
321 322 321 321 323 324 324 325 329 329 329 327 322 320 322 321 320 321 322 324 326 327 327 331 331 330 328 328 330 331 330 330 329 330 332 332 332 331 330 330 327 325 322 320
321 321 320 321 321 323 324 325 324 327 326 327 324 323 322 320 320 321 320 321 324 326 327 328 331 331 331 330 330 332 332 331 330 330 332 332 332 331 330 329 327 324 322 320
320 322 320 320 321 322 324 325 325 325 326 328 324 323 322 321 321 320 320 321 323 327 326 327 328 329 331 331 332 332 332 330 330 331 332 331 331 330 328 325 324 322 320 316
320 321 321 322 322 322 323 325 324 324 325 328 326 323 322 321 320 320 321 320 321 323 327 326 326 327 329 331 332 333 332 332 330 330 331 331 330 328 326 325 323 321 318 315
320 321 322 322 321 320 323 323 324 326 325 325 326 325 322 321 321 321 321 321 321 322 324 327 327 325 326 328 330 331 332 332 331 329 330 330 328 326 325 323 320 318 316 314
320 320 324 322 321 322 322 324 324 325 325 325 334 326 321 321 321 321 321 321 321 322 323 326 328 329 328 328 328 329 330 329 329 329 330 325 324 323 319 316 315 313 312 310
321 320 322 324 322 321 322 320 322 323 330 326 324 322 321 320 321 321 322 321 320 322 323 324 327 329 330 330 329 329 330 330 327 322 319 318 316 314 313 311 309 308 307 305
321 321 320 319 320 319 319 320 320 321 322 324 322 321 319 320 320 321 322 322 322 321 321 323 326 329 330 332 331 326 320 318 316 315 312 309 308 307 306 305 304 304 304 303
321 323 321 320 319 319 319 318 319 318 318 319 319 319 320 321 320 320 320 321 321 323 323 322 325 330 331 330 329 320 316 314 312 311 309 307 305 304 303 302 302 302 302 301
321 324 322 323 320 320 324 319 319 319 319 320 321 321 320 320 320 320 320 321 322 324 324 324 326 329 327 326 322 318 314 312 310 308 308 307 306 304 302 301 301 300 299 299
322 323 324 329 327 330 321 320 320 320 320 320 320 320 319 320 320 321 321 321 323 323 323 324 325 323 323 322 319 316 313 311 310 309 308 306 304 301 300 299 299 298 299 301
321 324 329 330 329 322 320 320 320 320 320 320 320 320 320 320 320 320 319 320 322 321 321 320 320 319 318 317 316 315 313 311 310 308 306 304 303 301 300 299 300 300 300 302
320 323 329 327 327 329 321 320 320 320 324 321 320 320 320 320 322 318 318 320 318 316 316 316 316 316 314 313 312 311 310 308 306 304 303 301 300 301 302 301 302 300 298 297
324 325 330 328 328 323 320 320 321 324 325 320 321 320 320 320 320 320 317 316 315 314 314 314 314 313 312 310 310 309 307 306 304 303 302 301 301 301 299 298 297 295 295 295
326 326 331 329 333 330 321 318 322 324 323 322 322 321 321 322 319 317 316 314 313 313 311 312 312 311 310 309 308 307 306 304 302 300 299 299 297 296 296 296 295 294 293 292
324 324 326 325 326 324 320 321 320 321 323 323 323 321 321 321 317 315 314 312 312 310 309 309 309 309 308 307 307 305 302 300 299 299 297 295 294 293 292 292 291 290 289 289
317 317 322 323 322 322 322 321 320 321 321 321 321 321 321 320 316 313 312 311 310 309 308 308 307 306 305 303 302 300 299 298 297 295 294 292 291 290 288 288 288 288 288 288
316 317 318 319 318 318 321 321 322 321 320 319 319 318 319 318 314 312 311 310 309 307 306 305 304 302 301 299 298 297 296 295 293 292 290 289 288 288 287 287 286 286 285 283
317 319 323 323 319 323 321 321 321 323 322 320 318 317 317 316 313 312 310 308 307 305 303 302 301 299 297 295 294 293 293 292 290 289 288 287 287 286 286 286 285 283 282 280

GFSCGP_925_thetae_072.txt.gz
Theta_e
321 321 321 322 324 324 322 321 321 323 324 324 322 324 325 326 327 330 331 330 329 328 328 326 325 325 322 321 320 318 319 318 320 322 323 324 324 322 323 324 325 326 326 327
322 322 321 322 324 321 320 321 321 323 324 322 322 324 323 325 328 329 331 330 330 328 328 327 324 324 323 321 320 319 321 326 327 326 326 324 323 323 323 324 327 327 328 328
323 322 323 322 323 322 322 322 323 325 324 324 324 324 322 324 327 328 331 331 331 330 329 328 326 323 323 323 323 324 326 328 328 327 327 324 322 322 322 327 328 327 328 327
322 321 323 323 323 323 324 323 324 323 323 325 325 328 324 323 325 327 330 332 327 328 329 329 328 327 324 323 323 325 327 329 328 328 326 324 323 323 324 327 329 327 327 327
321 322 321 323 322 322 323 323 324 324 324 325 326 328 324 323 324 327 328 331 330 330 328 329 329 328 327 327 328 328 327 327 327 327 328 325 324 323 323 324 329 327 326 326
320 321 320 321 322 322 322 323 324 324 325 329 326 325 326 325 323 324 327 329 330 332 330 329 328 328 330 328 329 330 330 329 328 329 326 328 325 326 326 328 328 327 326 325
320 320 320 321 321 322 322 324 328 332 331 332 327 326 324 326 324 322 323 327 329 330 331 330 330 328 328 329 330 331 331 330 330 331 328 327 330 326 327 328 328 328 326 324
321 322 320 321 322 323 323 324 332 337 336 331 326 324 319 322 322 321 322 323 327 328 330 330 328 330 329 329 331 331 331 331 330 331 332 331 328 331 327 328 328 328 326 324
322 321 319 321 321 322 324 325 325 330 331 334 327 325 322 321 320 320 321 322 325 327 328 330 330 329 330 330 331 332 331 330 330 331 331 332 333 332 332 331 330 328 327 324
322 323 321 321 321 321 322 324 327 327 331 331 324 323 327 322 321 321 320 322 324 326 327 328 328 331 329 330 331 332 332 332 331 331 332 333 333 333 332 331 330 328 325 323
321 323 323 321 321 321 322 323 327 325 326 330 332 327 325 322 320 321 321 322 322 325 327 327 328 328 332 331 330 333 334 333 332 332 332 333 334 332 332 330 327 325 323 321
321 322 324 321 321 321 322 323 325 329 327 330 333 330 324 324 323 322 322 322 323 323 325 327 327 326 327 331 333 333 334 334 333 332 333 333 332 331 329 327 325 323 321 319
321 322 324 323 322 322 322 321 323 325 326 328 333 328 324 322 321 322 322 322 322 323 323 326 328 327 327 327 329 332 334 334 333 332 332 331 327 328 326 325 323 321 318 316
322 323 323 326 325 323 322 321 322 326 330 329 328 325 324 322 322 322 323 322 322 323 322 324 327 328 328 328 328 330 331 330 328 326 324 322 320 322 320 318 315 314 313 310
322 325 323 321 320 321 321 322 322 322 323 327 328 324 322 322 321 322 322 323 323 322 321 321 323 329 330 331 329 326 324 321 319 316 313 312 313 314 312 310 309 308 307 306
319 323 322 323 320 321 321 322 322 321 320 320 322 322 321 320 320 322 320 320 322 322 324 323 322 330 332 329 323 319 316 314 313 310 308 308 308 307 306 306 305 304 304 304
322 322 322 324 322 320 321 321 320 319 320 320 321 321 321 321 321 321 321 321 321 323 325 324 325 332 330 323 319 316 313 312 311 309 307 306 305 304 303 303 303 303 303 302
323 324 322 326 324 326 321 321 320 320 319 320 320 320 320 320 320 321 322 321 323 324 325 326 329 329 324 320 316 313 311 310 309 308 307 306 304 303 302 302 302 301 300 300
320 325 326 327 327 323 321 321 321 321 321 321 320 320 320 320 322 322 321 321 323 324 324 325 325 325 321 318 315 313 311 310 309 307 305 304 302 301 300 300 299 300 301 302
318 322 326 328 327 327 324 321 321 321 323 321 321 322 322 322 325 323 320 321 322 321 321 322 322 321 320 319 316 314 312 310 308 306 305 303 302 301 300 300 301 301 302 301
322 324 326 326 327 326 321 320 321 324 324 323 322 322 323 322 324 322 321 321 320 319 319 319 318 317 316 315 314 312 310 308 306 304 303 301 302 303 303 302 301 298 296 295
325 325 327 326 327 328 321 321 321 322 324 325 324 323 324 324 322 320 320 318 317 317 316 316 315 314 312 312 311 309 308 306 304 303 303 302 301 299 298 296 295 295 295 293
318 323 326 325 327 326 325 323 322 323 324 325 326 325 324 323 321 319 318 317 316 315 314 314 314 312 311 311 310 308 306 304 303 301 300 297 296 296 296 295 292 291 290 290
318 319 318 317 321 324 324 323 323 321 323 322 323 323 322 323 319 318 316 315 314 313 313 312 311 311 310 309 308 305 302 301 300 298 296 294 292 291 290 290 289 289 289 289
318 318 318 319 318 318 318 319 323 322 323 322 321 320 321 323 319 316 315 313 313 311 311 310 310 309 307 304 302 301 300 299 297 295 292 290 289 289 288 288 287 287 286 285
315 317 321 327 320 322 321 321 319 322 324 324 321 321 319 321 319 315 314 313 311 310 309 308 306 303 300 299 298 297 297 295 293 291 290 289 288 287 287 287 285 283 283 282

GFSCGP_925_thetae_075.txt.gz
Theta_e
318 318 319 316 318 320 321 322 319 320 322 322 321 320 322 325 326 327 326 325 326 325 324 323 321 320 319 318 317 316 314 313 313 314 315 317 318 318 316 319 322 322 321 324
319 320 319 319 319 320 322 319 319 318 323 322 319 319 320 321 327 327 328 327 327 327 325 323 321 320 319 318 318 316 315 314 315 315 317 319 319 320 320 323 323 323 324 323
320 321 320 320 320 321 320 320 320 322 321 321 322 321 321 322 325 326 327 326 327 326 326 325 322 320 320 319 318 317 316 316 316 317 317 319 322 323 323 323 325 325 325 324
318 320 321 321 321 322 321 321 322 323 321 321 321 324 323 322 324 326 329 327 326 327 325 325 324 322 321 320 319 317 317 317 317 321 324 324 323 322 321 321 322 325 326 325
317 320 321 321 322 322 321 322 323 323 322 322 324 327 323 321 324 325 330 328 327 326 326 323 323 322 319 319 318 318 318 321 326 326 326 325 323 322 322 322 324 326 326 326
316 317 318 319 321 321 321 321 321 322 321 324 324 327 322 320 321 324 327 329 328 326 327 325 323 322 319 320 320 321 322 324 327 327 326 327 323 322 322 323 326 327 327 326
318 317 318 319 319 320 320 322 325 328 325 326 326 327 324 322 322 321 325 330 326 326 326 326 325 324 322 321 321 321 323 326 328 328 328 328 325 323 322 322 327 328 328 327
318 319 318 318 319 321 319 321 327 332 331 332 328 328 320 322 322 318 318 326 327 327 326 326 326 326 325 324 324 325 326 327 327 328 328 327 326 323 324 324 326 327 328 327
317 318 318 318 320 320 322 322 322 330 328 331 327 324 323 320 317 318 319 319 324 329 327 326 327 327 327 327 325 326 329 328 328 329 329 327 327 326 325 325 327 328 327 327
319 322 319 318 319 319 320 322 324 324 331 332 326 325 324 321 322 318 316 318 320 321 322 326 326 327 326 327 328 328 329 330 329 328 330 330 327 328 330 328 326 329 328 327
317 319 320 320 319 320 320 320 322 325 326 324 324 324 321 322 320 317 317 318 319 320 321 321 320 326 327 326 326 328 329 329 329 329 329 331 331 331 329 331 330 329 326 324
316 321 321 320 319 320 320 320 322 328 327 325 322 323 321 319 320 318 317 317 317 320 320 320 322 322 327 328 328 329 330 330 330 330 329 330 331 332 331 330 328 326 323 321
318 320 322 321 320 320 319 320 321 322 323 325 324 326 323 321 319 318 318 318 317 317 319 320 321 322 322 327 329 330 331 330 323 328 330 331 331 330 329 327 327 324 322 321
319 321 322 322 321 322 321 320 320 321 322 323 324 325 323 322 320 317 316 317 319 319 318 321 321 321 323 328 329 331 330 331 330 330 331 328 324 326 323 322 322 322 321 319
319 321 320 320 320 322 321 321 320 319 321 327 324 324 323 319 318 318 319 318 319 319 317 317 321 321 327 325 322 321 319 320 320 319 317 316 318 320 319 317 317 316 314 313
318 319 320 321 321 320 320 320 319 319 320 320 319 323 321 318 316 317 317 320 319 319 321 322 323 329 327 322 318 316 316 316 317 315 312 313 313 313 313 312 310 309 308 307
319 320 321 321 321 321 319 318 320 320 320 319 319 317 317 317 318 318 317 316 317 320 321 322 330 328 323 319 316 313 313 315 314 312 310 310 310 309 308 307 306 306 305 305
321 323 321 321 319 323 320 319 319 319 319 318 318 318 317 316 317 317 316 317 321 321 321 327 325 321 317 315 313 313 312 311 309 308 307 306 305 304 304 304 305 304 303 303
318 322 322 322 323 321 321 319 319 319 318 318 318 318 317 317 318 319 317 317 319 319 320 322 321 318 315 314 313 311 310 309 308 307 305 304 304 303 304 304 303 303 301 301
319 319 320 321 323 323 321 320 318 319 319 319 319 318 318 318 317 316 316 319 319 318 321 321 319 316 315 313 312 311 310 308 307 305 304 303 303 303 302 302 301 300 301 302
316 318 321 317 323 322 321 319 319 320 317 318 320 318 317 318 317 316 317 318 317 317 319 320 318 316 315 313 311 310 309 307 306 304 303 302 302 302 301 300 301 301 301 295
319 319 320 320 323 326 320 319 320 318 318 319 321 320 321 318 317 318 317 316 316 316 316 317 315 314 315 314 311 309 307 306 304 303 303 302 301 302 302 301 299 296 295 295
321 321 322 322 320 319 321 319 320 319 320 321 321 321 320 318 317 317 316 314 313 313 314 314 311 311 312 311 308 306 305 304 303 302 302 301 299 298 296 295 294 294 293 292
317 316 318 316 317 317 321 318 318 319 319 320 319 319 319 318 316 315 313 312 311 311 311 311 310 309 309 309 307 305 304 303 302 299 296 295 294 293 292 291 290 290 289 289
315 315 317 317 314 315 318 316 316 316 317 320 319 319 317 317 315 313 312 310 309 309 309 310 308 303 301 301 302 302 301 300 296 293 292 290 289 289 288 288 288 288 287 287
314 315 317 316 315 316 317 316 317 318 319 319 320 319 317 317 314 312 310 308 307 307 307 302 299 298 295 291 292 295 296 294 290 289 288 288 287 288 286 286 284 284 283 282

GFSCGP_925_thetae_078.txt.gz
Theta_e
317 316 317 315 315 317 318 319 319 319 317 323 322 321 319 324 325 324 324 325 323 323 320 321 320 319 318 318 318 318 317 317 317 317 316 316 314 313 314 315 317 316 320 323
318 319 317 316 316 317 318 319 319 318 319 320 319 317 317 325 326 325 325 325 324 323 323 321 320 318 317 317 317 317 317 318 317 319 317 315 314 312 313 313 314 315 318 319
317 320 318 318 319 320 319 319 319 318 319 319 320 319 320 322 324 326 326 325 325 324 323 322 320 318 317 317 317 316 316 317 315 315 314 314 313 313 313 313 313 316 321 322
313 316 319 319 320 319 319 319 320 322 321 321 320 321 320 321 325 327 327 325 326 326 324 322 320 319 318 318 318 317 315 314 314 313 315 316 317 317 317 317 317 318 322 322
315 317 318 319 320 320 320 320 321 322 322 320 320 322 320 320 325 328 328 327 326 326 325 323 321 320 319 319 318 317 316 315 315 315 316 317 319 320 320 321 321 323 325 324
313 314 316 318 319 319 320 320 320 320 320 322 321 323 322 320 321 327 327 327 326 325 325 323 322 320 320 319 318 317 316 316 316 317 317 320 319 321 322 322 321 322 323 324
313 313 314 316 317 317 318 319 322 323 323 324 324 325 323 321 319 323 328 327 326 325 324 324 323 321 320 319 318 317 316 317 317 318 319 321 323 323 322 321 321 322 323 324
316 318 315 316 316 318 318 319 322 326 327 328 326 327 321 319 319 319 322 327 326 325 325 322 323 322 319 318 318 317 317 317 319 320 324 325 324 324 323 322 321 323 324 324
317 317 315 316 316 318 319 321 321 325 327 326 326 324 320 318 318 317 319 327 327 325 325 324 322 322 321 317 317 318 319 320 321 322 324 326 326 325 324 323 321 322 324 324
317 318 316 317 316 317 319 320 323 325 330 331 327 325 323 320 318 316 317 323 326 324 324 325 325 323 322 321 319 319 320 320 322 323 325 326 326 326 325 323 323 322 323 325
316 317 317 317 316 317 319 320 321 322 325 326 324 322 319 320 319 316 314 317 321 324 325 324 324 325 325 323 322 322 321 322 324 325 326 327 326 327 326 323 323 324 325 324
315 317 318 317 317 317 318 320 320 323 325 323 321 323 318 318 316 315 314 316 315 317 321 323 324 324 325 326 325 325 324 325 326 327 327 327 328 328 326 327 326 324 324 322
314 317 319 318 317 318 318 318 319 321 323 324 325 324 320 317 319 316 314 314 315 317 318 316 317 320 324 325 325 326 326 326 327 328 328 328 328 329 329 328 325 327 325 320
318 318 317 318 319 319 320 320 319 320 322 321 322 322 322 321 320 319 315 314 314 314 317 317 317 319 322 325 325 325 326 328 328 328 328 327 328 328 329 326 326 324 323 322
319 320 320 317 320 320 320 320 320 320 320 321 320 321 320 320 320 318 315 315 316 315 315 317 318 321 325 324 325 326 327 328 328 328 326 322 322 322 321 320 321 321 320 319
318 318 320 321 321 321 321 320 320 319 318 318 321 321 319 319 316 316 316 316 316 316 317 317 317 326 324 320 318 318 317 317 322 322 320 318 317 317 316 317 316 316 315 312
319 319 319 320 320 321 321 320 321 320 318 318 319 317 317 318 316 313 313 315 316 316 317 322 323 325 322 318 316 315 315 316 316 314 313 314 313 313 313 313 312 310 309 308
316 318 316 318 318 325 320 318 319 320 318 317 316 316 315 315 314 313 313 314 315 316 321 326 323 317 315 314 313 313 314 314 312 312 311 311 312 311 309 308 307 307 307 306
316 318 317 320 320 321 320 319 318 319 318 316 316 315 316 316 316 317 316 316 316 317 322 321 319 315 313 312 311 311 311 311 310 308 308 308 307 306 305 305 305 305 304 303
318 317 318 317 321 319 318 318 317 318 319 317 316 316 317 315 316 315 316 317 318 319 321 318 316 314 314 312 312 310 309 309 307 306 306 306 306 306 304 304 304 303 303 301
315 317 318 315 321 320 319 318 317 322 317 316 317 317 316 315 314 314 315 318 318 319 319 317 315 313 312 312 312 309 308 307 306 305 305 304 303 303 303 303 302 301 300 300
318 318 320 319 321 323 318 320 319 317 316 318 319 319 319 316 315 315 317 316 317 316 316 316 314 312 311 311 310 308 307 305 304 303 302 302 302 302 302 301 300 300 298 295
316 319 319 317 318 318 316 320 319 317 319 319 320 320 319 316 317 317 316 315 314 313 311 312 312 310 311 310 309 305 304 304 303 303 301 301 301 300 300 300 299 295 293 291
316 317 319 318 318 318 316 314 317 315 317 317 317 319 317 317 316 314 312 311 311 310 309 309 309 307 306 307 306 305 304 304 302 299 296 295 295 293 293 293 293 291 290 289
311 315 316 315 314 314 314 313 314 316 316 320 319 317 317 315 314 312 311 310 309 308 308 305 302 299 298 302 301 301 300 301 293 290 289 289 289 289 288 287 286 286 286 287
312 314 313 313 313 313 314 312 313 316 317 318 318 317 316 315 313 311 309 308 307 302 299 292 291 290 290 290 291 292 292 291 289 287 287 287 286 285 285 284 283 283 282 282

GFSCGP_925_thetae_081.txt.gz
Theta_e
314 315 317 316 314 316 317 318 317 316 316 318 318 320 318 322 323 324 324 323 321 321 320 321 321 319 319 318 319 319 319 318 317 318 321 322 322 323 324 324 324 324 322 321
316 318 316 315 314 316 317 317 317 316 316 317 318 318 315 322 324 323 324 323 321 321 320 321 319 319 319 318 317 317 317 316 316 317 319 320 321 321 321 321 321 322 321 322
314 317 317 316 317 318 317 318 318 317 317 317 318 317 317 322 324 324 323 323 322 321 322 320 319 317 317 317 317 317 316 315 315 315 315 315 317 318 315 315 318 317 318 320
312 313 317 317 317 317 319 317 318 318 318 321 318 320 317 319 325 326 325 323 323 322 322 320 318 316 316 316 316 317 318 316 316 316 316 316 315 316 313 313 314 314 314 316
312 313 314 317 319 317 319 318 319 319 319 319 319 321 318 320 324 325 326 325 323 322 322 321 319 318 317 317 316 317 317 318 317 317 317 316 316 316 314 313 313 314 313 313
311 313 314 315 316 317 318 319 319 318 318 321 320 320 319 317 320 324 325 325 324 323 323 321 320 319 318 317 317 317 316 316 317 316 316 316 315 315 315 315 314 314 316 315
312 312 313 316 317 316 317 318 320 321 321 322 320 323 321 319 318 322 326 326 325 323 324 322 320 319 318 318 317 317 316 315 314 314 314 313 314 315 316 316 316 316 317 318
316 315 312 312 315 316 316 318 320 324 323 322 325 328 324 319 317 317 324 325 325 323 324 323 322 320 319 318 317 317 316 315 315 314 314 314 315 316 317 318 319 319 320 321
316 315 314 313 314 315 316 318 318 320 324 325 324 323 320 317 317 317 320 324 324 324 324 324 323 322 320 319 318 317 316 315 315 315 315 316 316 318 320 320 320 321 321 321
315 317 315 315 314 315 316 318 321 322 327 329 325 324 324 320 317 315 319 324 324 324 324 323 322 323 321 319 318 317 316 316 315 316 316 316 319 320 322 322 323 322 321 321
313 314 316 316 315 315 317 319 319 321 322 324 325 321 317 319 317 315 315 323 324 324 323 323 322 321 322 321 318 317 317 316 317 317 318 319 320 323 324 325 323 323 322 322
319 315 316 316 315 315 315 318 320 321 323 321 321 322 317 317 317 316 313 315 322 324 324 323 323 323 321 321 320 317 317 317 318 319 319 321 322 323 325 325 325 324 323 323
318 319 317 317 316 315 317 317 318 319 320 323 323 322 318 317 317 314 313 311 313 319 321 321 322 322 323 322 321 321 320 319 319 320 320 323 324 324 325 325 325 324 322 323
318 321 322 319 316 316 318 318 318 320 320 320 322 322 320 319 318 318 316 312 311 313 315 318 321 321 322 323 324 323 322 322 322 322 323 324 325 325 326 326 325 324 323 323
318 320 319 318 315 319 319 319 319 320 318 320 319 321 320 318 317 317 317 315 313 313 314 315 316 316 317 320 323 324 324 324 323 323 324 325 325 325 325 325 325 324 324 323
314 319 318 319 315 316 319 321 321 320 319 318 318 318 317 316 315 316 315 313 314 314 313 315 316 316 322 322 322 322 322 322 324 322 320 322 321 320 320 320 320 319 318 317
310 316 316 319 319 321 322 320 320 320 318 317 319 318 318 317 316 316 315 313 313 313 312 313 316 318 322 319 319 319 317 317 318 317 316 315 315 316 316 317 316 315 314 313
312 312 315 315 316 325 320 318 318 319 319 318 316 316 316 315 315 314 311 312 313 312 313 316 319 317 316 316 315 314 315 316 316 314 313 313 314 313 312 312 312 311 309 308
313 313 316 320 318 317 319 318 318 320 319 318 315 315 314 313 315 315 312 309 311 312 314 319 318 316 315 314 313 313 314 314 313 311 312 312 311 310 309 308 307 305 305 304
314 314 316 318 323 318 315 316 316 317 321 317 316 315 315 315 316 314 314 315 314 317 319 315 313 312 312 312 313 313 311 311 310 310 309 308 308 308 306 305 304 303 303 302
315 315 318 319 322 317 315 318 318 323 319 317 317 316 315 315 315 313 313 317 317 319 316 314 313 312 311 310 310 310 309 309 308 308 307 306 306 305 305 303 302 301 301 300
314 315 316 318 320 319 316 320 320 317 315 316 317 316 315 313 314 314 314 317 318 316 315 313 312 310 310 310 310 308 306 305 305 305 304 303 302 302 301 301 300 300 299 297
314 313 316 317 317 315 315 318 318 317 317 317 318 319 317 316 316 315 316 316 316 315 313 312 310 309 309 309 309 305 304 304 303 302 300 300 300 299 299 299 298 296 294 292
311 314 316 316 315 315 315 315 315 317 317 316 317 317 316 316 314 313 314 313 311 310 310 309 308 306 305 305 304 303 303 301 301 298 295 295 295 294 294 293 292 291 290 289
310 314 316 315 314 313 313 312 313 314 315 316 317 317 317 316 316 313 312 310 308 305 303 301 300 300 301 300 299 298 298 301 296 294 292 291 291 289 287 286 286 286 286 288
310 313 314 314 313 312 311 311 312 313 315 316 316 316 316 315 311 309 307 305 300 296 294 293 292 291 290 291 290 291 291 292 289 287 286 285 285 284 283 283 283 283 283 282

GFSCGP_925_thetae_084.txt.gz
Theta_e
312 313 315 315 314 313 314 316 316 314 314 316 314 313 315 319 323 323 324 323 320 319 320 322 321 320 319 319 320 320 319 318 319 320 321 321 320 320 318 317 317 321 320 316
315 315 314 313 313 315 316 317 316 314 314 315 315 316 315 317 322 322 323 323 320 318 320 320 320 319 319 318 319 319 318 318 319 319 320 321 319 320 322 320 319 320 317 316
314 315 315 315 315 316 315 316 316 315 315 314 315 316 316 317 322 321 321 322 321 318 319 319 319 319 319 318 318 318 318 317 318 320 322 320 319 320 322 321 316 319 318 319
313 313 314 316 316 316 316 315 316 317 317 318 316 319 316 316 317 324 322 322 322 319 319 318 320 318 318 318 317 318 318 317 316 318 320 318 319 319 319 317 320 321 322 322
312 312 313 314 316 315 316 316 317 317 317 317 318 319 316 318 319 319 322 322 322 320 319 318 318 318 318 317 316 317 317 317 316 316 316 316 318 318 316 318 315 316 315 315
310 311 311 312 315 315 317 318 318 317 317 320 318 319 317 317 318 320 320 322 322 321 320 319 318 318 317 316 316 316 317 316 315 315 316 315 315 316 316 316 313 313 314 315
312 311 311 314 314 315 317 316 319 320 321 322 317 320 319 317 316 316 318 321 322 321 320 320 319 318 317 316 315 315 315 315 316 316 315 315 315 314 314 316 315 313 313 313
308 309 311 311 314 316 316 316 319 324 323 321 320 323 321 319 317 315 315 320 321 321 322 321 319 318 317 316 315 316 315 315 316 317 317 317 317 316 316 316 317 315 315 314
315 313 312 312 312 314 315 318 316 319 321 323 321 321 319 318 316 315 315 322 322 321 322 322 321 319 318 317 316 316 316 316 316 316 316 316 316 316 315 316 316 316 316 315
312 317 314 314 311 312 314 316 319 318 323 326 322 323 321 320 319 314 317 321 321 321 321 322 321 321 319 318 317 317 316 316 315 315 315 315 315 314 314 314 315 315 315 316
317 312 312 312 314 313 315 316 318 319 319 322 324 321 316 319 318 317 313 316 320 320 321 321 322 322 321 319 318 317 316 316 315 315 314 314 314 314 314 314 315 316 317 319
317 319 316 314 312 312 313 314 316 319 321 319 318 319 316 315 316 315 314 312 317 320 320 320 320 320 321 320 318 317 316 316 316 315 315 315 315 315 315 317 317 318 319 320
314 319 321 316 314 314 314 315 316 318 318 320 322 320 316 315 316 314 314 312 311 317 320 319 319 320 320 321 320 318 317 316 316 316 316 316 316 317 318 319 320 322 323 323
313 316 319 322 320 318 318 315 315 318 319 319 320 319 319 318 317 316 314 311 310 311 317 318 318 319 320 320 320 320 318 317 317 317 317 317 318 319 320 321 322 323 323 323
315 315 315 317 319 319 319 318 315 317 317 319 318 318 317 317 317 316 315 315 313 310 313 316 319 318 318 320 321 320 320 319 317 317 317 318 318 320 321 322 323 323 323 323
312 313 314 316 313 317 318 317 317 317 317 317 316 316 315 315 315 315 315 315 313 312 310 313 315 316 316 318 319 321 321 321 320 319 319 319 320 322 323 322 321 322 322 322
313 314 314 314 313 316 318 315 318 318 317 317 319 316 314 315 314 314 315 313 313 313 311 311 314 314 315 317 318 318 317 318 321 320 319 318 318 318 319 319 320 321 321 319
310 313 311 316 317 324 319 315 315 317 317 315 316 315 314 314 314 314 313 314 313 312 311 310 311 315 316 318 317 315 316 316 317 316 315 315 316 317 317 317 316 315 313 311
309 312 315 317 318 319 317 317 318 318 318 316 316 315 315 315 312 311 310 310 313 312 312 310 314 316 314 314 314 314 314 314 314 313 313 314 314 314 312 310 308 306 305 304
311 311 313 316 319 319 317 314 316 317 319 316 315 315 315 313 313 312 311 310 308 310 314 314 315 315 314 313 314 313 311 311 309 309 309 309 308 307 306 305 304 303 303 301
313 313 314 316 319 318 317 316 315 320 317 316 316 314 315 314 313 313 312 316 316 315 312 312 313 312 312 312 313 311 310 307 307 308 307 306 306 305 304 302 302 301 300 298
310 314 315 317 318 318 314 315 321 317 315 316 317 316 317 314 313 312 314 318 316 313 312 311 310 309 310 311 310 307 305 304 304 304 303 302 302 301 301 301 299 298 297 294
309 311 312 314 316 314 312 313 312 315 318 316 317 316 317 316 314 314 316 316 315 314 312 310 309 308 307 308 308 303 302 304 303 302 300 300 299 299 298 298 297 296 295 292
306 310 312 313 311 311 311 310 312 313 316 318 314 316 316 315 314 314 313 312 312 311 309 309 307 305 303 303 303 303 303 304 302 297 294 294 293 292 292 291 291 290 289 288
306 308 309 311 312 313 313 312 312 311 312 315 315 315 316 315 313 312 309 304 301 301 301 302 301 300 298 296 296 298 297 297 292 290 288 287 286 285 284 284 285 286 287 288
306 307 309 309 309 310 309 308 309 311 311 313 316 316 314 311 308 301 298 297 296 295 293 292 290 289 288 288 288 290 290 291 288 286 285 285 284 285 286 285 284 284 284 284

GFSCGP_925_thetae_087.txt.gz
Theta_e
315 316 319 319 317 315 315 316 318 317 316 316 317 317 318 317 323 325 327 329 328 325 321 322 322 321 320 320 320 321 320 320 319 319 320 321 321 320 318 317 316 321 319 317
315 318 316 315 316 318 317 318 318 317 315 316 318 319 319 318 321 323 325 328 328 324 321 322 321 321 320 319 319 319 320 320 320 320 319 319 320 322 321 320 318 318 319 317
315 316 315 315 316 318 318 319 318 317 316 316 318 320 320 319 321 323 324 326 327 325 323 322 320 320 320 319 319 318 319 319 319 320 320 318 319 321 318 317 319 318 317 316
313 312 315 316 317 317 318 316 317 317 318 316 318 323 320 321 319 322 324 325 326 324 322 321 319 319 320 319 319 318 318 318 319 319 320 318 318 320 319 316 317 319 316 316
314 313 314 315 317 316 317 317 317 318 318 319 320 322 321 317 321 321 321 324 325 325 323 322 321 319 318 319 318 319 318 317 318 320 319 319 318 318 320 319 319 319 319 317
312 311 313 314 314 316 317 317 318 318 320 324 322 321 322 321 321 321 321 323 325 325 323 322 321 319 318 318 318 317 317 317 317 319 319 319 320 319 319 319 318 318 319 321
312 312 312 314 314 316 317 319 321 324 324 324 320 321 322 320 319 319 321 321 325 325 325 323 322 320 319 318 317 317 316 318 317 316 318 317 317 318 317 317 316 316 317 319
309 308 312 312 315 317 318 320 321 320 325 324 320 323 322 321 320 320 319 318 323 325 324 325 322 321 320 318 317 316 316 317 317 317 317 316 317 317 317 316 316 316 316 315
316 310 311 311 313 316 317 318 318 320 322 326 323 323 321 321 321 318 318 321 325 325 325 325 323 321 320 319 317 316 315 316 317 317 316 316 316 316 316 316 316 316 316 316
317 316 314 313 312 313 316 317 320 319 320 322 322 324 322 322 322 321 319 320 324 325 324 325 324 322 321 319 318 316 316 316 318 317 317 317 316 316 316 315 315 315 315 315
316 316 315 313 313 314 314 315 318 319 321 321 323 324 322 323 322 320 321 318 321 325 325 325 325 323 322 321 319 318 317 318 317 317 317 317 317 317 317 316 317 317 317 317
315 319 321 318 315 314 313 314 315 318 317 323 322 322 318 322 320 320 320 319 316 321 324 324 325 324 322 321 320 319 318 318 317 317 316 316 317 317 317 317 317 317 316 316
308 314 312 317 315 315 317 316 316 316 318 319 323 322 318 317 318 318 319 320 319 316 322 323 324 324 324 322 321 320 319 318 318 317 316 315 315 315 315 315 315 315 314 316
313 313 308 311 319 316 316 316 317 320 321 319 320 318 320 319 319 320 319 317 316 314 317 323 323 324 323 323 322 321 320 319 318 317 316 316 316 315 315 315 315 315 317 319
313 314 314 314 313 314 316 315 317 320 321 319 317 318 319 319 321 321 320 318 317 317 315 318 323 323 323 322 322 322 321 319 318 317 317 317 316 316 317 317 317 318 319 320
312 314 313 313 314 315 314 314 315 319 319 319 317 317 318 319 318 317 318 318 318 318 317 315 318 321 322 322 321 321 320 319 318 318 317 317 317 317 318 319 319 320 320 321
307 310 312 314 313 314 315 315 317 318 319 318 319 319 317 317 317 317 318 318 317 318 317 316 315 317 320 320 320 320 319 319 318 318 317 316 316 317 317 318 319 320 320 321
308 309 310 311 312 314 311 314 317 318 318 317 318 317 317 318 318 317 316 317 317 316 317 316 315 315 316 317 317 317 316 316 316 316 315 317 318 317 318 318 317 316 314 312
306 307 308 311 312 313 310 317 317 320 321 318 317 317 317 317 315 317 315 314 315 316 316 316 313 316 315 316 316 316 315 315 316 315 315 315 315 314 313 311 309 307 307 304
306 307 309 311 314 316 314 318 316 317 322 318 319 318 318 317 320 319 316 313 313 311 314 316 316 315 315 315 315 315 313 311 309 310 310 310 310 309 307 305 304 303 302 300
309 309 310 309 309 311 316 316 318 320 319 315 315 318 319 318 317 316 314 318 315 315 316 316 315 315 314 314 313 311 309 306 306 307 307 307 306 305 304 303 302 301 298 297
311 313 312 311 312 315 314 316 317 316 314 314 315 317 319 319 317 315 319 317 314 312 312 312 312 312 312 311 309 306 304 304 304 304 302 301 301 300 300 300 296 296 294 292
309 312 314 314 315 314 312 314 314 314 314 314 314 316 317 318 316 317 314 314 313 311 310 311 310 309 307 306 306 304 302 301 301 299 296 295 295 294 294 293 292 290 289 287
306 308 312 312 311 312 312 311 311 312 313 313 313 316 317 317 315 315 313 311 310 310 307 305 304 303 302 302 302 301 299 298 295 292 290 289 289 289 289 289 289 288 287 286
307 308 310 309 310 310 310 312 310 309 310 312 312 315 316 314 310 306 304 302 301 301 301 299 296 294 294 293 294 294 293 292 290 288 286 286 286 286 285 285 285 286 286 287
306 308 310 311 309 309 309 309 309 309 311 309 313 316 314 312 305 300 298 297 297 295 293 293 292 291 290 290 290 290 290 289 288 286 286 286 286 285 284 284 283 282 282 282

GFSCGP_925_thetae_090.txt.gz
Theta_e
315 317 319 317 318 318 318 318 318 318 318 319 318 319 322 322 322 325 327 329 331 331 328 325 324 323 323 321 321 321 321 320 322 322 322 322 322 321 322 321 320 317 316 316
317 318 316 317 318 318 318 317 318 318 318 318 318 319 322 322 323 324 326 329 330 331 328 326 325 324 323 322 320 321 323 321 322 321 321 321 321 321 322 321 320 319 316 317
317 316 316 317 318 318 318 319 319 318 319 319 318 319 320 322 323 324 326 327 329 331 329 327 325 324 322 323 322 320 321 321 322 322 320 320 319 319 319 320 319 319 315 319
314 314 316 317 316 316 317 317 318 319 319 320 319 319 321 322 322 322 323 328 328 330 329 327 326 324 323 323 322 322 320 320 321 320 320 320 320 321 319 319 318 320 321 321
315 315 314 317 317 315 317 316 317 318 320 320 319 318 321 322 322 322 324 325 328 330 329 328 326 323 322 322 323 322 321 320 320 321 320 319 319 322 320 320 318 319 318 317
315 314 315 315 316 317 318 319 319 320 321 323 320 319 321 322 322 322 323 325 327 329 329 328 326 324 323 321 322 322 321 320 319 320 320 319 318 320 320 319 319 318 317 317
310 311 313 314 315 315 317 317 321 324 324 323 318 320 321 322 322 323 322 324 328 329 330 329 327 326 323 321 321 322 321 321 320 321 320 320 320 318 321 319 319 320 319 318
309 309 309 312 313 316 317 318 322 324 324 323 321 322 322 322 322 323 324 325 325 329 330 330 328 327 324 322 321 320 320 321 320 321 321 322 322 320 320 321 320 319 319 320
315 309 313 311 313 313 317 320 319 322 320 323 323 323 323 323 323 323 323 322 325 328 329 330 329 327 325 323 322 321 320 321 321 321 321 321 321 322 321 320 322 322 320 320
314 317 314 315 314 313 314 316 319 320 321 322 322 324 323 322 322 322 322 323 326 328 329 329 330 328 326 324 322 321 320 320 321 322 322 322 322 321 321 320 320 320 320 319
313 318 316 316 316 316 316 317 318 320 320 322 323 322 322 322 322 322 322 324 325 329 330 329 329 328 327 326 323 322 320 320 320 322 322 322 322 321 320 321 321 320 319 319
308 316 318 318 316 316 317 317 317 320 321 322 323 322 321 322 324 324 324 323 322 327 329 329 329 328 328 327 325 323 321 321 321 322 322 322 322 322 321 321 321 321 321 320
308 315 315 315 317 318 318 319 319 320 320 320 325 322 319 318 320 322 322 323 323 323 327 328 329 329 329 328 327 325 323 322 322 321 321 322 322 322 322 322 321 321 321 321
307 309 308 310 312 314 315 316 316 318 323 321 321 320 319 318 319 321 321 323 323 323 324 327 328 329 328 328 327 327 326 324 322 321 321 321 321 321 321 321 321 321 321 320
308 307 309 311 311 311 312 312 314 316 317 321 321 321 319 318 318 318 319 321 322 321 320 326 327 328 329 328 328 327 326 325 324 322 321 321 321 320 320 320 320 319 318 318
312 312 311 312 312 312 311 311 311 313 315 316 318 320 319 319 318 318 319 321 322 322 322 322 322 326 328 328 328 327 326 326 324 324 323 322 321 320 320 320 320 320 320 321
309 311 311 310 311 312 313 313 312 312 314 317 321 320 319 319 318 318 319 321 321 322 321 321 322 321 325 326 326 327 326 325 324 324 323 322 322 321 321 321 321 321 322 322
308 309 309 310 309 309 307 311 313 313 316 318 321 320 319 319 319 319 320 320 321 320 320 320 321 322 320 323 325 325 325 324 323 323 322 322 321 321 320 320 319 318 316 314
308 309 309 312 310 308 308 312 310 317 316 321 321 321 322 319 319 320 320 319 319 319 319 320 319 320 321 321 323 323 323 323 323 321 318 318 318 316 315 313 311 308 308 305
308 309 310 309 311 311 315 313 317 317 318 319 319 320 320 322 325 321 319 319 319 319 318 318 318 319 320 321 321 321 320 319 315 313 313 314 314 312 309 306 304 301 301 296
310 309 310 310 311 310 308 309 315 319 318 315 317 317 318 319 321 322 320 321 318 319 320 319 319 320 320 320 319 317 312 309 307 307 306 306 305 304 302 300 299 296 293 291
311 312 312 311 313 312 311 314 317 315 314 314 315 315 316 317 319 320 321 319 315 315 317 317 317 316 317 316 312 308 305 304 302 301 300 299 298 297 296 294 291 290 289 287
310 311 312 312 312 311 313 311 311 313 314 313 313 314 315 315 317 319 316 315 313 312 312 313 311 309 309 309 306 303 300 298 297 295 294 292 292 292 292 291 289 288 287 286
308 307 310 310 309 309 309 310 311 313 312 310 312 315 316 316 317 315 313 313 311 309 308 306 302 302 302 302 301 300 299 297 294 292 291 290 289 288 288 288 288 288 287 286
308 308 308 309 308 309 309 309 309 310 310 311 312 312 316 317 313 311 307 306 307 304 301 299 297 297 297 297 297 297 297 295 291 289 289 288 287 286 285 284 284 284 286 286
308 308 310 311 309 309 309 309 311 310 311 311 309 311 317 318 311 302 299 299 298 297 296 295 296 296 296 296 296 295 293 292 291 290 289 287 286 285 284 283 282 281 281 282

GFSCGP_925_thetae_093.txt.gz
Theta_e
313 314 317 317 318 319 320 321 323 323 322 320 321 321 320 321 322 324 324 326 329 332 331 330 328 326 326 325 325 325 322 323 323 323 322 323 323 324 323 322 321 321 320 319
312 314 315 318 319 320 320 321 322 321 321 321 321 321 320 320 321 323 324 326 328 331 332 330 329 326 325 324 324 325 325 323 324 324 324 321 321 322 321 320 319 319 318 317
315 314 317 316 318 319 320 321 322 321 322 321 321 322 321 320 321 322 323 324 325 330 333 331 329 327 325 324 324 324 325 324 324 322 322 321 321 320 319 318 316 315 316 317
316 315 316 318 318 319 322 320 319 320 321 323 322 323 321 322 323 324 324 325 325 328 332 330 329 328 325 326 325 323 324 323 324 324 323 321 321 321 320 320 319 320 319 319
315 315 315 316 318 318 320 318 318 319 321 322 321 322 322 322 322 322 323 324 325 328 331 331 330 327 326 325 326 324 323 322 323 323 323 323 321 320 321 320 320 320 317 315
316 316 316 315 316 317 317 318 319 320 322 324 323 323 323 322 324 324 324 325 326 328 331 330 329 326 326 325 324 325 323 322 322 323 323 323 320 320 320 320 319 319 318 316
313 315 316 316 315 318 318 320 323 328 330 326 323 323 323 323 322 323 323 324 327 328 331 331 330 327 326 326 324 324 324 323 322 323 323 323 321 322 320 321 319 319 319 319
310 311 314 315 317 317 318 320 322 325 330 330 324 323 322 323 323 323 323 323 327 329 331 331 330 329 326 326 325 324 323 323 323 322 323 322 321 320 320 320 320 318 319 318
314 311 312 311 312 314 317 319 319 321 324 326 326 323 323 323 324 323 322 325 326 329 331 331 330 330 326 325 325 325 324 324 323 323 322 322 320 320 320 322 321 320 317 318
318 319 315 311 312 313 313 316 319 320 325 327 324 323 323 323 324 323 322 322 324 327 330 331 331 331 328 326 325 324 324 324 323 324 324 323 323 323 322 322 322 322 321 320
314 319 317 316 316 314 314 314 316 319 320 323 326 324 323 323 323 323 323 324 325 327 330 330 331 330 330 327 326 325 324 323 324 324 324 324 323 323 323 323 323 323 323 322
312 317 319 318 317 317 319 316 316 320 320 321 322 324 323 322 322 325 324 324 324 328 330 330 330 331 330 329 327 325 324 324 324 324 324 324 324 324 323 324 323 323 323 323
310 314 318 315 316 317 319 318 318 319 321 322 326 325 321 320 319 319 321 322 323 324 328 330 330 331 331 330 329 327 325 324 323 324 324 325 325 325 325 324 323 323 323 322
309 311 313 313 314 314 318 318 319 319 322 322 321 319 319 320 319 320 320 321 323 325 325 327 329 330 331 330 330 328 327 325 324 323 324 325 325 325 325 325 324 324 324 324
310 308 309 309 309 310 312 313 314 316 317 320 320 320 320 321 320 319 320 320 320 322 322 324 328 330 331 330 330 330 329 327 325 324 324 324 325 325 325 325 325 324 324 324
312 312 309 309 310 310 310 309 310 310 312 315 317 317 317 317 318 319 319 319 319 320 321 323 324 327 329 330 330 330 329 329 328 326 325 324 324 324 324 324 324 324 323 323
310 312 312 311 309 310 313 312 311 311 310 312 315 316 316 319 319 320 319 318 318 319 321 322 323 324 325 328 329 330 329 329 329 327 326 325 324 324 324 323 323 322 323 322
310 311 312 313 311 311 309 309 310 311 314 313 311 314 320 319 319 319 319 319 319 320 322 322 322 322 322 323 327 329 329 329 328 328 327 326 325 324 324 323 323 318 318 316
308 310 312 314 312 310 310 312 317 313 313 321 321 320 320 320 322 323 320 320 322 322 322 321 320 320 321 322 324 328 329 328 328 327 327 326 325 325 320 317 315 311 312 305
308 309 312 312 312 313 316 312 311 314 318 317 317 319 320 320 323 324 322 323 323 322 322 322 321 320 321 324 324 326 327 327 326 326 323 321 317 316 310 307 304 301 299 294
311 313 313 313 312 311 311 310 310 317 320 315 315 315 317 319 318 319 318 320 322 321 320 320 321 321 322 323 324 325 324 315 310 310 309 306 305 303 300 297 294 292 289 288
313 314 312 311 313 313 310 314 315 315 313 314 315 314 314 316 317 317 316 320 318 316 317 319 321 322 322 322 317 310 306 303 302 300 299 297 296 294 294 292 290 289 288 286
314 310 313 312 312 311 313 313 312 312 312 313 313 312 314 314 316 317 315 319 314 313 313 313 314 313 311 309 305 301 298 297 296 294 293 293 292 291 291 289 288 288 287 287
309 310 311 311 311 311 311 310 310 310 311 312 311 313 312 312 316 317 317 316 312 308 307 306 306 304 304 302 300 298 296 294 293 292 290 290 289 288 288 288 288 288 287 286
309 309 310 310 310 310 310 310 310 310 311 311 312 310 312 315 318 315 310 305 302 301 300 300 300 300 300 298 297 295 294 292 291 290 289 288 286 285 284 284 285 285 287 287
309 310 310 312 310 311 311 310 311 311 311 311 309 309 315 312 311 306 302 299 295 294 295 297 297 298 299 299 297 296 295 293 291 290 288 286 285 284 283 283 282 282 282 282

GFSCGP_925_thetae_096.txt.gz
Theta_e
311 309 311 314 317 317 319 321 322 322 322 323 323 322 322 322 322 323 323 325 325 330 332 332 330 328 327 325 325 324 325 324 324 323 324 326 327 327 327 326 324 326 324 324
313 310 312 313 315 317 318 319 321 322 322 323 323 322 322 322 322 321 320 323 326 329 334 332 330 327 326 325 325 325 323 324 324 323 322 324 325 325 324 323 324 324 323 321
314 313 313 313 313 316 320 321 322 323 322 323 323 323 322 322 322 322 321 323 324 328 334 332 331 328 326 325 324 325 325 325 324 322 322 322 322 321 321 321 320 320 319 320
316 316 316 314 315 314 317 320 321 322 323 323 322 325 324 323 323 323 322 323 325 324 334 332 331 328 326 325 324 325 325 325 323 323 323 322 322 321 320 320 319 319 319 319
315 315 315 315 315 317 317 318 319 322 323 322 322 325 323 323 322 322 324 325 325 325 333 332 330 329 327 326 326 325 324 325 324 324 323 322 321 320 318 317 317 317 317 316
312 314 314 316 316 316 317 318 319 320 321 325 323 325 324 323 324 324 323 324 325 326 332 331 330 328 327 326 325 325 324 324 324 324 323 322 321 320 318 317 316 316 317 318
310 312 314 316 316 316 316 318 322 325 327 329 324 325 325 324 324 324 325 326 327 328 332 331 330 328 328 326 325 325 324 323 324 324 324 323 322 320 319 318 317 317 317 318
311 311 310 315 316 317 316 318 323 324 330 328 328 328 325 323 323 323 323 324 327 329 332 331 330 327 328 327 325 324 324 323 323 324 324 323 321 321 320 319 319 319 318 317
317 316 312 313 316 316 317 319 319 322 323 330 328 327 327 323 324 324 323 324 328 329 331 331 331 328 327 327 326 325 325 324 322 324 324 323 322 321 321 320 319 319 318 317
320 320 313 313 314 315 315 317 320 321 324 325 324 328 327 326 325 324 323 324 327 329 331 331 331 330 327 327 326 326 325 324 323 322 324 323 322 321 321 320 320 319 319 318
315 317 319 312 311 312 312 313 314 316 320 322 326 326 325 326 325 326 326 326 325 327 330 331 331 331 328 328 327 327 326 325 324 324 323 323 322 321 321 321 321 321 319 318
313 314 320 319 316 317 318 314 314 317 319 321 322 323 324 324 322 323 323 323 325 326 329 330 330 332 330 328 327 327 326 325 325 325 324 324 323 322 321 322 322 322 322 320
310 314 316 316 315 317 318 319 317 316 317 321 325 324 323 323 320 320 321 321 322 325 328 330 330 332 332 330 328 327 326 326 326 325 325 325 324 324 324 324 323 323 323 323
310 308 312 317 314 313 317 318 319 320 323 321 322 320 323 323 321 321 321 322 321 322 324 329 330 330 332 331 330 328 327 326 325 326 326 325 326 325 324 324 324 323 324 324
309 307 307 308 309 309 310 313 315 317 318 320 320 320 320 319 319 318 319 320 320 320 321 323 327 329 330 331 331 330 328 326 326 325 326 327 326 326 326 325 325 325 324 323
310 311 310 309 308 307 309 309 310 311 312 313 315 317 317 317 317 318 318 318 319 319 319 320 322 326 329 330 331 331 330 328 326 325 325 326 327 326 326 326 326 325 325 325
310 310 312 312 310 309 312 310 309 308 309 310 311 313 315 316 317 318 319 320 319 319 319 319 322 324 327 330 331 331 331 329 327 326 325 325 327 327 326 326 326 326 326 325
311 311 312 312 312 314 311 309 309 311 311 311 317 313 311 315 319 319 320 322 323 324 324 324 323 322 323 324 330 331 331 331 330 328 327 326 326 326 326 326 326 324 321 318
307 309 313 311 312 310 309 310 312 317 317 319 320 320 321 320 320 318 320 319 320 321 323 322 321 322 322 321 320 329 330 330 331 330 329 327 326 326 325 320 312 311 312 305
307 310 313 314 312 313 315 312 311 312 318 316 316 316 316 316 321 319 318 317 318 319 319 319 319 320 322 321 322 324 329 330 330 329 328 328 326 318 310 308 304 299 297 293
311 312 312 313 315 313 312 311 311 313 320 315 315 315 315 315 315 316 317 318 317 319 316 316 318 320 322 323 323 324 317 314 311 314 311 309 308 307 304 298 295 294 291 289
311 313 314 313 313 314 311 310 315 315 313 313 314 315 314 315 315 314 314 317 317 316 313 313 315 316 314 313 312 308 305 303 304 304 301 297 296 295 295 294 290 288 287 286
314 311 312 311 311 312 312 315 314 312 311 311 313 312 313 313 313 313 317 317 314 311 309 308 308 309 306 306 304 300 298 298 297 296 293 292 291 290 290 289 288 288 287 286
312 311 312 314 312 312 314 313 313 310 310 311 312 312 310 311 314 316 316 311 306 304 302 302 303 303 300 299 298 297 295 295 293 292 291 290 290 289 289 288 288 287 287 286
310 311 312 314 311 311 311 312 312 312 311 311 312 310 310 314 314 310 307 303 300 297 298 298 299 299 297 296 294 294 293 291 290 289 288 287 286 285 285 284 285 285 286 286
310 311 313 313 312 312 312 311 311 311 311 311 310 309 311 309 307 303 299 296 294 292 290 289 288 291 295 296 294 292 291 289 288 287 286 285 284 284 283 282 281 280 281 282

GFSCGP_925_thetae_099.txt.gz
Theta_e
307 305 306 306 313 315 317 318 318 318 318 320 319 319 319 317 317 317 319 318 317 324 330 328 327 327 326 325 325 324 324 326 324 323 323 324 326 327 326 328 328 328 327 327
309 307 307 307 309 313 315 316 315 316 317 319 320 319 319 318 318 317 316 314 317 331 330 327 325 325 325 325 323 324 325 324 323 324 324 326 326 326 326 327 327 327 326 326
316 315 311 309 309 311 311 314 316 316 318 320 321 321 318 319 319 318 318 316 320 332 330 328 326 324 324 324 324 324 324 324 323 323 323 325 325 327 326 325 325 325 325 322
317 316 314 309 310 311 312 312 314 317 320 322 321 325 321 320 320 319 319 319 317 331 330 328 326 324 323 324 324 324 324 324 324 323 322 323 323 323 323 324 324 324 323 320
313 314 314 315 315 312 313 313 315 316 319 320 322 324 320 320 322 321 317 316 317 331 329 329 326 324 323 324 323 325 325 324 323 322 322 322 322 322 321 320 320 320 320 319
309 309 310 312 313 314 315 316 317 317 319 323 323 323 320 321 322 322 321 319 318 330 329 328 326 325 323 324 323 325 325 324 324 323 322 322 321 320 319 319 319 319 319 319
308 308 308 310 311 313 314 314 320 323 320 321 320 322 321 320 321 321 321 320 320 330 329 328 326 325 324 324 325 325 324 325 323 323 322 321 321 320 319 318 318 318 318 318
309 311 308 310 310 314 315 315 321 323 326 325 322 329 325 323 322 321 321 321 328 329 329 328 327 325 325 324 324 324 323 324 324 324 322 321 321 319 318 318 317 317 317 316
314 314 316 310 309 313 316 316 315 320 322 327 327 323 324 324 324 324 320 323 326 329 328 327 326 326 325 324 324 323 323 323 323 324 323 322 320 319 318 317 316 315 316 316
318 320 317 317 310 311 315 316 318 319 321 322 323 327 330 325 324 325 324 321 324 329 327 327 325 326 325 324 324 324 323 322 322 323 324 322 321 319 319 317 317 317 316 316
314 316 319 318 312 313 314 315 314 317 319 321 321 323 324 325 324 322 322 320 322 326 328 328 326 325 326 325 324 324 323 323 322 322 324 323 321 321 320 318 318 318 318 317
310 313 320 319 317 317 314 313 313 315 314 318 319 319 322 322 323 321 322 322 319 319 325 327 327 325 326 325 325 324 324 323 322 321 322 322 321 321 321 320 319 318 318 318
308 312 316 322 317 317 318 318 318 313 314 316 318 320 321 322 320 321 322 321 318 319 318 326 328 326 326 325 325 325 325 324 323 322 322 322 322 321 321 320 320 319 319 318
309 309 308 311 316 314 311 312 320 318 316 315 314 316 322 323 322 320 317 317 317 319 316 321 328 328 326 326 326 326 326 324 324 323 323 323 323 322 320 320 321 321 320 320
308 310 309 309 308 308 308 308 311 316 318 322 320 317 319 322 321 317 315 319 321 321 321 318 317 327 328 326 326 326 325 325 325 324 324 323 323 323 322 321 321 322 322 322
308 312 311 311 311 309 309 308 308 309 309 310 311 312 312 314 315 314 322 322 323 324 324 323 322 321 322 328 326 326 325 325 324 324 324 324 324 323 323 322 323 324 322 323
310 310 311 314 311 312 310 309 309 308 308 308 308 310 310 309 317 320 319 319 319 321 322 322 320 320 319 320 328 327 326 325 324 324 325 324 324 324 324 323 323 323 324 323
310 310 311 314 312 314 311 311 310 309 311 312 317 319 317 317 318 317 316 317 318 318 320 319 317 317 318 319 320 327 327 326 325 324 324 325 325 325 325 325 324 324 324 323
305 310 311 313 312 312 310 311 315 317 319 316 316 316 314 315 316 315 314 315 316 318 317 316 316 316 318 317 317 320 325 327 325 324 324 324 325 325 325 325 321 319 316 309
305 307 309 311 312 312 315 314 310 311 320 316 315 315 314 313 315 314 313 312 315 314 314 313 314 316 314 312 313 316 319 325 326 325 325 325 324 325 322 313 310 305 304 298
306 307 309 310 314 314 312 312 311 313 317 314 313 313 313 313 313 312 311 315 315 312 312 310 311 312 309 308 308 304 305 305 304 310 315 317 315 310 306 301 296 294 293 292
307 309 309 310 310 312 311 311 314 315 312 311 312 311 312 311 310 310 314 314 310 307 306 306 307 307 305 304 305 300 299 299 300 300 299 298 297 296 296 295 291 289 288 287
311 310 312 310 309 310 311 313 313 311 311 311 310 308 308 308 309 314 314 308 304 301 301 301 303 303 301 300 300 298 297 298 297 295 293 292 292 291 290 290 288 288 287 286
311 311 312 312 311 311 311 312 312 311 311 310 309 308 310 313 312 311 307 302 299 297 297 297 299 299 297 296 295 295 294 294 293 292 291 290 289 289 288 288 288 287 286 286
310 311 313 314 312 311 312 311 311 310 310 310 308 309 310 310 306 304 300 298 296 293 292 291 291 296 295 294 293 292 291 291 289 288 287 286 285 284 283 284 285 284 284 283
309 312 314 313 312 312 312 311 311 311 309 308 308 307 302 301 300 299 296 294 292 290 288 288 288 289 290 292 291 290 289 288 287 286 285 284 283 282 282 281 281 281 281 281

GFSCGP_925_thetae_102.txt.gz
Theta_e
306 305 306 306 313 315 316 317 317 317 316 315 314 314 315 315 315 313 313 315 315 324 329 326 326 327 327 326 325 325 325 325 325 325 326 326 328 327 329 328 328 329 328 323
309 306 306 306 306 310 315 316 316 315 314 314 314 316 316 317 316 316 315 314 315 328 327 326 325 324 325 325 324 324 325 325 324 323 323 324 325 327 327 327 327 328 327 323
316 312 308 307 306 307 309 313 314 314 314 313 314 317 319 318 317 318 319 314 319 330 328 327 325 323 324 324 324 324 324 324 322 322 322 324 324 326 326 326 325 327 326 325
315 316 316 311 307 307 307 308 310 311 313 314 319 322 319 319 319 319 319 319 319 328 328 327 325 322 323 323 324 324 324 323 323 321 323 324 325 326 326 327 325 325 327 325
309 315 317 317 314 308 308 309 311 311 312 315 317 321 318 319 319 319 319 319 316 328 328 327 325 323 322 324 323 323 324 323 323 322 322 324 324 325 325 325 325 325 325 326
307 308 309 313 313 312 309 309 310 312 314 318 320 322 319 318 319 319 319 320 317 327 328 326 324 322 322 323 324 324 323 323 323 321 321 323 322 322 323 323 323 320 320 322
307 308 307 307 307 308 311 312 315 318 318 319 317 320 319 318 319 319 320 320 319 322 328 326 324 322 322 322 323 324 324 324 323 322 321 321 322 321 322 322 321 320 319 319
308 308 307 307 307 309 310 312 315 319 322 320 318 321 323 322 322 321 321 319 324 328 328 326 324 322 322 322 323 324 324 324 323 323 322 321 321 321 320 321 320 319 319 319
313 309 313 308 308 308 310 314 314 316 321 321 320 321 321 323 324 323 321 318 326 328 328 326 325 323 323 322 322 323 324 324 323 323 322 321 321 320 320 320 319 319 319 318
314 317 316 317 313 308 312 313 316 315 317 319 320 322 324 325 326 322 322 320 324 328 328 327 325 324 323 323 322 323 323 324 324 324 323 321 320 320 319 319 318 318 317 317
310 315 316 317 315 310 310 312 314 316 317 317 320 318 323 324 323 323 323 322 320 321 327 326 326 324 324 323 322 322 322 322 323 324 323 322 320 319 319 319 318 317 317 318
309 311 317 318 316 315 317 314 316 318 319 318 318 319 322 320 322 324 322 322 321 318 317 326 325 325 324 323 323 322 321 321 322 322 323 322 321 320 319 318 317 316 315 316
308 313 314 319 317 316 313 314 319 317 315 318 319 316 322 322 320 319 320 322 320 321 319 322 325 326 324 323 323 322 322 321 321 322 323 323 322 320 319 319 317 317 317 315
307 310 307 312 318 315 311 310 316 318 316 316 314 315 324 323 321 319 319 321 320 322 321 321 324 324 325 325 324 323 322 322 321 321 321 323 322 321 320 320 318 317 318 318
308 311 310 309 310 310 309 308 309 318 316 316 318 320 323 321 322 322 320 322 320 323 322 320 320 322 321 325 325 324 323 322 322 321 321 321 322 321 320 320 319 319 318 318
309 311 310 311 310 311 311 310 308 311 313 312 310 309 313 318 319 320 319 319 320 321 320 318 318 318 319 320 324 325 324 323 322 322 321 321 321 322 320 320 319 319 319 319
310 310 310 312 312 312 309 309 309 309 310 312 309 318 315 320 318 317 316 317 319 319 318 317 316 317 318 317 316 318 325 324 323 323 322 322 321 322 321 320 320 320 320 320
307 308 308 311 310 312 311 309 309 316 317 315 315 314 316 316 315 314 314 315 318 318 317 315 314 315 314 312 312 314 321 324 324 323 323 323 322 322 322 321 321 321 321 320
304 307 305 308 310 310 308 312 312 315 317 315 315 314 313 313 314 312 312 316 316 315 313 312 311 313 310 308 309 311 311 315 324 324 323 323 323 323 322 322 321 321 320 318
303 304 305 307 309 310 311 312 311 310 319 314 314 314 313 312 313 312 313 315 313 311 308 307 308 308 306 305 306 307 306 306 307 316 323 323 323 323 323 319 316 314 313 308
303 303 307 306 307 311 311 311 310 312 314 313 312 311 312 312 311 310 314 310 307 305 304 303 304 305 303 302 303 302 302 301 302 304 312 319 321 320 314 310 307 304 299 295
305 303 302 305 307 309 309 311 312 313 311 311 310 310 309 308 311 313 309 305 302 301 300 300 301 302 299 298 300 300 298 299 300 302 300 301 304 304 302 303 296 293 292 290
310 306 307 307 307 308 309 311 313 311 309 308 307 307 309 312 313 310 305 301 298 297 296 296 299 299 297 296 296 297 296 296 296 297 295 293 293 293 293 291 290 289 289 288
310 308 311 309 310 311 311 311 312 310 308 307 308 310 311 309 306 303 301 297 295 292 292 292 294 297 295 294 293 293 293 293 292 291 291 290 290 289 289 289 288 287 287 285
307 309 312 313 312 311 312 310 310 309 308 309 306 305 305 303 301 299 296 294 292 290 290 290 290 291 294 292 291 290 290 290 287 286 285 285 284 284 284 284 284 284 284 283
309 308 310 312 311 309 312 311 310 309 308 307 304 300 299 299 299 296 293 291 289 288 288 288 288 289 289 290 289 288 288 287 286 285 284 284 283 283 283 283 282 283 284 284

GFSCGP_925_thetae_105.txt.gz
Theta_e
306 303 305 306 310 311 313 315 315 316 315 315 313 313 312 311 312 313 314 312 311 313 328 326 326 328 329 330 329 327 325 325 326 326 325 327 326 327 328 329 327 325 325 325
311 307 305 304 305 310 313 315 316 314 314 314 314 315 314 312 314 314 314 314 312 324 326 326 325 325 326 325 325 325 325 325 326 326 326 325 325 327 327 328 328 326 325 322
308 312 311 306 305 306 306 310 313 315 314 312 311 313 312 313 315 315 316 315 312 322 327 327 325 324 323 323 324 324 324 325 325 324 324 324 324 325 326 327 328 324 322 321
307 308 311 307 305 305 305 305 308 309 312 312 312 314 314 316 316 316 317 315 313 321 327 327 326 322 323 322 323 323 324 324 324 323 322 323 323 326 326 326 326 325 326 321
303 315 312 313 314 305 306 307 306 307 308 308 309 317 314 317 318 317 317 315 314 321 326 327 326 324 322 322 322 323 324 324 322 322 322 323 324 324 325 325 323 325 323 323
303 307 312 314 314 311 308 307 308 308 308 310 310 313 312 313 317 317 317 316 315 318 325 326 325 323 321 322 322 323 323 322 323 322 322 322 323 325 325 323 321 322 323 323
305 305 306 307 307 307 309 309 312 315 317 314 313 318 316 315 316 317 320 319 317 315 324 326 323 322 322 321 322 322 322 320 322 321 322 322 323 325 325 324 322 321 322 322
304 304 305 306 306 307 307 309 313 317 318 317 316 319 317 316 321 320 321 319 319 321 322 326 324 323 322 321 322 322 322 320 321 321 321 322 323 323 324 324 323 322 322 322
308 307 306 305 306 307 308 310 310 313 317 319 318 319 316 321 322 321 321 321 319 328 327 325 323 322 321 321 322 322 322 322 322 321 320 320 321 322 322 323 322 321 320 321
311 315 312 314 306 306 308 309 312 314 316 319 317 319 318 319 323 323 322 322 321 319 326 325 323 322 322 321 321 322 322 322 323 322 321 321 320 321 321 321 321 320 320 319
308 311 314 316 313 310 307 310 312 313 313 316 317 316 315 317 323 323 322 321 322 320 320 322 324 322 322 321 321 322 323 323 323 323 322 321 320 321 321 321 321 320 319 319
307 309 312 315 316 313 314 309 310 315 317 315 314 314 318 319 322 321 323 323 321 319 320 324 324 323 323 322 321 321 321 323 323 323 322 321 321 320 320 319 319 319 319 319
308 310 313 316 315 314 313 311 317 315 315 317 318 317 320 319 318 320 323 324 321 321 320 321 324 324 323 323 322 321 321 321 322 323 323 322 320 320 319 319 318 318 318 318
307 309 311 313 311 316 313 309 316 316 315 316 314 318 323 323 322 321 321 320 321 321 319 317 321 321 324 324 323 322 322 321 320 321 323 322 321 319 319 319 319 318 317 317
307 310 310 310 310 313 314 310 309 317 316 316 314 313 319 321 319 321 321 321 321 320 318 317 317 320 320 320 324 323 323 322 321 320 321 322 322 321 320 318 318 317 316 316
309 311 310 311 311 310 314 312 310 311 316 317 318 310 315 318 317 318 320 322 321 320 318 317 316 317 317 316 316 317 323 323 322 321 320 320 322 322 321 320 318 318 317 317
308 311 311 308 310 309 309 311 310 311 312 316 318 316 318 317 317 317 318 319 318 318 317 315 314 315 313 311 311 312 314 320 322 322 321 320 320 321 321 320 319 319 318 317
305 307 309 312 309 307 310 310 313 316 315 312 315 318 316 314 314 313 315 318 317 315 314 312 312 312 309 308 308 309 314 318 323 322 322 322 321 320 321 320 319 319 319 318
303 306 308 310 311 308 310 313 310 316 317 315 314 315 314 312 313 314 316 314 313 311 309 309 308 309 305 304 304 305 307 309 312 323 322 322 322 321 321 320 319 319 319 318
302 303 307 307 308 306 307 310 310 312 318 315 314 314 313 313 314 313 314 311 308 305 303 303 304 304 301 300 302 304 304 304 304 308 315 322 322 322 321 321 319 318 318 317
302 302 305 305 304 308 307 309 308 313 316 314 312 312 311 310 308 311 308 304 302 300 299 299 301 300 298 298 300 302 301 299 300 303 308 316 322 322 321 320 319 315 310 305
307 302 299 302 304 307 306 311 311 311 310 311 310 309 308 311 311 307 303 300 297 296 295 295 298 297 296 296 297 298 296 296 297 299 300 304 308 313 312 315 306 301 297 292
309 306 304 304 304 304 308 311 312 309 308 308 307 308 311 310 305 303 299 297 294 293 293 294 295 296 295 293 293 294 293 294 294 294 294 294 296 296 297 295 294 293 294 290
306 307 308 305 306 310 310 310 310 309 308 309 309 309 306 304 302 299 297 294 292 291 291 291 292 293 293 292 291 291 291 291 291 290 290 290 290 290 290 290 290 289 288 287
305 304 311 310 311 310 311 310 309 310 307 304 302 302 302 301 300 297 295 292 290 289 289 289 290 290 290 290 289 289 288 288 287 286 286 285 285 285 285 285 285 285 285 285
305 306 308 308 307 309 310 307 309 308 306 303 300 298 296 296 295 293 291 289 288 287 287 287 288 288 288 287 286 286 286 286 286 285 284 284 284 284 284 283 283 284 285 284

GFSCGP_925_thetae_108.txt.gz
Theta_e
303 302 304 304 306 307 309 312 312 314 314 314 314 314 311 310 309 309 309 310 311 310 314 325 325 327 329 330 331 332 330 330 327 326 326 326 328 327 327 326 326 325 325 324
309 305 304 302 304 308 310 311 311 312 313 314 314 315 314 311 309 310 311 311 311 311 319 324 324 325 327 327 328 329 329 328 326 325 324 324 326 326 326 327 328 325 325 324
306 308 309 306 304 305 307 310 311 313 313 311 312 312 309 309 309 310 311 311 312 312 313 323 323 323 324 325 326 327 327 325 325 325 324 324 325 326 326 326 326 325 325 324
304 305 307 308 307 305 305 305 308 309 310 309 309 310 311 311 311 314 313 312 312 311 313 320 324 322 324 324 323 326 324 324 325 325 325 325 324 325 325 326 326 326 325 322
305 305 305 307 308 304 305 305 305 305 307 307 307 306 307 311 315 313 314 313 314 310 311 318 324 324 324 322 323 323 322 324 325 324 323 322 322 323 325 325 326 323 322 321
301 305 306 306 307 306 305 306 307 306 306 308 306 307 307 308 311 316 319 318 320 318 311 318 323 324 322 321 321 321 321 323 324 322 322 321 320 324 324 325 324 320 319 318
299 301 303 306 307 309 308 308 312 313 310 312 308 309 309 311 313 320 320 320 318 323 313 321 323 322 322 321 321 320 321 322 322 322 321 321 322 323 324 324 323 322 321 320
299 301 302 303 306 306 309 311 314 316 318 315 313 312 314 312 317 319 320 319 319 318 321 321 323 321 322 321 320 321 321 321 321 321 320 321 322 324 324 323 323 322 322 321
305 303 303 303 304 306 307 309 309 310 315 316 314 316 315 318 320 320 320 320 319 320 319 321 323 321 322 321 320 320 320 320 319 321 320 321 322 323 324 324 322 322 322 322
310 313 312 309 304 304 307 308 311 310 314 315 313 318 317 322 322 321 321 320 319 319 319 322 322 320 321 321 321 320 319 319 319 319 319 320 321 322 323 323 322 321 322 322
309 310 313 314 310 305 305 307 309 310 311 314 315 313 312 314 320 321 322 320 319 318 319 324 323 321 320 320 320 320 320 319 320 320 320 320 320 320 321 322 322 321 322 322
309 309 312 313 314 313 310 308 308 312 313 313 313 312 317 319 319 319 320 322 320 317 317 321 323 322 321 320 321 320 320 320 320 322 320 320 320 320 320 321 321 321 321 321
308 309 313 315 313 313 312 310 314 309 312 315 316 314 318 319 319 319 321 321 320 317 317 317 321 324 323 322 321 320 320 322 322 322 321 320 320 319 319 320 320 320 320 320
307 311 310 312 311 311 315 310 309 311 311 312 314 321 321 320 320 320 320 320 321 319 318 316 317 319 320 323 322 321 321 320 321 322 322 321 320 319 319 319 319 319 319 319
307 310 310 308 309 311 314 316 311 316 313 313 314 312 313 321 320 319 320 320 321 319 319 317 316 314 315 315 319 322 321 321 321 320 322 322 322 321 319 318 318 318 318 318
307 308 310 308 306 305 312 313 312 312 315 316 314 316 317 317 318 320 322 321 320 319 318 316 315 313 312 311 311 312 315 321 321 320 320 321 322 321 321 320 318 317 317 316
305 308 308 308 308 308 311 312 312 312 312 314 314 316 317 317 319 319 318 318 318 318 315 313 313 312 309 307 307 308 310 313 320 320 320 320 321 322 321 320 320 318 317 317
304 305 308 311 310 305 308 311 310 313 315 312 315 316 315 315 314 315 316 316 315 313 311 309 308 308 304 302 302 304 307 309 313 320 321 320 320 320 321 320 319 318 318 317
301 304 306 310 310 307 310 312 311 313 316 314 316 315 315 317 317 316 313 311 308 306 304 304 303 302 300 299 301 303 304 304 306 306 313 321 321 320 320 320 319 319 318 317
301 302 305 307 309 308 306 308 307 311 317 315 315 315 316 315 315 316 308 306 303 301 299 300 301 299 298 298 298 301 301 300 300 300 302 309 315 321 320 320 319 319 319 318
303 302 304 306 307 308 306 306 307 314 313 314 313 313 313 310 309 309 303 300 298 296 296 296 298 297 295 295 296 298 296 296 296 298 300 303 309 317 321 320 319 318 315 310
307 305 300 302 303 305 304 308 312 310 310 312 310 309 312 310 306 303 300 297 294 294 295 295 296 296 294 293 293 294 293 293 294 294 296 297 300 306 315 318 314 309 305 297
304 307 306 304 303 302 306 309 309 309 308 309 307 311 310 308 305 300 298 295 294 293 292 291 292 293 292 291 291 291 290 290 291 291 291 292 293 296 299 299 296 295 295 291
306 303 306 306 306 308 308 308 308 309 308 308 307 306 304 302 299 298 296 293 292 290 289 289 291 291 290 289 289 289 288 288 288 287 287 288 288 289 290 292 292 291 290 289
305 304 307 308 308 308 308 306 308 306 304 302 300 301 300 298 296 295 293 291 289 288 288 289 289 288 287 286 286 286 287 287 286 286 285 285 285 285 285 285 286 286 286 287
306 305 307 309 306 308 306 304 306 304 302 301 298 295 294 294 294 292 290 288 287 286 286 286 285 285 285 284 284 284 284 285 285 285 284 284 284 284 284 284 284 284 284 285

GFSCGP_925_thetae_111.txt.gz
Theta_e
305 305 306 306 308 308 308 311 313 314 315 316 317 317 317 316 315 315 316 316 316 315 316 317 325 326 326 328 329 330 331 329 330 330 328 328 329 327 327 327 327 327 327 325
307 307 307 305 306 307 308 308 309 309 312 313 314 315 315 315 315 315 315 315 314 315 315 317 324 325 326 327 329 329 330 328 328 327 327 327 327 327 326 326 327 326 327 327
308 308 308 306 304 305 307 308 308 308 311 314 314 313 311 311 312 313 312 313 314 315 317 318 319 325 325 327 326 327 328 327 327 327 325 324 325 326 326 326 327 326 326 325
303 305 308 308 307 306 307 306 307 308 311 310 310 310 311 311 312 314 315 317 320 322 321 318 317 325 325 326 324 326 326 326 325 324 324 323 325 326 326 326 326 327 327 325
303 305 306 308 309 307 308 307 308 308 309 309 309 309 309 311 314 314 322 321 322 324 323 318 317 322 325 326 323 324 327 325 325 325 324 322 325 325 324 325 326 326 325 324
301 301 305 306 306 307 307 307 306 307 308 308 308 308 309 312 313 322 322 321 321 323 324 326 321 323 325 325 322 325 326 323 324 323 323 324 323 323 324 324 325 325 324 322
301 300 301 307 306 307 307 308 309 311 311 312 310 308 310 312 317 323 322 322 322 322 324 326 326 326 325 322 321 323 324 321 323 323 324 324 322 322 324 323 324 322 320 317
306 305 300 301 307 308 307 309 310 309 312 311 310 311 312 313 315 322 321 321 322 322 325 326 325 325 324 321 321 322 321 322 321 323 323 323 322 323 324 323 323 321 320 317
310 303 301 301 304 311 311 310 311 312 315 316 315 315 316 318 322 322 322 322 321 323 326 326 325 325 324 322 321 321 321 322 320 322 322 321 321 322 323 324 323 322 320 318
310 313 310 308 302 305 310 312 313 313 314 315 314 317 316 322 324 323 323 322 321 323 326 326 325 324 323 321 320 321 321 321 321 320 320 320 320 322 324 324 323 322 321 318
308 310 312 311 305 303 305 310 311 313 313 312 313 314 316 318 323 325 323 320 320 322 324 324 324 322 322 321 320 320 320 320 320 319 319 319 320 321 323 323 322 322 322 320
309 311 313 310 314 314 306 307 310 314 313 314 314 314 319 322 322 322 323 319 318 318 320 320 320 323 321 321 320 320 320 320 320 319 319 320 319 319 321 322 322 322 322 321
307 312 314 312 314 312 314 311 310 309 313 313 316 314 320 321 321 323 323 320 320 318 317 317 316 317 317 322 321 321 321 321 320 320 321 320 320 319 320 320 321 321 321 321
306 311 312 312 312 311 314 315 315 313 311 311 314 321 323 321 322 322 322 321 321 319 318 318 317 314 313 313 321 321 322 321 322 322 322 320 319 320 320 320 320 320 321 320
308 309 310 309 308 311 313 314 314 315 314 310 310 314 322 322 322 321 322 321 321 320 319 318 317 313 311 309 310 312 317 321 322 323 322 321 320 320 319 320 320 320 320 320
304 309 309 309 308 306 308 313 313 311 316 316 316 320 319 319 321 322 321 320 321 319 316 315 315 311 308 306 306 307 309 311 317 321 322 321 320 320 319 318 319 320 320 319
304 306 307 307 308 308 310 312 313 311 311 314 315 319 320 321 322 321 320 319 317 314 312 310 310 307 304 303 302 304 307 309 312 320 320 321 321 321 320 319 317 317 318 319
304 304 306 310 309 309 307 312 311 311 311 314 317 319 319 319 318 317 316 315 312 309 308 306 306 302 300 300 301 303 305 305 308 308 315 319 320 321 320 320 318 318 317 316
303 304 307 308 309 306 311 309 310 311 316 314 317 317 319 317 315 314 310 307 305 304 303 302 302 299 298 298 299 302 301 301 302 301 303 306 309 319 320 320 320 318 317 316
302 303 306 305 308 307 306 306 307 310 317 316 316 318 316 314 317 317 305 303 301 299 298 299 299 297 296 295 297 298 297 297 297 297 298 299 304 308 317 320 319 319 318 317
306 305 305 305 305 306 306 305 309 314 315 315 316 315 315 313 311 306 302 299 297 297 297 296 297 296 294 293 295 295 294 293 294 294 294 295 297 300 307 319 319 318 317 315
307 307 305 305 306 304 305 309 313 312 312 313 313 312 313 308 304 302 299 297 296 296 294 293 294 294 292 291 292 292 291 291 291 291 291 291 293 296 301 311 312 311 309 303
307 306 306 304 305 303 309 310 310 309 311 310 312 311 309 306 302 300 298 296 294 293 292 291 292 291 290 289 289 290 289 289 289 289 288 288 291 293 295 297 297 296 295 291
303 305 307 306 307 308 307 309 307 307 307 308 308 306 304 301 299 298 296 294 292 291 290 290 290 290 288 287 287 287 287 287 287 287 287 286 287 288 289 291 291 291 290 289
302 304 306 306 306 307 303 305 305 303 301 301 299 300 299 298 297 295 293 291 290 289 288 288 287 287 286 285 285 284 285 286 286 286 286 285 285 285 285 285 287 288 289 289
304 302 302 305 301 304 299 298 300 301 301 299 297 296 295 295 293 292 290 288 288 287 286 286 285 285 285 283 283 283 283 285 285 285 285 284 285 285 285 285 284 284 285 285

GFSCGP_925_thetae_117.txt.gz
Theta_e
308 307 309 308 308 308 307 308 309 311 314 314 315 316 317 319 320 321 322 322 323 324 324 323 323 322 322 323 327 328 331 337 341 340 340 337 337 334 334 334 334 334 332 332
307 307 307 307 308 308 307 307 309 309 310 311 312 314 317 317 317 319 320 321 322 322 323 323 323 322 323 323 329 330 332 336 339 339 337 336 337 335 335 333 331 331 331 332
306 307 307 306 306 307 308 307 308 308 309 311 311 312 313 314 315 315 316 318 320 321 321 321 321 321 321 326 330 331 333 335 338 335 335 336 336 334 332 331 331 331 330 328
306 306 305 306 306 306 307 309 308 307 308 309 311 312 312 315 316 317 317 317 318 318 319 319 320 322 322 325 330 332 332 334 338 334 336 337 335 333 332 331 331 330 330 329
307 306 305 306 306 306 305 308 309 309 309 309 309 310 312 314 315 316 316 317 318 320 323 324 324 324 323 324 330 333 333 334 337 336 336 336 336 334 332 330 331 331 330 329
306 306 307 305 306 307 307 307 308 310 310 311 311 311 311 313 315 317 319 319 322 325 326 327 327 329 326 331 333 334 333 335 336 336 336 335 335 333 331 330 330 331 330 331
305 306 306 307 306 306 307 308 308 311 312 313 311 311 312 314 315 316 322 325 326 327 328 329 329 330 327 331 333 330 332 334 334 335 336 335 334 332 331 330 330 330 330 330
306 308 305 306 307 306 306 307 309 310 311 310 309 310 312 314 314 318 323 326 327 328 330 330 331 332 331 331 331 327 330 332 330 333 335 333 332 331 329 329 328 328 329 328
308 307 305 307 308 309 306 308 308 310 310 311 310 310 313 314 315 322 325 325 327 329 331 331 331 331 330 329 327 326 329 329 327 330 332 331 330 329 328 327 328 329 328 326
307 309 307 308 312 311 307 307 308 310 310 310 310 312 313 314 316 322 323 326 328 330 330 330 330 329 327 325 325 325 326 327 327 330 330 330 329 328 327 327 329 328 326 324
306 310 307 309 312 310 307 307 307 308 310 310 310 311 314 315 316 319 323 326 328 329 329 328 325 323 322 324 324 324 324 325 326 329 329 329 328 327 327 327 328 326 324 322
307 308 310 308 311 313 314 307 307 308 309 309 309 311 318 317 319 320 326 326 328 327 326 325 323 321 319 318 322 323 323 324 325 325 326 327 326 326 327 327 327 325 323 321
304 307 309 309 312 311 313 311 307 309 309 308 311 311 319 319 322 325 326 325 325 324 324 323 321 319 316 313 312 313 321 323 323 324 324 324 324 325 326 326 325 323 322 321
304 307 308 311 313 310 313 314 311 310 314 309 310 310 322 319 319 326 324 324 324 324 323 321 319 316 314 311 310 310 311 313 322 323 323 323 323 323 324 326 325 324 322 320
304 307 307 305 305 308 312 316 312 314 315 314 313 311 316 320 322 325 324 323 323 323 321 319 318 316 313 309 308 308 308 309 311 317 322 323 324 324 325 325 325 324 322 320
305 307 305 306 309 309 314 317 315 311 310 312 311 313 312 317 320 322 324 324 322 321 320 317 315 314 313 309 306 307 306 307 307 309 313 324 323 324 325 325 325 324 324 322
306 308 308 306 307 310 318 315 315 316 317 313 315 314 320 316 317 323 323 322 320 318 317 314 313 311 310 310 306 304 304 304 304 304 304 307 321 322 323 324 324 324 324 324
306 307 307 307 308 316 313 310 314 315 314 315 316 317 320 322 320 319 317 316 316 315 313 312 310 308 307 307 308 305 301 301 301 300 300 300 303 311 319 321 323 323 323 323
307 307 309 308 308 310 311 309 309 312 315 317 316 319 319 316 317 314 311 312 311 311 310 309 306 305 304 304 304 304 301 298 298 297 297 297 299 301 307 315 322 322 322 322
306 308 309 307 306 310 309 308 308 311 319 313 315 319 318 317 320 312 310 309 308 307 307 306 305 303 302 301 302 301 299 297 295 294 294 295 296 297 299 304 312 320 322 322
307 308 309 308 309 306 309 308 310 317 316 313 308 315 315 313 309 307 307 306 306 304 303 304 302 300 299 298 299 299 297 295 293 292 293 293 293 294 296 299 305 313 319 321
305 309 311 309 308 310 309 308 312 311 311 308 310 311 311 310 308 305 304 304 304 303 302 301 301 298 296 295 296 296 295 293 292 291 291 292 291 292 292 294 299 307 313 310
308 306 308 307 308 307 304 305 307 306 307 306 312 313 310 307 305 303 302 301 300 300 299 298 298 297 295 293 293 293 292 292 291 290 290 289 290 289 290 292 293 296 297 296
303 305 305 304 306 303 300 299 300 302 302 302 304 308 307 305 303 301 300 299 299 297 296 296 295 294 293 292 291 291 291 291 290 289 289 288 287 287 288 289 289 290 291 290
303 305 303 303 303 301 300 298 298 298 298 300 298 302 303 301 300 300 298 297 296 295 294 293 292 291 290 289 289 288 289 290 289 288 288 287 286 286 285 284 285 286 288 288
303 302 302 303 300 299 299 297 297 296 296 296 298 299 299 299 298 297 295 292 291 291 290 289 289 288 287 287 286 286 286 288 288 287 286 286 286 285 284 284 283 283 283 285

GFSCGP_925_thetae_120.txt.gz
Theta_e
308 308 308 307 309 309 309 309 308 309 310 311 313 314 316 317 318 319 321 322 323 324 324 324 324 323 323 323 325 325 337 339 344 345 344 342 341 339 339 338 336 335 335 335
306 307 307 307 307 307 307 308 309 309 309 309 310 310 313 314 316 318 320 320 322 322 323 325 325 325 325 324 326 327 327 339 342 344 344 341 341 337 335 334 334 333 334 334
306 306 307 306 306 307 307 307 308 309 309 309 309 310 311 312 313 315 316 316 316 321 323 323 324 325 325 326 328 329 330 332 340 343 342 340 338 336 334 335 333 332 332 332
307 307 307 307 307 307 307 307 307 307 308 307 309 309 311 312 313 314 315 315 316 317 319 322 323 323 324 326 327 331 330 332 338 342 339 338 336 337 335 334 332 332 330 329
306 305 304 305 305 305 307 308 307 307 307 309 308 307 309 311 312 313 315 316 317 317 318 319 320 321 321 323 328 330 331 332 337 339 337 336 337 336 334 333 331 331 331 329
304 304 305 305 306 307 308 308 306 308 308 308 310 309 309 310 312 313 316 318 318 320 325 324 325 325 326 331 332 333 333 333 339 337 337 336 337 336 334 334 333 332 329 330
304 304 305 306 306 306 307 309 307 309 310 309 310 310 311 312 312 313 318 324 326 327 328 328 328 330 329 334 335 336 335 335 338 337 336 337 337 338 335 333 333 332 331 331
304 307 305 305 305 309 312 310 309 309 311 309 309 310 311 312 312 313 323 326 327 328 330 331 332 332 332 334 334 330 330 332 337 337 336 337 334 337 334 333 331 331 329 329
306 305 304 306 306 307 313 309 307 309 310 311 310 311 312 312 313 313 325 326 326 329 330 332 331 331 329 329 329 328 328 329 332 333 335 335 335 334 332 331 330 330 330 330
304 307 305 306 307 310 312 311 310 308 308 309 309 312 312 311 312 315 325 326 330 331 331 330 328 327 326 325 326 325 326 329 330 330 332 333 332 332 330 329 329 328 329 328
306 307 306 306 310 313 314 316 312 309 308 309 312 313 313 315 314 321 324 328 330 330 329 326 325 322 321 322 322 324 324 326 327 327 329 331 330 330 329 328 328 327 327 326
304 307 306 306 309 309 309 311 313 309 308 310 311 312 313 318 319 321 322 326 329 329 326 323 322 320 316 315 315 315 322 324 326 326 327 330 330 328 327 326 328 327 325 323
304 303 308 306 307 306 307 308 310 313 315 311 313 312 312 316 321 319 326 329 328 325 323 321 318 317 314 312 311 311 313 315 321 324 325 326 326 325 326 326 328 327 324 324
304 306 307 309 309 308 308 310 312 315 315 311 310 310 310 317 320 327 326 323 324 324 322 319 317 315 313 311 310 309 309 310 315 320 324 324 323 324 325 326 326 324 323 322
304 307 307 306 305 306 309 310 315 315 313 316 312 310 311 318 321 325 324 325 324 322 320 319 317 315 312 310 309 307 307 306 309 312 317 320 323 323 323 325 326 324 322 321
305 307 307 308 306 306 307 313 317 314 312 312 313 313 317 317 316 319 319 324 323 320 317 316 314 313 313 310 308 306 305 304 305 306 306 307 316 323 325 325 325 325 322 321
306 307 308 309 306 307 314 314 313 314 317 318 318 315 316 321 320 316 312 318 319 317 315 313 311 310 309 310 307 304 303 302 302 302 303 303 306 312 317 324 325 324 324 322
306 307 308 310 309 313 313 310 308 312 313 315 315 318 319 316 315 315 314 314 314 313 311 310 309 307 306 306 306 305 302 300 299 299 299 300 301 302 308 317 322 324 324 324
305 307 309 309 308 307 311 310 310 310 313 311 314 314 316 314 312 312 311 310 311 310 309 307 305 304 303 303 304 302 301 298 297 296 296 296 298 299 299 304 312 321 323 323
306 307 309 310 310 309 311 307 310 311 316 311 311 311 315 316 312 310 308 307 306 307 306 305 303 301 300 300 302 300 298 297 295 294 294 294 295 298 297 297 302 310 319 322
306 308 309 311 310 311 306 307 309 308 310 309 304 308 307 306 309 307 306 306 305 304 303 303 300 299 297 297 299 298 296 295 294 293 292 292 293 295 295 295 299 305 310 319
306 307 308 308 309 311 303 306 307 307 305 304 302 307 309 307 306 305 303 303 302 301 300 300 299 297 295 294 295 295 294 293 292 291 290 290 290 292 294 295 295 299 302 302
307 307 309 308 307 303 300 300 299 301 302 301 300 307 306 305 303 302 301 300 299 298 297 297 296 295 293 293 292 292 292 291 290 290 289 288 287 288 291 293 294 292 295 293
302 304 305 304 304 301 299 297 297 297 298 300 298 303 302 302 300 299 299 298 297 295 294 294 293 292 291 290 289 289 290 290 289 288 287 287 286 285 285 287 287 289 291 292
305 304 303 303 302 300 300 297 296 296 296 296 298 298 300 299 298 296 294 293 292 291 291 290 290 289 288 287 287 287 288 289 288 287 286 286 285 284 284 283 284 284 286 288
304 303 302 301 300 299 299 298 295 297 296 295 296 297 296 297 295 292 291 289 288 287 287 286 286 286 285 285 285 285 286 287 287 286 285 285 285 284 283 283 282 282 282 283